<?xml version='1.0' encoding='UTF-8'?><gpx version="1.1" creator="JPX - https://github.com/jenetics/jpx" xmlns="http://www.topografix.com/GPX/1/1"><trk><trkseg><trkpt lat="48.120152265023485" lon="1.3243283957930858"><ele>145.0</ele><time>2026-04-25T14:43:58.999Z</time></trkpt><trkpt lat="48.12009754031789" lon="1.3242626879859696"><ele>145.0</ele><time>2026-04-25T14:44:00.999Z</time></trkpt><trkpt lat="48.12004239926907" lon="1.3241990954808256"><ele>145.0</ele><time>2026-04-25T14:44:02.999Z</time></trkpt><trkpt lat="48.1199759548716" lon="1.324129258114575"><ele>145.0</ele><time>2026-04-25T14:44:04.999Z</time></trkpt><trkpt lat="48.119915581882985" lon="1.3240719565385617"><ele>145.0</ele><time>2026-04-25T14:44:06.999Z</time></trkpt><trkpt lat="48.119842892553336" lon="1.323996728090308"><ele>145.0</ele><time>2026-04-25T14:44:08.999Z</time></trkpt><trkpt lat="48.11976875922877" lon="1.3239279077938404"><ele>145.16666666666669</ele><time>2026-04-25T14:44:10.999Z</time></trkpt><trkpt lat="48.11970121980585" lon="1.3238430114136557"><ele>145.33333333333334</ele><time>2026-04-25T14:44:12.999Z</time></trkpt><trkpt lat="48.11963057385496" lon="1.3237691348143228"><ele>145.5</ele><time>2026-04-25T14:44:14.999Z</time></trkpt><trkpt lat="48.11956745881688" lon="1.3236912014541666"><ele>145.66666666666666</ele><time>2026-04-25T14:44:17Z</time></trkpt><trkpt lat="48.11950273700858" lon="1.323614330439337"><ele>145.83333333333331</ele><time>2026-04-25T14:44:19Z</time></trkpt><trkpt lat="48.11943602253054" lon="1.3235379195651071"><ele>146.0</ele><time>2026-04-25T14:44:21Z</time></trkpt><trkpt lat="48.11936881419545" lon="1.3234605086409208"><ele>146.0</ele><time>2026-04-25T14:44:23Z</time></trkpt><trkpt lat="48.11931053557353" lon="1.3233851865773045"><ele>146.0</ele><time>2026-04-25T14:44:25Z</time></trkpt><trkpt lat="48.11923822349346" lon="1.3233131147334234"><ele>146.0</ele><time>2026-04-25T14:44:27Z</time></trkpt><trkpt lat="48.11917468623914" lon="1.3232405960119986"><ele>146.0</ele><time>2026-04-25T14:44:29Z</time></trkpt><trkpt lat="48.119112149836475" lon="1.3231594411036844"><ele>146.0</ele><time>2026-04-25T14:44:31Z</time></trkpt><trkpt lat="48.1190442477493" lon="1.3230822573552536"><ele>146.0</ele><time>2026-04-25T14:44:33Z</time></trkpt><trkpt lat="48.11897288986917" lon="1.3230088579456751"><ele>146.5</ele><time>2026-04-25T14:44:35Z</time></trkpt><trkpt lat="48.11891134783694" lon="1.3229299526713512"><ele>147.0</ele><time>2026-04-25T14:44:37Z</time></trkpt><trkpt lat="48.11884108973481" lon="1.3228479253512564"><ele>147.5</ele><time>2026-04-25T14:44:39Z</time></trkpt><trkpt lat="48.11877489971186" lon="1.3227757909531244"><ele>148.0</ele><time>2026-04-25T14:44:41Z</time></trkpt><trkpt lat="48.11870364295065" lon="1.3226980188299398"><ele>148.5</ele><time>2026-04-25T14:44:43Z</time></trkpt><trkpt lat="48.118635316238525" lon="1.3226260281363433"><ele>149.0</ele><time>2026-04-25T14:44:45Z</time></trkpt><trkpt lat="48.11856440656935" lon="1.3225481106087027"><ele>149.0</ele><time>2026-04-25T14:44:47Z</time></trkpt><trkpt lat="48.11849624455607" lon="1.3224639068757844"><ele>149.0</ele><time>2026-04-25T14:44:49Z</time></trkpt><trkpt lat="48.11842764596111" lon="1.322380813436777"><ele>149.0</ele><time>2026-04-25T14:44:51Z</time></trkpt><trkpt lat="48.11836104304722" lon="1.3223055498261365"><ele>149.0</ele><time>2026-04-25T14:44:53Z</time></trkpt><trkpt lat="48.11828683276233" lon="1.3222340689726162"><ele>149.0</ele><time>2026-04-25T14:44:55Z</time></trkpt><trkpt lat="48.11822126675326" lon="1.322145488658061"><ele>149.0</ele><time>2026-04-25T14:44:57Z</time></trkpt><trkpt lat="48.118148744450515" lon="1.3220708485577763"><ele>149.33333333333331</ele><time>2026-04-25T14:44:59Z</time></trkpt><trkpt lat="48.118075726841504" lon="1.3219906363001512"><ele>149.66666666666666</ele><time>2026-04-25T14:45:01Z</time></trkpt><trkpt lat="48.118007061737494" lon="1.3219089424653965"><ele>150.0</ele><time>2026-04-25T14:45:03Z</time></trkpt><trkpt lat="48.117934549375335" lon="1.3218287840592358"><ele>150.33333333333334</ele><time>2026-04-25T14:45:05Z</time></trkpt><trkpt lat="48.11786168720128" lon="1.3217490195069472"><ele>150.66666666666669</ele><time>2026-04-25T14:45:07Z</time></trkpt><trkpt lat="48.1177897770185" lon="1.3216666399399875"><ele>151.0</ele><time>2026-04-25T14:45:09Z</time></trkpt><trkpt lat="48.117716484060864" lon="1.3215865300530147"><ele>151.0</ele><time>2026-04-25T14:45:11Z</time></trkpt><trkpt lat="48.11764809361453" lon="1.3215048219114005"><ele>151.0</ele><time>2026-04-25T14:45:13Z</time></trkpt><trkpt lat="48.11757093806075" lon="1.3214387376760672"><ele>151.0</ele><time>2026-04-25T14:45:15Z</time></trkpt><trkpt lat="48.117507119167385" lon="1.321350788013877"><ele>151.0</ele><time>2026-04-25T14:45:17Z</time></trkpt><trkpt lat="48.117434922910874" lon="1.3212680562313435"><ele>151.0</ele><time>2026-04-25T14:45:19Z</time></trkpt><trkpt lat="48.11736049484435" lon="1.321188421977469"><ele>151.0</ele><time>2026-04-25T14:45:21Z</time></trkpt><trkpt lat="48.117298592295505" lon="1.3210905857255912"><ele>151.2</ele><time>2026-04-25T14:45:23Z</time></trkpt><trkpt lat="48.11721356528228" lon="1.3210228614694413"><ele>151.39999999999998</ele><time>2026-04-25T14:45:25Z</time></trkpt><trkpt lat="48.11713381156472" lon="1.3209542540249253"><ele>151.6</ele><time>2026-04-25T14:45:27Z</time></trkpt><trkpt lat="48.117064661797066" lon="1.320863947590602"><ele>151.79999999999998</ele><time>2026-04-25T14:45:29Z</time></trkpt><trkpt lat="48.11699261305485" lon="1.3207900594455755"><ele>152.0</ele><time>2026-04-25T14:45:31Z</time></trkpt><trkpt lat="48.11692637686795" lon="1.3206996660502635"><ele>152.0</ele><time>2026-04-25T14:45:33Z</time></trkpt><trkpt lat="48.11684915141998" lon="1.320624860929102"><ele>152.0</ele><time>2026-04-25T14:45:35Z</time></trkpt><trkpt lat="48.11677625863424" lon="1.3205487414486794"><ele>152.0</ele><time>2026-04-25T14:45:37Z</time></trkpt><trkpt lat="48.116709544457755" lon="1.320460744267728"><ele>152.0</ele><time>2026-04-25T14:45:39Z</time></trkpt><trkpt lat="48.11664968895768" lon="1.3203638825819743"><ele>152.0</ele><time>2026-04-25T14:45:41Z</time></trkpt><trkpt lat="48.11657877380866" lon="1.3202829990638265"><ele>152.0</ele><time>2026-04-25T14:45:43Z</time></trkpt><trkpt lat="48.116502068461685" lon="1.320203308891765"><ele>152.2</ele><time>2026-04-25T14:45:45Z</time></trkpt><trkpt lat="48.11642852856494" lon="1.320119993829732"><ele>152.39999999999998</ele><time>2026-04-25T14:45:46.999Z</time></trkpt><trkpt lat="48.11635455804453" lon="1.3200345195948073"><ele>152.60000000000002</ele><time>2026-04-25T14:45:48.999Z</time></trkpt><trkpt lat="48.116274330783625" lon="1.3199580995425164"><ele>152.8</ele><time>2026-04-25T14:45:50.999Z</time></trkpt><trkpt lat="48.11620219659829" lon="1.3198631554484836"><ele>153.0</ele><time>2026-04-25T14:45:52.999Z</time></trkpt><trkpt lat="48.11614259759372" lon="1.3197522185557113"><ele>152.20000000000002</ele><time>2026-04-25T14:45:54.999Z</time></trkpt><trkpt lat="48.116090499425354" lon="1.3196386389871415"><ele>151.4</ele><time>2026-04-25T14:45:56.999Z</time></trkpt><trkpt lat="48.11604634737753" lon="1.319518356290134"><ele>150.60000000000002</ele><time>2026-04-25T14:45:58.999Z</time></trkpt><trkpt lat="48.116029398098846" lon="1.3193781609334483"><ele>149.8</ele><time>2026-04-25T14:46:00.999Z</time></trkpt><trkpt lat="48.11600996834442" lon="1.319235810257062"><ele>149.0</ele><time>2026-04-25T14:46:02.999Z</time></trkpt><trkpt lat="48.11600203861299" lon="1.319085659491318"><ele>149.0</ele><time>2026-04-25T14:46:04.999Z</time></trkpt><trkpt lat="48.11598966835872" lon="1.3189223200094782"><ele>149.0</ele><time>2026-04-25T14:46:06.999Z</time></trkpt><trkpt lat="48.11597241106206" lon="1.3187569683901355"><ele>149.0</ele><time>2026-04-25T14:46:08.999Z</time></trkpt><trkpt lat="48.115945653268795" lon="1.318605277815735"><ele>149.0</ele><time>2026-04-25T14:46:10.999Z</time></trkpt><trkpt lat="48.11588857192905" lon="1.3184934556619294"><ele>149.0</ele><time>2026-04-25T14:46:13Z</time></trkpt><trkpt lat="48.11582493014914" lon="1.318395911412622"><ele>148.16666666666666</ele><time>2026-04-25T14:46:15Z</time></trkpt><trkpt lat="48.11576338450521" lon="1.3182953410460125"><ele>147.33333333333331</ele><time>2026-04-25T14:46:17Z</time></trkpt><trkpt lat="48.11569979467559" lon="1.3182101378916895"><ele>146.5</ele><time>2026-04-25T14:46:19Z</time></trkpt><trkpt lat="48.115639645014085" lon="1.3181138246107729"><ele>145.66666666666666</ele><time>2026-04-25T14:46:21Z</time></trkpt><trkpt lat="48.11558494642321" lon="1.318010190826791"><ele>144.83333333333334</ele><time>2026-04-25T14:46:23Z</time></trkpt><trkpt lat="48.115529965408" lon="1.3179006622135367"><ele>144.0</ele><time>2026-04-25T14:46:25Z</time></trkpt><trkpt lat="48.115482480217125" lon="1.3178235217326943"><ele>143.83333333333334</ele><time>2026-04-25T14:46:33Z</time></trkpt><trkpt lat="48.11540872631426" lon="1.3178853544277633"><ele>143.66666666666666</ele><time>2026-04-25T14:46:36Z</time></trkpt><trkpt lat="48.11537313123625" lon="1.3180083332122792"><ele>143.5</ele><time>2026-04-25T14:46:38Z</time></trkpt><trkpt lat="48.11533900226642" lon="1.318092847897769"><ele>143.33333333333331</ele><time>2026-04-25T14:46:39Z</time></trkpt><trkpt lat="48.11529458545233" lon="1.3181975085933961"><ele>143.16666666666666</ele><time>2026-04-25T14:46:40Z</time></trkpt><trkpt lat="48.11523925983342" lon="1.3183123615242696"><ele>143.0</ele><time>2026-04-25T14:46:41Z</time></trkpt><trkpt lat="48.11517988595804" lon="1.3184286702421162"><ele>142.75</ele><time>2026-04-25T14:46:42Z</time></trkpt><trkpt lat="48.1151142518141" lon="1.3185539835824043"><ele>142.5</ele><time>2026-04-25T14:46:43Z</time></trkpt><trkpt lat="48.115040741879575" lon="1.3186743229269728"><ele>142.25</ele><time>2026-04-25T14:46:44Z</time></trkpt><trkpt lat="48.11495957729808" lon="1.3187962521930645"><ele>142.0</ele><time>2026-04-25T14:46:45Z</time></trkpt><trkpt lat="48.11487811831203" lon="1.3189371276945925"><ele>141.75</ele><time>2026-04-25T14:46:46Z</time></trkpt><trkpt lat="48.11478935151166" lon="1.3190659492007857"><ele>141.5</ele><time>2026-04-25T14:46:47Z</time></trkpt><trkpt lat="48.11469235196082" lon="1.3192060105512962"><ele>141.25</ele><time>2026-04-25T14:46:48Z</time></trkpt><trkpt lat="48.11460045209398" lon="1.3193385929128387"><ele>141.0</ele><time>2026-04-25T14:46:49Z</time></trkpt><trkpt lat="48.11452276562345" lon="1.319458196398597"><ele>141.0</ele><time>2026-04-25T14:46:50Z</time></trkpt><trkpt lat="48.114443907765285" lon="1.3195777412913776"><ele>141.0</ele><time>2026-04-25T14:46:51Z</time></trkpt><trkpt lat="48.11434602206052" lon="1.3196684622562613"><ele>141.0</ele><time>2026-04-25T14:46:52Z</time></trkpt><trkpt lat="48.11423246890872" lon="1.3197491101604262"><ele>141.0</ele><time>2026-04-25T14:46:53Z</time></trkpt><trkpt lat="48.114123616356565" lon="1.3198168745583483"><ele>139.6</ele><time>2026-04-25T14:46:54Z</time></trkpt><trkpt lat="48.11402969482284" lon="1.3198856716488632"><ele>138.2</ele><time>2026-04-25T14:46:55Z</time></trkpt><trkpt lat="48.113947991781856" lon="1.319955872418515"><ele>136.8</ele><time>2026-04-25T14:46:56Z</time></trkpt><trkpt lat="48.11387128059984" lon="1.320048719301406"><ele>135.4</ele><time>2026-04-25T14:46:57Z</time></trkpt><trkpt lat="48.113808650434386" lon="1.3201780595990569"><ele>134.0</ele><time>2026-04-25T14:46:58Z</time></trkpt><trkpt lat="48.11375575719214" lon="1.3203241106842647"><ele>134.0</ele><time>2026-04-25T14:46:59Z</time></trkpt><trkpt lat="48.11371540309268" lon="1.320482860843167"><ele>134.0</ele><time>2026-04-25T14:47:00Z</time></trkpt><trkpt lat="48.11366953732533" lon="1.3206505550759078"><ele>134.0</ele><time>2026-04-25T14:47:01Z</time></trkpt><trkpt lat="48.11362983548456" lon="1.3207840866602873"><ele>134.0</ele><time>2026-04-25T14:47:02Z</time></trkpt><trkpt lat="48.113631312308755" lon="1.3209038467352272"><ele>134.0</ele><time>2026-04-25T14:47:03Z</time></trkpt><trkpt lat="48.113629457738476" lon="1.3210404802517954"><ele>131.2</ele><time>2026-04-25T14:47:04Z</time></trkpt><trkpt lat="48.11363340721854" lon="1.3211567859510465"><ele>128.4</ele><time>2026-04-25T14:47:05Z</time></trkpt><trkpt lat="48.11365915258099" lon="1.3212863308647917"><ele>125.6</ele><time>2026-04-25T14:47:06Z</time></trkpt><trkpt lat="48.11370166610812" lon="1.3214205729316932"><ele>122.8</ele><time>2026-04-25T14:47:07Z</time></trkpt><trkpt lat="48.113761106709305" lon="1.3215482897824578"><ele>120.0</ele><time>2026-04-25T14:47:08Z</time></trkpt><trkpt lat="48.113839335759934" lon="1.3216643944312974"><ele>118.6</ele><time>2026-04-25T14:47:09Z</time></trkpt><trkpt lat="48.1139228069261" lon="1.3217687429007443"><ele>117.2</ele><time>2026-04-25T14:47:10Z</time></trkpt><trkpt lat="48.11400665060683" lon="1.3218667623398321"><ele>115.80000000000001</ele><time>2026-04-25T14:47:11Z</time></trkpt><trkpt lat="48.11409441058372" lon="1.3219707090680566"><ele>114.4</ele><time>2026-04-25T14:47:12Z</time></trkpt><trkpt lat="48.1141804294381" lon="1.3220836716742974"><ele>113.0</ele><time>2026-04-25T14:47:13Z</time></trkpt><trkpt lat="48.1142701344674" lon="1.3221947829683316"><ele>113.80000000000001</ele><time>2026-04-25T14:47:14Z</time></trkpt><trkpt lat="48.11435231986418" lon="1.3223101115463802"><ele>114.60000000000001</ele><time>2026-04-25T14:47:15Z</time></trkpt><trkpt lat="48.11442059838946" lon="1.3224267281922701"><ele>115.39999999999999</ele><time>2026-04-25T14:47:16Z</time></trkpt><trkpt lat="48.11447481882282" lon="1.3225500444853657"><ele>116.19999999999999</ele><time>2026-04-25T14:47:17Z</time></trkpt><trkpt lat="48.11450619727377" lon="1.3226831397481538"><ele>117.0</ele><time>2026-04-25T14:47:18Z</time></trkpt><trkpt lat="48.11452228932893" lon="1.3228206316808047"><ele>117.0</ele><time>2026-04-25T14:47:19Z</time></trkpt><trkpt lat="48.11451214326391" lon="1.3229664401770036"><ele>117.0</ele><time>2026-04-25T14:47:20Z</time></trkpt><trkpt lat="48.114492558907116" lon="1.323116772688242"><ele>117.0</ele><time>2026-04-25T14:47:21Z</time></trkpt><trkpt lat="48.11446508024446" lon="1.3232414999762114"><ele>117.0</ele><time>2026-04-25T14:47:22Z</time></trkpt><trkpt lat="48.114442409521466" lon="1.3233480650962068"><ele>117.0</ele><time>2026-04-25T14:47:23Z</time></trkpt><trkpt lat="48.11441915114004" lon="1.3234491607531786"><ele>117.0</ele><time>2026-04-25T14:47:24Z</time></trkpt><trkpt lat="48.11440698177488" lon="1.3235505521251363"><ele>116.28571428571429</ele><time>2026-04-25T14:47:25Z</time></trkpt><trkpt lat="48.114386733999176" lon="1.323646977271737"><ele>115.57142857142858</ele><time>2026-04-25T14:47:26Z</time></trkpt><trkpt lat="48.11437147215844" lon="1.3237409515040595"><ele>114.85714285714286</ele><time>2026-04-25T14:47:27Z</time></trkpt><trkpt lat="48.11436425905569" lon="1.3238373064556672"><ele>114.14285714285714</ele><time>2026-04-25T14:47:28Z</time></trkpt><trkpt lat="48.11435431818956" lon="1.323942290187505"><ele>113.42857142857143</ele><time>2026-04-25T14:47:29Z</time></trkpt><trkpt lat="48.114347410189865" lon="1.3240369886572192"><ele>112.71428571428572</ele><time>2026-04-25T14:47:30Z</time></trkpt><trkpt lat="48.114348110982824" lon="1.3241321566449205"><ele>112.0</ele><time>2026-04-25T14:47:31Z</time></trkpt><trkpt lat="48.11433414301314" lon="1.3242969022480857"><ele>112.0</ele><time>2026-04-25T14:47:33Z</time></trkpt><trkpt lat="48.11433043363875" lon="1.324447299245412"><ele>111.99999999999999</ele><time>2026-04-25T14:47:35Z</time></trkpt><trkpt lat="48.114329270046426" lon="1.324600805164513"><ele>111.99999999999999</ele><time>2026-04-25T14:47:37Z</time></trkpt><trkpt lat="48.11431232814067" lon="1.3247774076714534"><ele>112.0</ele><time>2026-04-25T14:47:39Z</time></trkpt><trkpt lat="48.11431247443391" lon="1.3248830900379651"><ele>112.0</ele><time>2026-04-25T14:47:40Z</time></trkpt><trkpt lat="48.11430444360933" lon="1.3249840978813119"><ele>112.0</ele><time>2026-04-25T14:47:41Z</time></trkpt><trkpt lat="48.11428568146472" lon="1.3250745734682958"><ele>111.99999999999999</ele><time>2026-04-25T14:47:42Z</time></trkpt><trkpt lat="48.11425558850531" lon="1.3252369873426886"><ele>111.99999999999999</ele><time>2026-04-25T14:47:44Z</time></trkpt><trkpt lat="48.11422855352584" lon="1.325390634861309"><ele>112.0</ele><time>2026-04-25T14:47:46Z</time></trkpt><trkpt lat="48.114200935402756" lon="1.325538116900209"><ele>112.0</ele><time>2026-04-25T14:47:48Z</time></trkpt><trkpt lat="48.1141665603364" lon="1.3256888943306016"><ele>111.8</ele><time>2026-04-25T14:47:50Z</time></trkpt><trkpt lat="48.114114503215916" lon="1.3258513082654475"><ele>111.6</ele><time>2026-04-25T14:47:51.999Z</time></trkpt><trkpt lat="48.114065932471426" lon="1.3259826526055594"><ele>111.39999999999999</ele><time>2026-04-25T14:47:53.999Z</time></trkpt><trkpt lat="48.11402801902109" lon="1.3261057279875768"><ele>111.19999999999999</ele><time>2026-04-25T14:47:55.999Z</time></trkpt><trkpt lat="48.11398657272868" lon="1.3262420406491833"><ele>111.0</ele><time>2026-04-25T14:47:57.999Z</time></trkpt><trkpt lat="48.113946434262594" lon="1.326376459578536"><ele>110.8</ele><time>2026-04-25T14:47:59.999Z</time></trkpt><trkpt lat="48.113908021174815" lon="1.3265101098639314"><ele>110.6</ele><time>2026-04-25T14:48:01.999Z</time></trkpt><trkpt lat="48.11386226963949" lon="1.3266321795824367"><ele>110.4</ele><time>2026-04-25T14:48:03.999Z</time></trkpt><trkpt lat="48.11380731377321" lon="1.3267432948874625"><ele>110.2</ele><time>2026-04-25T14:48:05.999Z</time></trkpt><trkpt lat="48.11378156336766" lon="1.326876412589006"><ele>110.0</ele><time>2026-04-25T14:48:07.999Z</time></trkpt><trkpt lat="48.11376634345964" lon="1.327008760500872"><ele>109.99999999999999</ele><time>2026-04-25T14:48:10Z</time></trkpt><trkpt lat="48.113759601058476" lon="1.3271724142112464"><ele>110.0</ele><time>2026-04-25T14:48:12Z</time></trkpt><trkpt lat="48.11375114384429" lon="1.3272668847009752"><ele>110.0</ele><time>2026-04-25T14:48:13Z</time></trkpt><trkpt lat="48.113756031687245" lon="1.3273794979234965"><ele>110.0</ele><time>2026-04-25T14:48:14Z</time></trkpt><trkpt lat="48.113753833314405" lon="1.3274947851840992"><ele>109.99999999999999</ele><time>2026-04-25T14:48:15Z</time></trkpt><trkpt lat="48.11375244562866" lon="1.327614649476342"><ele>110.0</ele><time>2026-04-25T14:48:16Z</time></trkpt><trkpt lat="48.11375690297046" lon="1.3277416499916013"><ele>110.2</ele><time>2026-04-25T14:48:17Z</time></trkpt><trkpt lat="48.11375763071501" lon="1.3278772049926624"><ele>110.4</ele><time>2026-04-25T14:48:18Z</time></trkpt><trkpt lat="48.11375865662169" lon="1.3280139082252072"><ele>110.6</ele><time>2026-04-25T14:48:19Z</time></trkpt><trkpt lat="48.11375840357134" lon="1.328148743339863"><ele>110.8</ele><time>2026-04-25T14:48:20Z</time></trkpt><trkpt lat="48.11374638654705" lon="1.328285769249997"><ele>111.0</ele><time>2026-04-25T14:48:21Z</time></trkpt><trkpt lat="48.11376818244526" lon="1.328431575091889"><ele>111.0</ele><time>2026-04-25T14:48:22Z</time></trkpt><trkpt lat="48.113781487825015" lon="1.3285739645430683"><ele>111.0</ele><time>2026-04-25T14:48:23Z</time></trkpt><trkpt lat="48.11380187019958" lon="1.3287142749325804"><ele>111.0</ele><time>2026-04-25T14:48:24Z</time></trkpt><trkpt lat="48.11381693501321" lon="1.3288537106702665"><ele>111.0</ele><time>2026-04-25T14:48:25Z</time></trkpt><trkpt lat="48.11383139396025" lon="1.3290010416732068"><ele>111.0</ele><time>2026-04-25T14:48:26Z</time></trkpt><trkpt lat="48.11384180728493" lon="1.3291550735211044"><ele>111.0</ele><time>2026-04-25T14:48:27Z</time></trkpt><trkpt lat="48.113871932340345" lon="1.3293035759376035"><ele>111.0</ele><time>2026-04-25T14:48:28Z</time></trkpt><trkpt lat="48.11387402914968" lon="1.329429602850606"><ele>111.0</ele><time>2026-04-25T14:48:29Z</time></trkpt><trkpt lat="48.11388811405106" lon="1.3295428316402125"><ele>111.0</ele><time>2026-04-25T14:48:30Z</time></trkpt><trkpt lat="48.11388775935517" lon="1.3296778430508185"><ele>111.0</ele><time>2026-04-25T14:48:32Z</time></trkpt><trkpt lat="48.11389819205245" lon="1.329907090300913"><ele>111.0</ele><time>2026-04-25T14:49:05Z</time></trkpt><trkpt lat="48.113897433314236" lon="1.3300197821134212"><ele>111.0</ele><time>2026-04-25T14:49:09Z</time></trkpt><trkpt lat="48.11390623910624" lon="1.3301541986543917"><ele>111.0</ele><time>2026-04-25T14:49:13Z</time></trkpt><trkpt lat="48.11382312179071" lon="1.3301841703137176"><ele>111.0</ele><time>2026-04-25T14:49:15Z</time></trkpt><trkpt lat="48.113699517041915" lon="1.3301755280383956"><ele>111.0</ele><time>2026-04-25T14:49:17Z</time></trkpt><trkpt lat="48.11362793579483" lon="1.3301855305329655"><ele>111.0</ele><time>2026-04-25T14:49:18Z</time></trkpt><trkpt lat="48.11355010724128" lon="1.330193776007893"><ele>111.0</ele><time>2026-04-25T14:49:19Z</time></trkpt><trkpt lat="48.11346383540742" lon="1.3301965318797513"><ele>111.0</ele><time>2026-04-25T14:49:20Z</time></trkpt><trkpt lat="48.11339340759072" lon="1.3301782951126293"><ele>111.0</ele><time>2026-04-25T14:49:21Z</time></trkpt><trkpt lat="48.113328142502574" lon="1.3303684728839873"><ele>111.0</ele><time>2026-04-25T14:49:22Z</time></trkpt><trkpt lat="48.11325728601485" lon="1.3304454448497902"><ele>111.0</ele><time>2026-04-25T14:49:23Z</time></trkpt><trkpt lat="48.11317657814767" lon="1.330510643352958"><ele>110.83333333333333</ele><time>2026-04-25T14:49:24Z</time></trkpt><trkpt lat="48.113115157997434" lon="1.3305557315846432"><ele>110.66666666666666</ele><time>2026-04-25T14:49:25Z</time></trkpt><trkpt lat="48.11305007501657" lon="1.3306175411026604"><ele>110.5</ele><time>2026-04-25T14:49:27Z</time></trkpt><trkpt lat="48.1130152951224" lon="1.330698933883631"><ele>110.33333333333333</ele><time>2026-04-25T14:49:29Z</time></trkpt><trkpt lat="48.1130580788827" lon="1.3308473708357529"><ele>110.16666666666666</ele><time>2026-04-25T14:49:31Z</time></trkpt><trkpt lat="48.11309995781462" lon="1.331007031031932"><ele>110.0</ele><time>2026-04-25T14:49:33Z</time></trkpt><trkpt lat="48.113142035082554" lon="1.331132751541275"><ele>110.0</ele><time>2026-04-25T14:49:35Z</time></trkpt><trkpt lat="48.113188064409705" lon="1.3313082970953876"><ele>110.0</ele><time>2026-04-25T14:49:37Z</time></trkpt><trkpt lat="48.113203448529156" lon="1.331407220993224"><ele>110.0</ele><time>2026-04-25T14:49:38Z</time></trkpt><trkpt lat="48.113222881141716" lon="1.331502532951746"><ele>110.0</ele><time>2026-04-25T14:49:39Z</time></trkpt><trkpt lat="48.113283745432405" lon="1.3316909888439101"><ele>110.0</ele><time>2026-04-25T14:49:41Z</time></trkpt><trkpt lat="48.1133089570102" lon="1.3317887077867119"><ele>110.33333333333333</ele><time>2026-04-25T14:49:42Z</time></trkpt><trkpt lat="48.11333557307835" lon="1.331883192197841"><ele>110.66666666666666</ele><time>2026-04-25T14:49:43Z</time></trkpt><trkpt lat="48.11335880231198" lon="1.3319775451799134"><ele>111.0</ele><time>2026-04-25T14:49:44Z</time></trkpt><trkpt lat="48.11339064246445" lon="1.3320724576825493"><ele>111.33333333333334</ele><time>2026-04-25T14:49:45Z</time></trkpt><trkpt lat="48.11342641834737" lon="1.3322491265080536"><ele>111.66666666666667</ele><time>2026-04-25T14:49:47Z</time></trkpt><trkpt lat="48.11347641043594" lon="1.332399603104873"><ele>112.0</ele><time>2026-04-25T14:49:49Z</time></trkpt><trkpt lat="48.11351120083639" lon="1.3325373525549566"><ele>112.00000000000001</ele><time>2026-04-25T14:49:51Z</time></trkpt><trkpt lat="48.11351385119513" lon="1.3326963658820987"><ele>112.0</ele><time>2026-04-25T14:49:53Z</time></trkpt><trkpt lat="48.11353979415698" lon="1.3327939733846443"><ele>112.0</ele><time>2026-04-25T14:49:54Z</time></trkpt><trkpt lat="48.11356324799662" lon="1.3329015321227833"><ele>112.0</ele><time>2026-04-25T14:49:55Z</time></trkpt><trkpt lat="48.113578623650845" lon="1.3330046019144728"><ele>112.00000000000001</ele><time>2026-04-25T14:49:56Z</time></trkpt><trkpt lat="48.11358967291119" lon="1.3331111663119677"><ele>112.0</ele><time>2026-04-25T14:49:58Z</time></trkpt><trkpt lat="48.11350715333222" lon="1.3331237899199095"><ele>112.0</ele><time>2026-04-25T14:50:01Z</time></trkpt><trkpt lat="48.11344080686894" lon="1.3331681676627303"><ele>111.99999999999999</ele><time>2026-04-25T14:50:03Z</time></trkpt><trkpt lat="48.11338241950281" lon="1.333215952433262"><ele>111.99999999999999</ele><time>2026-04-25T14:50:06Z</time></trkpt><trkpt lat="48.113461443976554" lon="1.3331536497919239"><ele>112.0</ele><time>2026-04-25T14:50:11Z</time></trkpt><trkpt lat="48.11358373105486" lon="1.3334079455155479"><ele>112.0</ele><time>2026-04-25T14:50:12Z</time></trkpt><trkpt lat="48.11363765999838" lon="1.3331142055522556"><ele>112.0</ele><time>2026-04-25T14:50:15Z</time></trkpt><trkpt lat="48.11367663847937" lon="1.3332811562160216"><ele>111.99999999999999</ele><time>2026-04-25T14:50:17Z</time></trkpt><trkpt lat="48.11370804346131" lon="1.333447769333017"><ele>111.99999999999999</ele><time>2026-04-25T14:50:19Z</time></trkpt><trkpt lat="48.11374484496471" lon="1.3336265551064437"><ele>112.0</ele><time>2026-04-25T14:50:21Z</time></trkpt><trkpt lat="48.11375221580215" lon="1.3337240864908824"><ele>112.0</ele><time>2026-04-25T14:50:22Z</time></trkpt><trkpt lat="48.11377511448514" lon="1.333826133457529"><ele>112.00000000000001</ele><time>2026-04-25T14:50:23Z</time></trkpt><trkpt lat="48.113803302533015" lon="1.3339318284508788"><ele>112.0</ele><time>2026-04-25T14:50:24Z</time></trkpt><trkpt lat="48.11383339945744" lon="1.3340472518586806"><ele>112.0</ele><time>2026-04-25T14:50:25Z</time></trkpt><trkpt lat="48.113860918982596" lon="1.33416796082914"><ele>112.0</ele><time>2026-04-25T14:50:26Z</time></trkpt><trkpt lat="48.11387788578754" lon="1.3342947906333917"><ele>112.00000000000001</ele><time>2026-04-25T14:50:27Z</time></trkpt><trkpt lat="48.11388504869705" lon="1.3344277901451342"><ele>112.0</ele><time>2026-04-25T14:50:28Z</time></trkpt><trkpt lat="48.113874124060054" lon="1.334569572163946"><ele>112.0</ele><time>2026-04-25T14:50:29Z</time></trkpt><trkpt lat="48.11385255482075" lon="1.3347164112822394"><ele>111.99999999999999</ele><time>2026-04-25T14:50:30Z</time></trkpt><trkpt lat="48.11385197207768" lon="1.3348692208499706"><ele>111.99999999999999</ele><time>2026-04-25T14:50:31Z</time></trkpt><trkpt lat="48.11384491003034" lon="1.3350163399743353"><ele>112.0</ele><time>2026-04-25T14:50:32Z</time></trkpt><trkpt lat="48.113837627411876" lon="1.3351665712210212"><ele>112.0</ele><time>2026-04-25T14:50:33Z</time></trkpt><trkpt lat="48.11381455685135" lon="1.3353093457577643"><ele>112.0</ele><time>2026-04-25T14:50:34Z</time></trkpt><trkpt lat="48.113797009279956" lon="1.3354696798513535"><ele>111.99999999999999</ele><time>2026-04-25T14:50:35Z</time></trkpt><trkpt lat="48.11378400451086" lon="1.3356267556239498"><ele>111.99999999999999</ele><time>2026-04-25T14:50:36Z</time></trkpt><trkpt lat="48.11375402349108" lon="1.3357730939162449"><ele>112.0</ele><time>2026-04-25T14:50:37Z</time></trkpt><trkpt lat="48.11372457357135" lon="1.3359044317211346"><ele>112.0</ele><time>2026-04-25T14:50:38Z</time></trkpt><trkpt lat="48.11369188262524" lon="1.336006477774514"><ele>112.00000000000001</ele><time>2026-04-25T14:50:39Z</time></trkpt><trkpt lat="48.11365549191373" lon="1.3361099651180972"><ele>112.0</ele><time>2026-04-25T14:50:40Z</time></trkpt><trkpt lat="48.113621469734724" lon="1.3362267052390702"><ele>112.0</ele><time>2026-04-25T14:50:41Z</time></trkpt><trkpt lat="48.11359043268109" lon="1.3363506197401163"><ele>112.0</ele><time>2026-04-25T14:50:42Z</time></trkpt><trkpt lat="48.11356101875949" lon="1.3364799159476453"><ele>112.00000000000001</ele><time>2026-04-25T14:50:43Z</time></trkpt><trkpt lat="48.11352637161281" lon="1.3366028712297586"><ele>112.0</ele><time>2026-04-25T14:50:44Z</time></trkpt><trkpt lat="48.1134938815543" lon="1.336734007151523"><ele>112.0</ele><time>2026-04-25T14:50:45Z</time></trkpt><trkpt lat="48.113462340271575" lon="1.336865768334906"><ele>111.99999999999999</ele><time>2026-04-25T14:50:46Z</time></trkpt><trkpt lat="48.11343491733531" lon="1.3370032212318488"><ele>111.99999999999999</ele><time>2026-04-25T14:50:47Z</time></trkpt><trkpt lat="48.1134137229558" lon="1.3371405749232645"><ele>112.0</ele><time>2026-04-25T14:50:48Z</time></trkpt><trkpt lat="48.11340015533201" lon="1.3372758013345716"><ele>112.0</ele><time>2026-04-25T14:50:49Z</time></trkpt><trkpt lat="48.11340076841503" lon="1.337415378584177"><ele>112.0</ele><time>2026-04-25T14:50:50Z</time></trkpt><trkpt lat="48.11340742005359" lon="1.3375652914363068"><ele>111.99999999999999</ele><time>2026-04-25T14:50:51Z</time></trkpt><trkpt lat="48.113408842174984" lon="1.3377039496605743"><ele>111.99999999999999</ele><time>2026-04-25T14:50:52Z</time></trkpt><trkpt lat="48.11340419752118" lon="1.3378351768070684"><ele>112.0</ele><time>2026-04-25T14:50:53Z</time></trkpt><trkpt lat="48.11341145647578" lon="1.337973503534718"><ele>112.0</ele><time>2026-04-25T14:50:54Z</time></trkpt><trkpt lat="48.113436692876725" lon="1.3381092807649262"><ele>111.8</ele><time>2026-04-25T14:50:55Z</time></trkpt><trkpt lat="48.11345725940951" lon="1.3382518998201807"><ele>111.6</ele><time>2026-04-25T14:50:56Z</time></trkpt><trkpt lat="48.113474737989606" lon="1.3383888674568067"><ele>111.39999999999999</ele><time>2026-04-25T14:50:57Z</time></trkpt><trkpt lat="48.113482500294275" lon="1.338526330359508"><ele>111.19999999999999</ele><time>2026-04-25T14:50:58Z</time></trkpt><trkpt lat="48.11348030991157" lon="1.3386645525401053"><ele>111.0</ele><time>2026-04-25T14:50:59Z</time></trkpt><trkpt lat="48.11348722789322" lon="1.3388030742205195"><ele>110.6</ele><time>2026-04-25T14:51:00Z</time></trkpt><trkpt lat="48.1134980741159" lon="1.3389470123447145"><ele>110.19999999999999</ele><time>2026-04-25T14:51:01Z</time></trkpt><trkpt lat="48.11350362393938" lon="1.3390914668200846"><ele>109.80000000000001</ele><time>2026-04-25T14:51:02Z</time></trkpt><trkpt lat="48.11351749882933" lon="1.3392406927250937"><ele>109.4</ele><time>2026-04-25T14:51:03Z</time></trkpt><trkpt lat="48.1135336858072" lon="1.3393889440751143"><ele>109.0</ele><time>2026-04-25T14:51:04Z</time></trkpt><trkpt lat="48.11354057148944" lon="1.3395331821162657"><ele>109.2</ele><time>2026-04-25T14:51:05Z</time></trkpt><trkpt lat="48.113570439023974" lon="1.3397217715007208"><ele>109.4</ele><time>2026-04-25T14:51:06Z</time></trkpt><trkpt lat="48.11358995477387" lon="1.3398430380110538"><ele>109.6</ele><time>2026-04-25T14:51:07Z</time></trkpt><trkpt lat="48.11362081574421" lon="1.3400025568225933"><ele>109.8</ele><time>2026-04-25T14:51:09Z</time></trkpt><trkpt lat="48.113650708258916" lon="1.3401737857925349"><ele>110.0</ele><time>2026-04-25T14:51:11Z</time></trkpt><trkpt lat="48.11366132623495" lon="1.3402673527885922"><ele>110.0</ele><time>2026-04-25T14:51:12Z</time></trkpt><trkpt lat="48.113687892141265" lon="1.3404151865367926"><ele>110.0</ele><time>2026-04-25T14:51:14Z</time></trkpt><trkpt lat="48.11371350377934" lon="1.340578071222465"><ele>110.0</ele><time>2026-04-25T14:51:16Z</time></trkpt><trkpt lat="48.11372461637125" lon="1.3406848569310081"><ele>110.0</ele><time>2026-04-25T14:51:17Z</time></trkpt><trkpt lat="48.113742337261996" lon="1.3407980777086606"><ele>110.0</ele><time>2026-04-25T14:51:18Z</time></trkpt><trkpt lat="48.11376491713027" lon="1.3409235918410052"><ele>109.83333333333333</ele><time>2026-04-25T14:51:19Z</time></trkpt><trkpt lat="48.1137953073787" lon="1.3410521055265217"><ele>109.66666666666666</ele><time>2026-04-25T14:51:20Z</time></trkpt><trkpt lat="48.113815697516344" lon="1.3411858310058578"><ele>109.5</ele><time>2026-04-25T14:51:21Z</time></trkpt><trkpt lat="48.113834395530965" lon="1.3413272067135515"><ele>109.33333333333334</ele><time>2026-04-25T14:51:22Z</time></trkpt><trkpt lat="48.113859585375735" lon="1.3414526537099511"><ele>109.16666666666667</ele><time>2026-04-25T14:51:23Z</time></trkpt><trkpt lat="48.11388575084626" lon="1.3415578030958681"><ele>109.0</ele><time>2026-04-25T14:51:24Z</time></trkpt><trkpt lat="48.113919353975845" lon="1.341676429377474"><ele>109.0</ele><time>2026-04-25T14:51:25Z</time></trkpt><trkpt lat="48.113959989357745" lon="1.3417848992934172"><ele>109.0</ele><time>2026-04-25T14:51:26Z</time></trkpt><trkpt lat="48.11401680984803" lon="1.3419025673985503"><ele>109.0</ele><time>2026-04-25T14:51:27Z</time></trkpt><trkpt lat="48.114078579214684" lon="1.342007860948971"><ele>109.0</ele><time>2026-04-25T14:51:28Z</time></trkpt><trkpt lat="48.11414663127154" lon="1.3421170059059682"><ele>109.0</ele><time>2026-04-25T14:51:29Z</time></trkpt><trkpt lat="48.114213243230786" lon="1.3422195416614795"><ele>109.0</ele><time>2026-04-25T14:51:30Z</time></trkpt><trkpt lat="48.114285563425966" lon="1.342323297774899"><ele>109.0</ele><time>2026-04-25T14:51:31Z</time></trkpt><trkpt lat="48.114354986219176" lon="1.3424265534771878"><ele>109.0</ele><time>2026-04-25T14:51:32Z</time></trkpt><trkpt lat="48.1144451567696" lon="1.342533867406374"><ele>109.0</ele><time>2026-04-25T14:51:33Z</time></trkpt><trkpt lat="48.114519582857135" lon="1.342633986429787"><ele>109.0</ele><time>2026-04-25T14:51:34Z</time></trkpt><trkpt lat="48.1145973219354" lon="1.342745706679021"><ele>109.0</ele><time>2026-04-25T14:51:35Z</time></trkpt><trkpt lat="48.11467099556942" lon="1.3428516461240096"><ele>109.0</ele><time>2026-04-25T14:51:36Z</time></trkpt><trkpt lat="48.114751920641375" lon="1.3429532352418696"><ele>109.0</ele><time>2026-04-25T14:51:37Z</time></trkpt><trkpt lat="48.114831502294756" lon="1.3430672266516581"><ele>109.0</ele><time>2026-04-25T14:51:38Z</time></trkpt><trkpt lat="48.11490614449712" lon="1.3431796146555417"><ele>109.0</ele><time>2026-04-25T14:51:39Z</time></trkpt><trkpt lat="48.114983950594" lon="1.3432903219423697"><ele>109.0</ele><time>2026-04-25T14:51:40Z</time></trkpt><trkpt lat="48.11505631513988" lon="1.3434077575966756"><ele>109.0</ele><time>2026-04-25T14:51:41Z</time></trkpt><trkpt lat="48.11512931426478" lon="1.3435268780391145"><ele>109.0</ele><time>2026-04-25T14:51:42Z</time></trkpt><trkpt lat="48.1151877400963" lon="1.3436601908026118"><ele>109.0</ele><time>2026-04-25T14:51:43Z</time></trkpt><trkpt lat="48.11523716657592" lon="1.343802237345974"><ele>109.0</ele><time>2026-04-25T14:51:44Z</time></trkpt><trkpt lat="48.11527585857179" lon="1.3439367975205458"><ele>109.0</ele><time>2026-04-25T14:51:45Z</time></trkpt><trkpt lat="48.11531674785894" lon="1.3440808015616768"><ele>109.0</ele><time>2026-04-25T14:51:46Z</time></trkpt><trkpt lat="48.11535152858981" lon="1.3442325344419832"><ele>109.0</ele><time>2026-04-25T14:51:47Z</time></trkpt><trkpt lat="48.11537458362987" lon="1.3443814727966974"><ele>109.0</ele><time>2026-04-25T14:51:48Z</time></trkpt><trkpt lat="48.11538821778536" lon="1.3445436636508707"><ele>109.0</ele><time>2026-04-25T14:51:49Z</time></trkpt><trkpt lat="48.11540013097846" lon="1.3447016709312607"><ele>108.80000000000001</ele><time>2026-04-25T14:51:50Z</time></trkpt><trkpt lat="48.11539688660431" lon="1.344855685549952"><ele>108.60000000000001</ele><time>2026-04-25T14:51:51Z</time></trkpt><trkpt lat="48.11538302279729" lon="1.3450109766218115"><ele>108.4</ele><time>2026-04-25T14:51:52Z</time></trkpt><trkpt lat="48.11536106066774" lon="1.3451628643267326"><ele>108.2</ele><time>2026-04-25T14:51:53Z</time></trkpt><trkpt lat="48.11533752274361" lon="1.3453137426922177"><ele>108.0</ele><time>2026-04-25T14:51:54Z</time></trkpt><trkpt lat="48.11531310610773" lon="1.3454637645812548"><ele>108.2</ele><time>2026-04-25T14:51:55Z</time></trkpt><trkpt lat="48.11528527977095" lon="1.3456145158473916"><ele>108.4</ele><time>2026-04-25T14:51:56Z</time></trkpt><trkpt lat="48.11525168909415" lon="1.3457657721857623"><ele>108.60000000000001</ele><time>2026-04-25T14:51:57Z</time></trkpt><trkpt lat="48.115225503323224" lon="1.3459195971379136"><ele>108.80000000000001</ele><time>2026-04-25T14:51:58Z</time></trkpt><trkpt lat="48.11519869760274" lon="1.3460771287557742"><ele>109.0</ele><time>2026-04-25T14:51:59Z</time></trkpt><trkpt lat="48.11516877433015" lon="1.3462316567791484"><ele>109.0</ele><time>2026-04-25T14:52:00Z</time></trkpt><trkpt lat="48.11512285781316" lon="1.3463742622951158"><ele>109.0</ele><time>2026-04-25T14:52:01Z</time></trkpt><trkpt lat="48.11507334779168" lon="1.3465153364630398"><ele>109.0</ele><time>2026-04-25T14:52:02Z</time></trkpt><trkpt lat="48.11500763749386" lon="1.3466455421369314"><ele>109.0</ele><time>2026-04-25T14:52:03Z</time></trkpt><trkpt lat="48.114941394844585" lon="1.346741754035299"><ele>109.0</ele><time>2026-04-25T14:52:04Z</time></trkpt><trkpt lat="48.11487684355382" lon="1.3468186073412431"><ele>109.6</ele><time>2026-04-25T14:52:05Z</time></trkpt><trkpt lat="48.114816348314996" lon="1.3469068164141484"><ele>110.2</ele><time>2026-04-25T14:52:06Z</time></trkpt><trkpt lat="48.11475957696336" lon="1.3469913476255853"><ele>110.79999999999998</ele><time>2026-04-25T14:52:07Z</time></trkpt><trkpt lat="48.11472223894602" lon="1.347188986430772"><ele>111.39999999999999</ele><time>2026-04-25T14:52:09Z</time></trkpt><trkpt lat="48.1147169708826" lon="1.3473010804582635"><ele>112.0</ele><time>2026-04-25T14:52:10Z</time></trkpt><trkpt lat="48.11470571244811" lon="1.3474362620959222"><ele>112.00000000000001</ele><time>2026-04-25T14:52:11Z</time></trkpt><trkpt lat="48.114704374850945" lon="1.3475536638601346"><ele>112.0</ele><time>2026-04-25T14:52:12Z</time></trkpt><trkpt lat="48.114706149101266" lon="1.3476742329955835"><ele>112.0</ele><time>2026-04-25T14:52:13Z</time></trkpt><trkpt lat="48.114701983421504" lon="1.3477984057353807"><ele>112.0</ele><time>2026-04-25T14:52:15Z</time></trkpt><trkpt lat="48.11471223002805" lon="1.3479232486493662"><ele>112.00000000000001</ele><time>2026-04-25T14:52:19Z</time></trkpt><trkpt lat="48.11468201484481" lon="1.3480667824113752"><ele>112.0</ele><time>2026-04-25T14:52:21Z</time></trkpt><trkpt lat="48.11470759130837" lon="1.348156278457142"><ele>112.00000000000001</ele><time>2026-04-25T14:52:28Z</time></trkpt><trkpt lat="48.11472797936572" lon="1.3482700365637401"><ele>112.0</ele><time>2026-04-25T14:52:40Z</time></trkpt><trkpt lat="48.114735003950976" lon="1.348398652700037"><ele>112.0</ele><time>2026-04-25T14:52:43Z</time></trkpt><trkpt lat="48.11473428094009" lon="1.3485147247680391"><ele>112.0</ele><time>2026-04-25T14:52:45Z</time></trkpt><trkpt lat="48.114748440458634" lon="1.3486127186600123"><ele>112.00000000000001</ele><time>2026-04-25T14:52:47Z</time></trkpt><trkpt lat="48.114761050467145" lon="1.3487195245434118"><ele>112.0</ele><time>2026-04-25T14:52:49Z</time></trkpt><trkpt lat="48.114788263823435" lon="1.348818631014938"><ele>111.83333333333334</ele><time>2026-04-25T14:52:51Z</time></trkpt><trkpt lat="48.11481862280755" lon="1.3489165445186062"><ele>111.66666666666667</ele><time>2026-04-25T14:52:53Z</time></trkpt><trkpt lat="48.11485639868583" lon="1.3490285221775222"><ele>111.5</ele><time>2026-04-25T14:52:55Z</time></trkpt><trkpt lat="48.11489027629551" lon="1.3491179949603818"><ele>111.33333333333334</ele><time>2026-04-25T14:52:57Z</time></trkpt><trkpt lat="48.114937033370786" lon="1.3492272547976627"><ele>111.16666666666667</ele><time>2026-04-25T14:52:59Z</time></trkpt><trkpt lat="48.11498728524701" lon="1.3493314960886413"><ele>111.0</ele><time>2026-04-25T14:53:01Z</time></trkpt><trkpt lat="48.11503791705602" lon="1.3494362842216046"><ele>111.0</ele><time>2026-04-25T14:53:03Z</time></trkpt><trkpt lat="48.11509105906163" lon="1.3495329826518863"><ele>111.0</ele><time>2026-04-25T14:53:05Z</time></trkpt><trkpt lat="48.115141213689895" lon="1.3496351157160302"><ele>111.0</ele><time>2026-04-25T14:53:07Z</time></trkpt><trkpt lat="48.11519909576384" lon="1.3497508628974861"><ele>111.0</ele><time>2026-04-25T14:53:09Z</time></trkpt><trkpt lat="48.11526525093438" lon="1.3498688632959888"><ele>111.0</ele><time>2026-04-25T14:53:11Z</time></trkpt><trkpt lat="48.11532873214032" lon="1.3499757823765095"><ele>110.8</ele><time>2026-04-25T14:53:13Z</time></trkpt><trkpt lat="48.11538556057329" lon="1.3501104050658301"><ele>110.6</ele><time>2026-04-25T14:53:15Z</time></trkpt><trkpt lat="48.11547201107653" lon="1.3502573305875576"><ele>110.4</ele><time>2026-04-25T14:53:17Z</time></trkpt><trkpt lat="48.11554199662049" lon="1.3503730983438225"><ele>110.2</ele><time>2026-04-25T14:53:19Z</time></trkpt><trkpt lat="48.11560686231013" lon="1.3504429025691975"><ele>110.0</ele><time>2026-04-25T14:53:21Z</time></trkpt><trkpt lat="48.11568646172244" lon="1.350575880448812"><ele>111.0</ele><time>2026-04-25T14:53:23Z</time></trkpt><trkpt lat="48.11576133811847" lon="1.350713797242526"><ele>112.0</ele><time>2026-04-25T14:53:25Z</time></trkpt><trkpt lat="48.115844297010895" lon="1.3508377349509901"><ele>113.0</ele><time>2026-04-25T14:53:27Z</time></trkpt><trkpt lat="48.115917517349345" lon="1.3509491083736846"><ele>114.0</ele><time>2026-04-25T14:53:29Z</time></trkpt><trkpt lat="48.11599286957446" lon="1.3510688669008728"><ele>114.0</ele><time>2026-04-25T14:53:31Z</time></trkpt><trkpt lat="48.11607947368305" lon="1.3511986593341268"><ele>114.0</ele><time>2026-04-25T14:53:33Z</time></trkpt><trkpt lat="48.11616079836467" lon="1.35132530232318"><ele>114.0</ele><time>2026-04-25T14:53:35Z</time></trkpt><trkpt lat="48.1162079274973" lon="1.3513934507015684"><ele>114.0</ele><time>2026-04-25T14:53:36Z</time></trkpt><trkpt lat="48.11629697725232" lon="1.351527985970425"><ele>114.0</ele><time>2026-04-25T14:53:38Z</time></trkpt><trkpt lat="48.11633999002673" lon="1.351608838354669"><ele>113.71428571428571</ele><time>2026-04-25T14:53:39Z</time></trkpt><trkpt lat="48.11639274760238" lon="1.3516786379463361"><ele>113.42857142857142</ele><time>2026-04-25T14:53:40Z</time></trkpt><trkpt lat="48.11644886783514" lon="1.3517594511303517"><ele>113.14285714285714</ele><time>2026-04-25T14:53:41Z</time></trkpt><trkpt lat="48.11650049394279" lon="1.351834789633136"><ele>112.85714285714286</ele><time>2026-04-25T14:53:42Z</time></trkpt><trkpt lat="48.11654619468409" lon="1.3519025915331377"><ele>112.57142857142857</ele><time>2026-04-25T14:53:43Z</time></trkpt><trkpt lat="48.11659351551522" lon="1.3519733703645511"><ele>112.28571428571428</ele><time>2026-04-25T14:53:44Z</time></trkpt><trkpt lat="48.11663289800134" lon="1.3520618498326755"><ele>112.0</ele><time>2026-04-25T14:53:45Z</time></trkpt><trkpt lat="48.11668252531009" lon="1.3521371556493087"><ele>112.39999999999999</ele><time>2026-04-25T14:53:46Z</time></trkpt><trkpt lat="48.116746743155375" lon="1.352200520689359"><ele>112.79999999999998</ele><time>2026-04-25T14:53:47Z</time></trkpt><trkpt lat="48.11678886714886" lon="1.352298521627573"><ele>113.2</ele><time>2026-04-25T14:53:48Z</time></trkpt><trkpt lat="48.11686473195019" lon="1.352413640932935"><ele>113.6</ele><time>2026-04-25T14:53:50Z</time></trkpt><trkpt lat="48.116954016577274" lon="1.3525491238295548"><ele>114.0</ele><time>2026-04-25T14:53:52Z</time></trkpt><trkpt lat="48.11700184460053" lon="1.352621699367154"><ele>114.0</ele><time>2026-04-25T14:53:53Z</time></trkpt><trkpt lat="48.11705233723226" lon="1.3526983182479844"><ele>114.0</ele><time>2026-04-25T14:53:54Z</time></trkpt><trkpt lat="48.11710409991059" lon="1.3527768643385716"><ele>114.0</ele><time>2026-04-25T14:53:55Z</time></trkpt><trkpt lat="48.117154114603466" lon="1.3528527579797072"><ele>114.0</ele><time>2026-04-25T14:53:56Z</time></trkpt><trkpt lat="48.117221459115314" lon="1.3529581596329054"><ele>114.0</ele><time>2026-04-25T14:53:58Z</time></trkpt><trkpt lat="48.117304453143305" lon="1.353051535374511"><ele>114.0</ele><time>2026-04-25T14:54:00Z</time></trkpt><trkpt lat="48.11736371115798" lon="1.3531539472241234"><ele>114.5</ele><time>2026-04-25T14:54:02Z</time></trkpt><trkpt lat="48.11740734451651" lon="1.3532344467242314"><ele>115.0</ele><time>2026-04-25T14:54:03Z</time></trkpt><trkpt lat="48.11750826885554" lon="1.3533509966532016"><ele>115.5</ele><time>2026-04-25T14:54:05Z</time></trkpt><trkpt lat="48.117567878841925" lon="1.3534209801919537"><ele>116.0</ele><time>2026-04-25T14:54:06Z</time></trkpt><trkpt lat="48.11764009942612" lon="1.3534943731281621"><ele>116.5</ele><time>2026-04-25T14:54:07Z</time></trkpt><trkpt lat="48.11770630259906" lon="1.3535754911925861"><ele>117.0</ele><time>2026-04-25T14:54:08Z</time></trkpt><trkpt lat="48.117765048754485" lon="1.3536576314945596"><ele>117.0</ele><time>2026-04-25T14:54:09Z</time></trkpt><trkpt lat="48.11783305395964" lon="1.3537036743162034"><ele>117.0</ele><time>2026-04-25T14:54:10Z</time></trkpt><trkpt lat="48.11790335919216" lon="1.3537557440340953"><ele>117.0</ele><time>2026-04-25T14:54:11Z</time></trkpt><trkpt lat="48.11797504772462" lon="1.3537934107046616"><ele>117.0</ele><time>2026-04-25T14:54:12Z</time></trkpt><trkpt lat="48.118101349592784" lon="1.353879573697534"><ele>117.0</ele><time>2026-04-25T14:54:14Z</time></trkpt><trkpt lat="48.11816094391568" lon="1.3539186777043632"><ele>117.0</ele><time>2026-04-25T14:54:15Z</time></trkpt><trkpt lat="48.11827103676687" lon="1.3540223994079925"><ele>117.33333333333333</ele><time>2026-04-25T14:54:17Z</time></trkpt><trkpt lat="48.11835099332349" lon="1.3540837941741517"><ele>117.66666666666666</ele><time>2026-04-25T14:54:18Z</time></trkpt><trkpt lat="48.11840922400807" lon="1.3541285066887998"><ele>118.0</ele><time>2026-04-25T14:54:19Z</time></trkpt><trkpt lat="48.11847815086116" lon="1.3541814322837311"><ele>118.33333333333333</ele><time>2026-04-25T14:54:20Z</time></trkpt><trkpt lat="48.11854694488528" lon="1.3542346355864636"><ele>118.66666666666666</ele><time>2026-04-25T14:54:21Z</time></trkpt><trkpt lat="48.118614340292204" lon="1.354262415808439"><ele>119.0</ele><time>2026-04-25T14:54:22Z</time></trkpt><trkpt lat="48.118687359076596" lon="1.3543205469613144"><ele>119.0</ele><time>2026-04-25T14:54:23Z</time></trkpt><trkpt lat="48.11874404540159" lon="1.354389174599991"><ele>119.0</ele><time>2026-04-25T14:54:24Z</time></trkpt><trkpt lat="48.11884136893159" lon="1.3544671765512402"><ele>119.0</ele><time>2026-04-25T14:54:26Z</time></trkpt><trkpt lat="48.11893631941483" lon="1.3545185664901165"><ele>119.0</ele><time>2026-04-25T14:54:28Z</time></trkpt><trkpt lat="48.11900853766035" lon="1.3545860526785964"><ele>119.0</ele><time>2026-04-25T14:54:30Z</time></trkpt><trkpt lat="48.119139476794324" lon="1.3547038117052284"><ele>119.0</ele><time>2026-04-25T14:54:32Z</time></trkpt><trkpt lat="48.11927159465084" lon="1.3548245288989207"><ele>119.0</ele><time>2026-04-25T14:54:34Z</time></trkpt><trkpt lat="48.11935590314233" lon="1.3548582885987517"><ele>119.0</ele><time>2026-04-25T14:54:35Z</time></trkpt><trkpt lat="48.11943834354442" lon="1.3549109087164186"><ele>119.0</ele><time>2026-04-25T14:54:36Z</time></trkpt><trkpt lat="48.1195256303117" lon="1.3549685977509762"><ele>119.0</ele><time>2026-04-25T14:54:37Z</time></trkpt><trkpt lat="48.11960172018919" lon="1.3549891234642892"><ele>119.0</ele><time>2026-04-25T14:54:38Z</time></trkpt><trkpt lat="48.11968705312209" lon="1.3550623225171885"><ele>119.0</ele><time>2026-04-25T14:54:40Z</time></trkpt><trkpt lat="48.1198081980466" lon="1.3551099685962673"><ele>119.0</ele><time>2026-04-25T14:54:42Z</time></trkpt><trkpt lat="48.11988739377399" lon="1.3551626382496376"><ele>119.0</ele><time>2026-04-25T14:54:43Z</time></trkpt><trkpt lat="48.119960979041835" lon="1.355206124350834"><ele>119.0</ele><time>2026-04-25T14:54:44Z</time></trkpt><trkpt lat="48.12008326275856" lon="1.3552762551729443"><ele>119.66666666666666</ele><time>2026-04-25T14:54:46Z</time></trkpt><trkpt lat="48.120143875753634" lon="1.355315055327431"><ele>120.33333333333333</ele><time>2026-04-25T14:54:47Z</time></trkpt><trkpt lat="48.12021890769614" lon="1.3553364543264494"><ele>121.0</ele><time>2026-04-25T14:54:48Z</time></trkpt><trkpt lat="48.12029485145252" lon="1.3553750177548676"><ele>121.66666666666666</ele><time>2026-04-25T14:54:49Z</time></trkpt><trkpt lat="48.12036830360233" lon="1.3554065420512715"><ele>122.33333333333333</ele><time>2026-04-25T14:54:50Z</time></trkpt><trkpt lat="48.12044634880172" lon="1.3554417847970708"><ele>123.0</ele><time>2026-04-25T14:54:51Z</time></trkpt><trkpt lat="48.120507818015206" lon="1.3554948317036017"><ele>123.0</ele><time>2026-04-25T14:54:52Z</time></trkpt><trkpt lat="48.12057126838856" lon="1.3555137370882668"><ele>123.00000000000001</ele><time>2026-04-25T14:54:53Z</time></trkpt><trkpt lat="48.12068169962381" lon="1.3555747749365639"><ele>123.00000000000001</ele><time>2026-04-25T14:54:55Z</time></trkpt><trkpt lat="48.120810616446626" lon="1.3556330572300328"><ele>123.0</ele><time>2026-04-25T14:54:57Z</time></trkpt><trkpt lat="48.120917210993326" lon="1.3556892393673217"><ele>123.0</ele><time>2026-04-25T14:54:59Z</time></trkpt><trkpt lat="48.121032811488305" lon="1.3557272620057959"><ele>122.16666666666667</ele><time>2026-04-25T14:55:01Z</time></trkpt><trkpt lat="48.121101989969766" lon="1.3557458389931092"><ele>121.33333333333334</ele><time>2026-04-25T14:55:02Z</time></trkpt><trkpt lat="48.1211684228135" lon="1.355767114665622"><ele>120.5</ele><time>2026-04-25T14:55:03Z</time></trkpt><trkpt lat="48.12124337175639" lon="1.3557859729282107"><ele>119.66666666666667</ele><time>2026-04-25T14:55:04Z</time></trkpt><trkpt lat="48.12132747354504" lon="1.3557925879427997"><ele>118.83333333333334</ele><time>2026-04-25T14:55:05Z</time></trkpt><trkpt lat="48.121405273535736" lon="1.3558009614282642"><ele>118.0</ele><time>2026-04-25T14:55:06Z</time></trkpt><trkpt lat="48.12149171041162" lon="1.355787359686359"><ele>118.00000000000001</ele><time>2026-04-25T14:55:07Z</time></trkpt><trkpt lat="48.12156060181773" lon="1.355778835522398"><ele>118.0</ele><time>2026-04-25T14:55:08Z</time></trkpt><trkpt lat="48.121631056865525" lon="1.3557637880345392"><ele>118.0</ele><time>2026-04-25T14:55:09Z</time></trkpt><trkpt lat="48.12169528714323" lon="1.3557543710451168"><ele>118.0</ele><time>2026-04-25T14:55:10Z</time></trkpt><trkpt lat="48.12181478244768" lon="1.3557558906779303"><ele>118.00000000000001</ele><time>2026-04-25T14:55:12Z</time></trkpt><trkpt lat="48.12188707632452" lon="1.3557323664027185"><ele>118.0</ele><time>2026-04-25T14:55:13Z</time></trkpt><trkpt lat="48.121949613921856" lon="1.3557510705914249"><ele>117.85714285714286</ele><time>2026-04-25T14:55:14Z</time></trkpt><trkpt lat="48.12201181633193" lon="1.355735943421304"><ele>117.71428571428572</ele><time>2026-04-25T14:55:15Z</time></trkpt><trkpt lat="48.1220884585653" lon="1.3557225221597777"><ele>117.57142857142858</ele><time>2026-04-25T14:55:16Z</time></trkpt><trkpt lat="48.12216287087416" lon="1.3557068723651289"><ele>117.42857142857143</ele><time>2026-04-25T14:55:17Z</time></trkpt><trkpt lat="48.122228822313254" lon="1.3557101081344365"><ele>117.2857142857143</ele><time>2026-04-25T14:55:18Z</time></trkpt><trkpt lat="48.122298650343936" lon="1.3556879242540338"><ele>117.14285714285715</ele><time>2026-04-25T14:55:20Z</time></trkpt><trkpt lat="48.12238583843994" lon="1.3556946465186084"><ele>117.0</ele><time>2026-04-25T14:55:22Z</time></trkpt><trkpt lat="48.12245058965321" lon="1.3557283714476964"><ele>116.5</ele><time>2026-04-25T14:55:23Z</time></trkpt><trkpt lat="48.12252420971363" lon="1.355732459122554"><ele>116.0</ele><time>2026-04-25T14:55:24Z</time></trkpt><trkpt lat="48.122584342739856" lon="1.3557619837742887"><ele>115.5</ele><time>2026-04-25T14:55:25Z</time></trkpt><trkpt lat="48.1226572458339" lon="1.3557952354442109"><ele>115.0</ele><time>2026-04-25T14:55:26Z</time></trkpt><trkpt lat="48.122734667470056" lon="1.355843369351851"><ele>114.5</ele><time>2026-04-25T14:55:27Z</time></trkpt><trkpt lat="48.122795588599054" lon="1.3559232925341387"><ele>114.0</ele><time>2026-04-25T14:55:28Z</time></trkpt><trkpt lat="48.12286733600135" lon="1.355966129423978"><ele>114.0</ele><time>2026-04-25T14:55:29Z</time></trkpt><trkpt lat="48.122930211324444" lon="1.3560305079652453"><ele>114.0</ele><time>2026-04-25T14:55:30Z</time></trkpt><trkpt lat="48.12299506997453" lon="1.3560893630322226"><ele>114.0</ele><time>2026-04-25T14:55:31Z</time></trkpt><trkpt lat="48.12306161697962" lon="1.3561507556540806"><ele>114.0</ele><time>2026-04-25T14:55:32Z</time></trkpt><trkpt lat="48.12312705786587" lon="1.3562104097186864"><ele>114.0</ele><time>2026-04-25T14:55:33Z</time></trkpt><trkpt lat="48.12318871851358" lon="1.3562658447923228"><ele>114.0</ele><time>2026-04-25T14:55:34Z</time></trkpt><trkpt lat="48.123252007782206" lon="1.3563301867937998"><ele>113.5</ele><time>2026-04-25T14:55:35Z</time></trkpt><trkpt lat="48.123314407103095" lon="1.3563885525254942"><ele>113.0</ele><time>2026-04-25T14:55:36Z</time></trkpt><trkpt lat="48.12341333633048" lon="1.3565072629510864"><ele>112.5</ele><time>2026-04-25T14:55:38Z</time></trkpt><trkpt lat="48.12347217345524" lon="1.356560417928373"><ele>112.0</ele><time>2026-04-25T14:55:39Z</time></trkpt><trkpt lat="48.12353378206826" lon="1.3565938744011405"><ele>111.5</ele><time>2026-04-25T14:55:40Z</time></trkpt><trkpt lat="48.12358922785523" lon="1.3566642456005036"><ele>111.0</ele><time>2026-04-25T14:55:41Z</time></trkpt><trkpt lat="48.12365093739545" lon="1.3567178864699194"><ele>111.0</ele><time>2026-04-25T14:55:42Z</time></trkpt><trkpt lat="48.12370109553538" lon="1.3567751885896417"><ele>111.0</ele><time>2026-04-25T14:55:43Z</time></trkpt><trkpt lat="48.1237672400282" lon="1.356846428334298"><ele>111.0</ele><time>2026-04-25T14:55:45Z</time></trkpt><trkpt lat="48.123867179019484" lon="1.3569123050437373"><ele>111.0</ele><time>2026-04-25T14:55:47Z</time></trkpt><trkpt lat="48.12392093242678" lon="1.3569714210399837"><ele>111.0</ele><time>2026-04-25T14:55:48Z</time></trkpt><trkpt lat="48.12402746503585" lon="1.357054530143607"><ele>111.0</ele><time>2026-04-25T14:55:50Z</time></trkpt><trkpt lat="48.12413756750261" lon="1.3571720039913613"><ele>110.85714285714285</ele><time>2026-04-25T14:55:52Z</time></trkpt><trkpt lat="48.124202100830566" lon="1.3572332131820213"><ele>110.71428571428572</ele><time>2026-04-25T14:55:53Z</time></trkpt><trkpt lat="48.1242539226332" lon="1.357294398055458"><ele>110.57142857142857</ele><time>2026-04-25T14:55:54Z</time></trkpt><trkpt lat="48.1243195716337" lon="1.3573569403851682"><ele>110.42857142857142</ele><time>2026-04-25T14:55:55Z</time></trkpt><trkpt lat="48.12438341816749" lon="1.3574233799285147"><ele>110.28571428571428</ele><time>2026-04-25T14:55:56Z</time></trkpt><trkpt lat="48.12445582156843" lon="1.3574710974811324"><ele>110.14285714285714</ele><time>2026-04-25T14:55:57Z</time></trkpt><trkpt lat="48.124507296452364" lon="1.3575456598393234"><ele>110.0</ele><time>2026-04-25T14:55:58Z</time></trkpt><trkpt lat="48.12456186433866" lon="1.3576228117478153"><ele>109.99999999999999</ele><time>2026-04-25T14:55:59Z</time></trkpt><trkpt lat="48.1246269765758" lon="1.3576839141803048"><ele>110.0</ele><time>2026-04-25T14:56:00Z</time></trkpt><trkpt lat="48.124683183228214" lon="1.3577573346106722"><ele>110.0</ele><time>2026-04-25T14:56:01Z</time></trkpt><trkpt lat="48.12473883846106" lon="1.3578386819012311"><ele>110.0</ele><time>2026-04-25T14:56:02Z</time></trkpt><trkpt lat="48.12479133232808" lon="1.3579296081494299"><ele>109.99999999999999</ele><time>2026-04-25T14:56:03Z</time></trkpt><trkpt lat="48.124847285958175" lon="1.3580091699544266"><ele>110.0</ele><time>2026-04-25T14:56:04Z</time></trkpt><trkpt lat="48.12488537411823" lon="1.3580870111027687"><ele>110.16666666666666</ele><time>2026-04-25T14:56:05Z</time></trkpt><trkpt lat="48.12494863837072" lon="1.3581963071963084"><ele>110.33333333333333</ele><time>2026-04-25T14:56:07Z</time></trkpt><trkpt lat="48.12500781989381" lon="1.3583143432725877"><ele>110.5</ele><time>2026-04-25T14:56:09Z</time></trkpt><trkpt lat="48.12507982549079" lon="1.3584544630549833"><ele>110.66666666666666</ele><time>2026-04-25T14:56:11Z</time></trkpt><trkpt lat="48.12511428013819" lon="1.3585401859008963"><ele>110.83333333333333</ele><time>2026-04-25T14:56:12Z</time></trkpt><trkpt lat="48.12515219594764" lon="1.3586227112158693"><ele>111.0</ele><time>2026-04-25T14:56:13Z</time></trkpt><trkpt lat="48.12519091660617" lon="1.3587089924742297"><ele>111.0</ele><time>2026-04-25T14:56:14Z</time></trkpt><trkpt lat="48.12523317772791" lon="1.35879486377084"><ele>111.0</ele><time>2026-04-25T14:56:15Z</time></trkpt><trkpt lat="48.125267537508314" lon="1.3588762349330952"><ele>111.0</ele><time>2026-04-25T14:56:16Z</time></trkpt><trkpt lat="48.1253348377185" lon="1.3590192366207867"><ele>111.0</ele><time>2026-04-25T14:56:18Z</time></trkpt><trkpt lat="48.12540290059438" lon="1.359186537381727"><ele>111.0</ele><time>2026-04-25T14:56:20Z</time></trkpt><trkpt lat="48.12544466688193" lon="1.3592703982965217"><ele>110.85714285714285</ele><time>2026-04-25T14:56:21Z</time></trkpt><trkpt lat="48.12548069265424" lon="1.3593663000730445"><ele>110.71428571428572</ele><time>2026-04-25T14:56:22Z</time></trkpt><trkpt lat="48.125508118819916" lon="1.3594593225743032"><ele>110.57142857142857</ele><time>2026-04-25T14:56:23Z</time></trkpt><trkpt lat="48.12553113429283" lon="1.3595496726614056"><ele>110.42857142857142</ele><time>2026-04-25T14:56:24Z</time></trkpt><trkpt lat="48.125563155900814" lon="1.359643243086282"><ele>110.28571428571428</ele><time>2026-04-25T14:56:25Z</time></trkpt><trkpt lat="48.125605318041536" lon="1.359741215692186"><ele>110.14285714285714</ele><time>2026-04-25T14:56:26Z</time></trkpt><trkpt lat="48.12564044005103" lon="1.3598379619146421"><ele>110.0</ele><time>2026-04-25T14:56:27Z</time></trkpt><trkpt lat="48.12567821034731" lon="1.3599357993051395"><ele>109.99999999999999</ele><time>2026-04-25T14:56:28Z</time></trkpt><trkpt lat="48.12571666429082" lon="1.3600366408358056"><ele>110.0</ele><time>2026-04-25T14:56:29Z</time></trkpt><trkpt lat="48.12574907447679" lon="1.360133503629743"><ele>110.0</ele><time>2026-04-25T14:56:30Z</time></trkpt><trkpt lat="48.125780964182" lon="1.3602328190781463"><ele>110.0</ele><time>2026-04-25T14:56:31Z</time></trkpt><trkpt lat="48.125812463932064" lon="1.3603333792579362"><ele>109.99999999999999</ele><time>2026-04-25T14:56:32Z</time></trkpt><trkpt lat="48.12586412250318" lon="1.3604982960934837"><ele>110.0</ele><time>2026-04-25T14:56:34Z</time></trkpt><trkpt lat="48.12590214011169" lon="1.3606398123678058"><ele>110.2</ele><time>2026-04-25T14:56:36Z</time></trkpt><trkpt lat="48.125939375205746" lon="1.3607738973497234"><ele>110.4</ele><time>2026-04-25T14:56:38Z</time></trkpt><trkpt lat="48.12598005973403" lon="1.3609557838006485"><ele>110.6</ele><time>2026-04-25T14:56:40Z</time></trkpt><trkpt lat="48.126024090180884" lon="1.3611181285375067"><ele>110.8</ele><time>2026-04-25T14:56:42Z</time></trkpt><trkpt lat="48.12604882892526" lon="1.3612061199565189"><ele>111.0</ele><time>2026-04-25T14:56:45Z</time></trkpt><trkpt lat="48.126081734439815" lon="1.361315823443036"><ele>110.83333333333333</ele><time>2026-04-25T14:56:47Z</time></trkpt><trkpt lat="48.126116476132424" lon="1.3614559415314686"><ele>110.66666666666666</ele><time>2026-04-25T14:56:49Z</time></trkpt><trkpt lat="48.12614689519325" lon="1.3616317100110125"><ele>110.5</ele><time>2026-04-25T14:56:51Z</time></trkpt><trkpt lat="48.12615438603901" lon="1.3617257661256423"><ele>110.33333333333333</ele><time>2026-04-25T14:56:52Z</time></trkpt><trkpt lat="48.12616502918428" lon="1.36181893595116"><ele>110.16666666666666</ele><time>2026-04-25T14:56:53Z</time></trkpt><trkpt lat="48.1261688926987" lon="1.36192073100912"><ele>110.0</ele><time>2026-04-25T14:56:54Z</time></trkpt><trkpt lat="48.12617594099959" lon="1.362036453353346"><ele>109.99999999999999</ele><time>2026-04-25T14:56:55Z</time></trkpt><trkpt lat="48.12618261747791" lon="1.3621625656528227"><ele>110.0</ele><time>2026-04-25T14:56:56Z</time></trkpt><trkpt lat="48.12617373996172" lon="1.3622828627074433"><ele>110.0</ele><time>2026-04-25T14:56:57Z</time></trkpt><trkpt lat="48.12617812226751" lon="1.3624019353892578"><ele>110.0</ele><time>2026-04-25T14:56:58Z</time></trkpt><trkpt lat="48.126191949529606" lon="1.362520195708481"><ele>109.99999999999999</ele><time>2026-04-25T14:56:59Z</time></trkpt><trkpt lat="48.12620692641073" lon="1.3626385250893736"><ele>110.0</ele><time>2026-04-25T14:57:00Z</time></trkpt><trkpt lat="48.126220464773624" lon="1.3627535522506726"><ele>109.99999999999999</ele><time>2026-04-25T14:57:01Z</time></trkpt><trkpt lat="48.12624221343035" lon="1.362866558942663"><ele>110.0</ele><time>2026-04-25T14:57:02Z</time></trkpt><trkpt lat="48.12625356593843" lon="1.3629797305477132"><ele>110.0</ele><time>2026-04-25T14:57:03Z</time></trkpt><trkpt lat="48.12626750633633" lon="1.3630940773489033"><ele>110.0</ele><time>2026-04-25T14:57:04Z</time></trkpt><trkpt lat="48.12628555878669" lon="1.363209287020536"><ele>109.99999999999999</ele><time>2026-04-25T14:57:05Z</time></trkpt><trkpt lat="48.126297272665155" lon="1.363310487799082"><ele>110.0</ele><time>2026-04-25T14:57:06Z</time></trkpt><trkpt lat="48.126311416716376" lon="1.363429415834175"><ele>109.99999999999999</ele><time>2026-04-25T14:57:07Z</time></trkpt><trkpt lat="48.126322732018146" lon="1.3635417238356615"><ele>110.0</ele><time>2026-04-25T14:57:08Z</time></trkpt><trkpt lat="48.12633828910121" lon="1.3636498665393533"><ele>110.0</ele><time>2026-04-25T14:57:09Z</time></trkpt><trkpt lat="48.12635435443585" lon="1.3637626754905898"><ele>110.0</ele><time>2026-04-25T14:57:10Z</time></trkpt><trkpt lat="48.12637203407141" lon="1.3638762597496084"><ele>109.99999999999999</ele><time>2026-04-25T14:57:11Z</time></trkpt><trkpt lat="48.126398570718266" lon="1.363988162742032"><ele>110.0</ele><time>2026-04-25T14:57:12Z</time></trkpt><trkpt lat="48.126424091199354" lon="1.3640933486960096"><ele>109.99999999999999</ele><time>2026-04-25T14:57:13Z</time></trkpt><trkpt lat="48.126463043419214" lon="1.364190942364823"><ele>110.0</ele><time>2026-04-25T14:57:14Z</time></trkpt><trkpt lat="48.1265058594744" lon="1.3642842027257298"><ele>110.0</ele><time>2026-04-25T14:57:15Z</time></trkpt><trkpt lat="48.12654557227404" lon="1.3643827158018946"><ele>110.0</ele><time>2026-04-25T14:57:16Z</time></trkpt><trkpt lat="48.12658753631966" lon="1.3644753477023677"><ele>109.99999999999999</ele><time>2026-04-25T14:57:17Z</time></trkpt><trkpt lat="48.126627780802565" lon="1.3645758961664523"><ele>110.0</ele><time>2026-04-25T14:57:18Z</time></trkpt><trkpt lat="48.126669580167906" lon="1.3646681124909863"><ele>110.33333333333333</ele><time>2026-04-25T14:57:19Z</time></trkpt><trkpt lat="48.1267176620509" lon="1.3647434267389793"><ele>110.66666666666666</ele><time>2026-04-25T14:57:20Z</time></trkpt><trkpt lat="48.126769027211814" lon="1.364807512260304"><ele>111.0</ele><time>2026-04-25T14:57:21Z</time></trkpt><trkpt lat="48.126855469942605" lon="1.3648837257505217"><ele>111.33333333333334</ele><time>2026-04-25T14:57:23Z</time></trkpt><trkpt lat="48.1269118770885" lon="1.3649924949699963"><ele>111.66666666666667</ele><time>2026-04-25T14:57:25Z</time></trkpt><trkpt lat="48.12685839946626" lon="1.3650999689375187"><ele>112.0</ele><time>2026-04-25T14:57:26Z</time></trkpt><trkpt lat="48.12685719538102" lon="1.3652103319300968"><ele>112.0</ele><time>2026-04-25T14:57:27Z</time></trkpt><trkpt lat="48.126855623420575" lon="1.365318506182504"><ele>111.99999999999999</ele><time>2026-04-25T14:57:28Z</time></trkpt><trkpt lat="48.12686559393054" lon="1.3654137644625124"><ele>111.99999999999999</ele><time>2026-04-25T14:57:29Z</time></trkpt><trkpt lat="48.12683527274349" lon="1.3655737591349613"><ele>112.0</ele><time>2026-04-25T14:57:31Z</time></trkpt><trkpt lat="48.12668961040747" lon="1.3656643689650403"><ele>112.0</ele><time>2026-04-25T14:57:33Z</time></trkpt><trkpt lat="48.12661886571107" lon="1.365676731326314"><ele>112.57142857142857</ele><time>2026-04-25T14:57:34Z</time></trkpt><trkpt lat="48.12655182801463" lon="1.36566769820641"><ele>113.14285714285714</ele><time>2026-04-25T14:57:35Z</time></trkpt><trkpt lat="48.126486417381855" lon="1.3656391078777155"><ele>113.71428571428572</ele><time>2026-04-25T14:57:36Z</time></trkpt><trkpt lat="48.12642346755539" lon="1.365621120034416"><ele>114.28571428571429</ele><time>2026-04-25T14:57:37Z</time></trkpt><trkpt lat="48.12634878344353" lon="1.3656233789076035"><ele>114.85714285714286</ele><time>2026-04-25T14:57:38Z</time></trkpt><trkpt lat="48.12628168996932" lon="1.365604680019368"><ele>115.42857142857144</ele><time>2026-04-25T14:57:39Z</time></trkpt><trkpt lat="48.126210032337205" lon="1.3655903843000703"><ele>116.00000000000001</ele><time>2026-04-25T14:57:40Z</time></trkpt><trkpt lat="48.12613438964601" lon="1.3655830293686209"><ele>115.99999999999999</ele><time>2026-04-25T14:57:41Z</time></trkpt><trkpt lat="48.12605280028512" lon="1.3655720294163811"><ele>116.0</ele><time>2026-04-25T14:57:42Z</time></trkpt><trkpt lat="48.125975630484355" lon="1.3655635978070098"><ele>116.0</ele><time>2026-04-25T14:57:43Z</time></trkpt><trkpt lat="48.12589625196506" lon="1.3655441557272288"><ele>116.0</ele><time>2026-04-25T14:57:44Z</time></trkpt><trkpt lat="48.125812101849995" lon="1.3655052857490941"><ele>115.99999999999999</ele><time>2026-04-25T14:57:45Z</time></trkpt><trkpt lat="48.12573133866262" lon="1.3654565991945777"><ele>116.0</ele><time>2026-04-25T14:57:46Z</time></trkpt><trkpt lat="48.12566095385194" lon="1.3653844873729524"><ele>115.33333333333333</ele><time>2026-04-25T14:57:47Z</time></trkpt><trkpt lat="48.125586570646" lon="1.3653601921899532"><ele>114.66666666666666</ele><time>2026-04-25T14:57:48Z</time></trkpt><trkpt lat="48.125511510127794" lon="1.365360273818591"><ele>114.0</ele><time>2026-04-25T14:57:49Z</time></trkpt><trkpt lat="48.12543117865492" lon="1.365386344614503"><ele>113.33333333333334</ele><time>2026-04-25T14:57:50Z</time></trkpt><trkpt lat="48.12535598922106" lon="1.3654128694034782"><ele>112.66666666666667</ele><time>2026-04-25T14:57:51Z</time></trkpt><trkpt lat="48.125279294297414" lon="1.3654508736906001"><ele>112.0</ele><time>2026-04-25T14:57:52Z</time></trkpt><trkpt lat="48.12520871234383" lon="1.365491053190632"><ele>112.0</ele><time>2026-04-25T14:57:53Z</time></trkpt><trkpt lat="48.12514270352012" lon="1.365504813951434"><ele>112.0</ele><time>2026-04-25T14:57:54Z</time></trkpt><trkpt lat="48.12507544089772" lon="1.3655259060455143"><ele>112.0</ele><time>2026-04-25T14:57:55Z</time></trkpt><trkpt lat="48.12500659960944" lon="1.3655460202532905"><ele>112.0</ele><time>2026-04-25T14:57:56Z</time></trkpt><trkpt lat="48.12493484875756" lon="1.3655764180300831"><ele>112.0</ele><time>2026-04-25T14:57:57Z</time></trkpt><trkpt lat="48.1248630444353" lon="1.365600439081298"><ele>112.0</ele><time>2026-04-25T14:57:58Z</time></trkpt><trkpt lat="48.12479025113761" lon="1.3656177945747374"><ele>112.0</ele><time>2026-04-25T14:57:59Z</time></trkpt><trkpt lat="48.124716149262454" lon="1.365630524891938"><ele>112.66666666666667</ele><time>2026-04-25T14:58:00Z</time></trkpt><trkpt lat="48.12464196723372" lon="1.3656630463416237"><ele>113.33333333333334</ele><time>2026-04-25T14:58:01Z</time></trkpt><trkpt lat="48.12456853984261" lon="1.365684462409486"><ele>114.0</ele><time>2026-04-25T14:58:02Z</time></trkpt><trkpt lat="48.124501474532394" lon="1.3657159217946335"><ele>114.66666666666666</ele><time>2026-04-25T14:58:03Z</time></trkpt><trkpt lat="48.124370575128395" lon="1.3657505165780317"><ele>115.33333333333333</ele><time>2026-04-25T14:58:05Z</time></trkpt><trkpt lat="48.12429257845869" lon="1.3657781772860975"><ele>116.0</ele><time>2026-04-25T14:58:06Z</time></trkpt><trkpt lat="48.12421650371578" lon="1.3657981278961255"><ele>115.99999999999999</ele><time>2026-04-25T14:58:07Z</time></trkpt><trkpt lat="48.124139497800506" lon="1.3658084032996696"><ele>116.0</ele><time>2026-04-25T14:58:08Z</time></trkpt><trkpt lat="48.12406480424163" lon="1.3657958884949248"><ele>116.0</ele><time>2026-04-25T14:58:09Z</time></trkpt><trkpt lat="48.1239910932667" lon="1.3657659894449306"><ele>116.0</ele><time>2026-04-25T14:58:10Z</time></trkpt><trkpt lat="48.12393560919333" lon="1.3656796369899213"><ele>115.99999999999999</ele><time>2026-04-25T14:58:11Z</time></trkpt><trkpt lat="48.123882395805715" lon="1.365611503256342"><ele>116.0</ele><time>2026-04-25T14:58:12Z</time></trkpt><trkpt lat="48.123817468622754" lon="1.3655616860323534"><ele>115.85714285714288</ele><time>2026-04-25T14:58:13Z</time></trkpt><trkpt lat="48.1237657378331" lon="1.365486716254419"><ele>115.71428571428572</ele><time>2026-04-25T14:58:14Z</time></trkpt><trkpt lat="48.12370370477191" lon="1.3654253486526007"><ele>115.57142857142857</ele><time>2026-04-25T14:58:15Z</time></trkpt><trkpt lat="48.12364448439684" lon="1.3653708729568883"><ele>115.42857142857143</ele><time>2026-04-25T14:58:16Z</time></trkpt><trkpt lat="48.12358162733401" lon="1.3653345621565554"><ele>115.28571428571428</ele><time>2026-04-25T14:58:17Z</time></trkpt><trkpt lat="48.123517079235896" lon="1.3653037782664181"><ele>115.14285714285712</ele><time>2026-04-25T14:58:18Z</time></trkpt><trkpt lat="48.12345004353457" lon="1.3652697643103446"><ele>114.99999999999999</ele><time>2026-04-25T14:58:19Z</time></trkpt><trkpt lat="48.12338670842606" lon="1.3652450421223912"><ele>115.0</ele><time>2026-04-25T14:58:20Z</time></trkpt><trkpt lat="48.123322615565954" lon="1.3652401425082468"><ele>115.0</ele><time>2026-04-25T14:58:21Z</time></trkpt><trkpt lat="48.1231946533699" lon="1.3652186607414223"><ele>115.0</ele><time>2026-04-25T14:58:23Z</time></trkpt><trkpt lat="48.12307177538917" lon="1.3652151060030588"><ele>115.0</ele><time>2026-04-25T14:58:25Z</time></trkpt><trkpt lat="48.12295132136516" lon="1.3652329971678736"><ele>115.0</ele><time>2026-04-25T14:58:27Z</time></trkpt><trkpt lat="48.12283368753935" lon="1.3652251144653775"><ele>116.6</ele><time>2026-04-25T14:58:29Z</time></trkpt><trkpt lat="48.12272179766026" lon="1.3652264023281084"><ele>118.2</ele><time>2026-04-25T14:58:31Z</time></trkpt><trkpt lat="48.12261681913287" lon="1.365239232986228"><ele>119.80000000000001</ele><time>2026-04-25T14:58:33Z</time></trkpt><trkpt lat="48.122515547466406" lon="1.3652339284706672"><ele>121.4</ele><time>2026-04-25T14:58:35Z</time></trkpt><trkpt lat="48.12240990390648" lon="1.3652259216417952"><ele>123.0</ele><time>2026-04-25T14:58:37Z</time></trkpt><trkpt lat="48.12234253095114" lon="1.3652301631070924"><ele>123.57142857142858</ele><time>2026-04-25T14:58:39Z</time></trkpt><trkpt lat="48.12226800175838" lon="1.3652154273628991"><ele>124.14285714285714</ele><time>2026-04-25T14:58:42Z</time></trkpt><trkpt lat="48.12219954508283" lon="1.36521319963168"><ele>124.71428571428572</ele><time>2026-04-25T14:58:57Z</time></trkpt><trkpt lat="48.1221287632468" lon="1.3652308450858546"><ele>125.28571428571429</ele><time>2026-04-25T14:59:00Z</time></trkpt><trkpt lat="48.12205729128082" lon="1.3652222283573832"><ele>125.85714285714286</ele><time>2026-04-25T14:59:02Z</time></trkpt><trkpt lat="48.12197778229727" lon="1.3652119844141888"><ele>126.42857142857143</ele><time>2026-04-25T14:59:04Z</time></trkpt><trkpt lat="48.121898557084" lon="1.3652213086241902"><ele>127.0</ele><time>2026-04-25T14:59:08Z</time></trkpt><trkpt lat="48.1218304690725" lon="1.365217153016917"><ele>127.00000000000001</ele><time>2026-04-25T14:59:10Z</time></trkpt><trkpt lat="48.121743280431254" lon="1.3652315781671185"><ele>127.0</ele><time>2026-04-25T14:59:12Z</time></trkpt><trkpt lat="48.121647948245666" lon="1.3652685061252996"><ele>127.0</ele><time>2026-04-25T14:59:14Z</time></trkpt><trkpt lat="48.121536248750466" lon="1.3652835191138624"><ele>127.0</ele><time>2026-04-25T14:59:16Z</time></trkpt><trkpt lat="48.12147413833016" lon="1.3653014774344832"><ele>127.00000000000001</ele><time>2026-04-25T14:59:17Z</time></trkpt><trkpt lat="48.12141287353665" lon="1.3653284242879506"><ele>127.0</ele><time>2026-04-25T14:59:18Z</time></trkpt><trkpt lat="48.12135115677763" lon="1.3653562706120261"><ele>127.19999999999999</ele><time>2026-04-25T14:59:19Z</time></trkpt><trkpt lat="48.12123334772549" lon="1.365415363573379"><ele>127.39999999999999</ele><time>2026-04-25T14:59:21Z</time></trkpt><trkpt lat="48.12110816840322" lon="1.3654601256629733"><ele>127.60000000000001</ele><time>2026-04-25T14:59:23Z</time></trkpt><trkpt lat="48.12104573836567" lon="1.3654810957941"><ele>127.80000000000001</ele><time>2026-04-25T14:59:24Z</time></trkpt><trkpt lat="48.120925725377774" lon="1.365533802356395"><ele>128.0</ele><time>2026-04-25T14:59:26Z</time></trkpt><trkpt lat="48.12086195358666" lon="1.3655705491020873"><ele>128.0</ele><time>2026-04-25T14:59:28Z</time></trkpt><trkpt lat="48.12087232281193" lon="1.3657349692149292"><ele>128.0</ele><time>2026-04-25T14:59:32Z</time></trkpt><trkpt lat="48.12088688109081" lon="1.3658714214685204"><ele>128.0</ele><time>2026-04-25T14:59:34Z</time></trkpt><trkpt lat="48.12089338225971" lon="1.3660324134608988"><ele>128.0</ele><time>2026-04-25T14:59:36Z</time></trkpt><trkpt lat="48.12089343596793" lon="1.3661617096581546"><ele>128.0</ele><time>2026-04-25T14:59:38Z</time></trkpt><trkpt lat="48.12090769199282" lon="1.3662972676562124"><ele>128.20000000000002</ele><time>2026-04-25T14:59:40Z</time></trkpt><trkpt lat="48.12093365227998" lon="1.366406486873035"><ele>128.4</ele><time>2026-04-25T14:59:42Z</time></trkpt><trkpt lat="48.12094587683424" lon="1.3665470681365657"><ele>128.60000000000002</ele><time>2026-04-25T14:59:44Z</time></trkpt><trkpt lat="48.12094842044491" lon="1.3667114302452157"><ele>128.8</ele><time>2026-04-25T14:59:46Z</time></trkpt><trkpt lat="48.1209641611773" lon="1.3668762074195597"><ele>129.0</ele><time>2026-04-25T14:59:48Z</time></trkpt><trkpt lat="48.1209756744322" lon="1.3669926004389212"><ele>129.0</ele><time>2026-04-25T14:59:50Z</time></trkpt><trkpt lat="48.120981032791256" lon="1.3671029489916346"><ele>129.0</ele><time>2026-04-25T14:59:52Z</time></trkpt><trkpt lat="48.12100480226807" lon="1.3672398068659495"><ele>129.0</ele><time>2026-04-25T14:59:54Z</time></trkpt><trkpt lat="48.121008875115585" lon="1.3673978766024208"><ele>129.0</ele><time>2026-04-25T14:59:56Z</time></trkpt><trkpt lat="48.121032271200676" lon="1.3675376035780615"><ele>129.0</ele><time>2026-04-25T14:59:58Z</time></trkpt><trkpt lat="48.12104422302298" lon="1.3676611568067243"><ele>129.33333333333334</ele><time>2026-04-25T15:00:00Z</time></trkpt><trkpt lat="48.12105426372464" lon="1.367793085300856"><ele>129.66666666666666</ele><time>2026-04-25T15:00:02Z</time></trkpt><trkpt lat="48.121059034924265" lon="1.3679212440759019"><ele>130.0</ele><time>2026-04-25T15:00:04Z</time></trkpt><trkpt lat="48.12107382106912" lon="1.3680558523590454"><ele>130.33333333333331</ele><time>2026-04-25T15:00:06Z</time></trkpt><trkpt lat="48.121077192865926" lon="1.3681863658540103"><ele>130.66666666666666</ele><time>2026-04-25T15:00:08Z</time></trkpt><trkpt lat="48.121087198650685" lon="1.3683225559754548"><ele>131.0</ele><time>2026-04-25T15:00:10Z</time></trkpt><trkpt lat="48.121100069574915" lon="1.3684627052903293"><ele>131.25</ele><time>2026-04-25T15:00:12Z</time></trkpt><trkpt lat="48.121118911733454" lon="1.3686262039161292"><ele>131.5</ele><time>2026-04-25T15:00:14Z</time></trkpt><trkpt lat="48.12112516150694" lon="1.368804160609438"><ele>131.75</ele><time>2026-04-25T15:00:16Z</time></trkpt><trkpt lat="48.12113829643794" lon="1.3689751964000216"><ele>132.0</ele><time>2026-04-25T15:00:18Z</time></trkpt><trkpt lat="48.121142253372525" lon="1.3691405636146299"><ele>132.4</ele><time>2026-04-25T15:00:20Z</time></trkpt><trkpt lat="48.12114594951881" lon="1.3692353766362504"><ele>132.79999999999998</ele><time>2026-04-25T15:00:21Z</time></trkpt><trkpt lat="48.12114853208704" lon="1.3694230177690625"><ele>133.2</ele><time>2026-04-25T15:00:23Z</time></trkpt><trkpt lat="48.121132544869454" lon="1.3696086473073454"><ele>133.6</ele><time>2026-04-25T15:00:25Z</time></trkpt><trkpt lat="48.12111658904587" lon="1.3697693316376158"><ele>134.0</ele><time>2026-04-25T15:00:27Z</time></trkpt><trkpt lat="48.12109141092456" lon="1.3699273327513402"><ele>134.0</ele><time>2026-04-25T15:00:29Z</time></trkpt><trkpt lat="48.121053948806725" lon="1.3700860831978008"><ele>134.0</ele><time>2026-04-25T15:00:31Z</time></trkpt><trkpt lat="48.12102339231916" lon="1.3702573193429897"><ele>134.0</ele><time>2026-04-25T15:00:33Z</time></trkpt><trkpt lat="48.12099111065763" lon="1.370400083535422"><ele>134.0</ele><time>2026-04-25T15:00:35Z</time></trkpt><trkpt lat="48.120955874432546" lon="1.3705383787504366"><ele>134.0</ele><time>2026-04-25T15:00:37Z</time></trkpt><trkpt lat="48.12092636276698" lon="1.3706882992025942"><ele>134.0</ele><time>2026-04-25T15:00:39Z</time></trkpt><trkpt lat="48.12089321803767" lon="1.3708528589925395"><ele>134.0</ele><time>2026-04-25T15:00:41Z</time></trkpt><trkpt lat="48.12087887179895" lon="1.3709456666385613"><ele>134.0</ele><time>2026-04-25T15:00:42Z</time></trkpt><trkpt lat="48.12085920899838" lon="1.3710424938721957"><ele>134.0</ele><time>2026-04-25T15:00:43Z</time></trkpt><trkpt lat="48.12083633063326" lon="1.3711394294022075"><ele>134.0</ele><time>2026-04-25T15:00:44Z</time></trkpt><trkpt lat="48.12079662229653" lon="1.3713101005336437"><ele>134.0</ele><time>2026-04-25T15:00:46Z</time></trkpt><trkpt lat="48.120777249349416" lon="1.3714498350561968"><ele>133.8</ele><time>2026-04-25T15:00:48Z</time></trkpt><trkpt lat="48.120745502650024" lon="1.3716066086259033"><ele>133.60000000000002</ele><time>2026-04-25T15:00:50Z</time></trkpt><trkpt lat="48.12073069468119" lon="1.3717016331362641"><ele>133.4</ele><time>2026-04-25T15:00:51Z</time></trkpt><trkpt lat="48.12071415477131" lon="1.3717986695757687"><ele>133.20000000000002</ele><time>2026-04-25T15:00:52Z</time></trkpt><trkpt lat="48.12067311160371" lon="1.371972957055344"><ele>133.0</ele><time>2026-04-25T15:00:54Z</time></trkpt><trkpt lat="48.120641550405814" lon="1.3721233295514104"><ele>133.0</ele><time>2026-04-25T15:00:56Z</time></trkpt><trkpt lat="48.12061706507701" lon="1.3722428996910805"><ele>133.0</ele><time>2026-04-25T15:00:58Z</time></trkpt><trkpt lat="48.120590099114374" lon="1.3723616907807974"><ele>133.0</ele><time>2026-04-25T15:01:00Z</time></trkpt><trkpt lat="48.12056115302573" lon="1.3724821610654176"><ele>133.0</ele><time>2026-04-25T15:01:02Z</time></trkpt><trkpt lat="48.12053155105998" lon="1.3725994842517544"><ele>133.0</ele><time>2026-04-25T15:01:04Z</time></trkpt><trkpt lat="48.12050654695398" lon="1.3727209818691524"><ele>133.0</ele><time>2026-04-25T15:01:06Z</time></trkpt><trkpt lat="48.12048315259671" lon="1.372845265544694"><ele>133.0</ele><time>2026-04-25T15:01:08Z</time></trkpt><trkpt lat="48.12045184497444" lon="1.3729645141797633"><ele>133.0</ele><time>2026-04-25T15:01:10Z</time></trkpt><trkpt lat="48.120425235452856" lon="1.37308407912971"><ele>133.0</ele><time>2026-04-25T15:01:12Z</time></trkpt><trkpt lat="48.120402078408176" lon="1.3732074743680491"><ele>133.0</ele><time>2026-04-25T15:01:14Z</time></trkpt><trkpt lat="48.12037714343997" lon="1.3733300598196967"><ele>133.0</ele><time>2026-04-25T15:01:16Z</time></trkpt><trkpt lat="48.120350540150284" lon="1.37345174625631"><ele>133.0</ele><time>2026-04-25T15:01:18Z</time></trkpt><trkpt lat="48.12032988398812" lon="1.373574712625088"><ele>133.0</ele><time>2026-04-25T15:01:20Z</time></trkpt><trkpt lat="48.12030800218075" lon="1.3736928053824524"><ele>133.0</ele><time>2026-04-25T15:01:22Z</time></trkpt><trkpt lat="48.12028249226327" lon="1.373815149556482"><ele>133.0</ele><time>2026-04-25T15:01:24Z</time></trkpt><trkpt lat="48.12025824530711" lon="1.3739385776557465"><ele>133.0</ele><time>2026-04-25T15:01:26Z</time></trkpt><trkpt lat="48.12023169447633" lon="1.3740632136023019"><ele>133.0</ele><time>2026-04-25T15:01:28Z</time></trkpt><trkpt lat="48.12021246879217" lon="1.374190353141498"><ele>133.0</ele><time>2026-04-25T15:01:30Z</time></trkpt><trkpt lat="48.12018995271952" lon="1.3743112342728583"><ele>133.16666666666669</ele><time>2026-04-25T15:01:32Z</time></trkpt><trkpt lat="48.12016691453012" lon="1.3744321372355037"><ele>133.33333333333334</ele><time>2026-04-25T15:01:34Z</time></trkpt><trkpt lat="48.12013777915981" lon="1.3745490418397743"><ele>133.5</ele><time>2026-04-25T15:01:36Z</time></trkpt><trkpt lat="48.12012217702239" lon="1.3746751115012499"><ele>133.66666666666666</ele><time>2026-04-25T15:01:38Z</time></trkpt><trkpt lat="48.12010959475028" lon="1.3748038396636533"><ele>133.83333333333331</ele><time>2026-04-25T15:01:40Z</time></trkpt><trkpt lat="48.120087618778165" lon="1.3749303319316253"><ele>134.0</ele><time>2026-04-25T15:01:42Z</time></trkpt><trkpt lat="48.120069867138334" lon="1.3750594494538528"><ele>134.0</ele><time>2026-04-25T15:01:44Z</time></trkpt><trkpt lat="48.1200519621661" lon="1.375187266270052"><ele>134.0</ele><time>2026-04-25T15:01:46Z</time></trkpt><trkpt lat="48.12003312014305" lon="1.3753103350352223"><ele>134.0</ele><time>2026-04-25T15:01:48Z</time></trkpt><trkpt lat="48.12001659171375" lon="1.3754369730533509"><ele>134.0</ele><time>2026-04-25T15:01:50Z</time></trkpt><trkpt lat="48.119994740043936" lon="1.375567017218446"><ele>134.0</ele><time>2026-04-25T15:01:52Z</time></trkpt><trkpt lat="48.11997315651597" lon="1.3756929575704517"><ele>134.0</ele><time>2026-04-25T15:01:54Z</time></trkpt><trkpt lat="48.119952839721925" lon="1.375818069333626"><ele>134.0</ele><time>2026-04-25T15:01:56Z</time></trkpt><trkpt lat="48.1199310393336" lon="1.375936876880966"><ele>134.0</ele><time>2026-04-25T15:01:58Z</time></trkpt><trkpt lat="48.11990621886434" lon="1.3760703117935145"><ele>134.0</ele><time>2026-04-25T15:02:00Z</time></trkpt><trkpt lat="48.119862354918496" lon="1.3761850913457734"><ele>134.0</ele><time>2026-04-25T15:02:02Z</time></trkpt><trkpt lat="48.119838035157926" lon="1.3763120077781101"><ele>134.0</ele><time>2026-04-25T15:02:04Z</time></trkpt><trkpt lat="48.11980077659708" lon="1.376431033247909"><ele>134.0</ele><time>2026-04-25T15:02:06Z</time></trkpt><trkpt lat="48.1197750734005" lon="1.3765350988308278"><ele>133.83333333333331</ele><time>2026-04-25T15:02:08Z</time></trkpt><trkpt lat="48.11973943070401" lon="1.3766245767605119"><ele>133.66666666666666</ele><time>2026-04-25T15:02:10Z</time></trkpt><trkpt lat="48.11970079110258" lon="1.3767415296407548"><ele>133.5</ele><time>2026-04-25T15:02:12Z</time></trkpt><trkpt lat="48.11966385763456" lon="1.3768618070019891"><ele>133.33333333333334</ele><time>2026-04-25T15:02:14Z</time></trkpt><trkpt lat="48.1196257893698" lon="1.376978899763367"><ele>133.16666666666669</ele><time>2026-04-25T15:02:16Z</time></trkpt><trkpt lat="48.11958568154145" lon="1.3770994642627987"><ele>133.0</ele><time>2026-04-25T15:02:18Z</time></trkpt><trkpt lat="48.11954608870167" lon="1.377217756910756"><ele>133.0</ele><time>2026-04-25T15:02:20Z</time></trkpt><trkpt lat="48.119508974580484" lon="1.3773457001215204"><ele>133.0</ele><time>2026-04-25T15:02:22Z</time></trkpt><trkpt lat="48.119465985376955" lon="1.377464983697542"><ele>133.0</ele><time>2026-04-25T15:02:24Z</time></trkpt><trkpt lat="48.1194255566589" lon="1.3775835398296674"><ele>133.0</ele><time>2026-04-25T15:02:26Z</time></trkpt><trkpt lat="48.11938275702109" lon="1.3776999351965769"><ele>133.0</ele><time>2026-04-25T15:02:28Z</time></trkpt><trkpt lat="48.119338157024764" lon="1.3778185869267987"><ele>133.0</ele><time>2026-04-25T15:02:30Z</time></trkpt><trkpt lat="48.1192964739559" lon="1.3779367104144087"><ele>133.0</ele><time>2026-04-25T15:02:32Z</time></trkpt><trkpt lat="48.11925976861993" lon="1.3780532829767722"><ele>133.0</ele><time>2026-04-25T15:02:34Z</time></trkpt><trkpt lat="48.119218392885315" lon="1.3781639931860246"><ele>133.0</ele><time>2026-04-25T15:02:36Z</time></trkpt><trkpt lat="48.1191803857864" lon="1.3782857025600268"><ele>133.0</ele><time>2026-04-25T15:02:38Z</time></trkpt><trkpt lat="48.11914588862706" lon="1.3783939768993072"><ele>133.0</ele><time>2026-04-25T15:02:40Z</time></trkpt><trkpt lat="48.119106019647624" lon="1.3785078268637292"><ele>133.16666666666669</ele><time>2026-04-25T15:02:42Z</time></trkpt><trkpt lat="48.11906881013222" lon="1.3786213491999222"><ele>133.33333333333334</ele><time>2026-04-25T15:02:44Z</time></trkpt><trkpt lat="48.119030099203" lon="1.3787289242796132"><ele>133.5</ele><time>2026-04-25T15:02:46Z</time></trkpt><trkpt lat="48.11899625961511" lon="1.3788567733012793"><ele>133.66666666666666</ele><time>2026-04-25T15:02:49Z</time></trkpt><trkpt lat="48.118963381820514" lon="1.3789757426378195"><ele>133.83333333333331</ele><time>2026-04-25T15:02:51Z</time></trkpt><trkpt lat="48.11892605161243" lon="1.3790820252055778"><ele>134.0</ele><time>2026-04-25T15:02:53Z</time></trkpt><trkpt lat="48.11888398603975" lon="1.379204331183145"><ele>133.66666666666666</ele><time>2026-04-25T15:02:55Z</time></trkpt><trkpt lat="48.11884468948907" lon="1.3793210317173594"><ele>133.33333333333331</ele><time>2026-04-25T15:02:57Z</time></trkpt><trkpt lat="48.11879792740953" lon="1.379436280026196"><ele>133.0</ele><time>2026-04-25T15:02:59Z</time></trkpt><trkpt lat="48.118765122587035" lon="1.3795586795190915"><ele>132.66666666666666</ele><time>2026-04-25T15:03:01Z</time></trkpt><trkpt lat="48.11873208120295" lon="1.3796738876831942"><ele>132.33333333333334</ele><time>2026-04-25T15:03:03Z</time></trkpt><trkpt lat="48.11869233841247" lon="1.3797911316156009"><ele>132.0</ele><time>2026-04-25T15:03:05Z</time></trkpt><trkpt lat="48.11864880778708" lon="1.379906139299958"><ele>132.0</ele><time>2026-04-25T15:03:07Z</time></trkpt><trkpt lat="48.11860799522185" lon="1.3800312449532788"><ele>132.0</ele><time>2026-04-25T15:03:09Z</time></trkpt><trkpt lat="48.11857192381281" lon="1.3801496378590783"><ele>132.0</ele><time>2026-04-25T15:03:11Z</time></trkpt><trkpt lat="48.11852846011326" lon="1.3802647804965469"><ele>132.0</ele><time>2026-04-25T15:03:13Z</time></trkpt><trkpt lat="48.118492199614344" lon="1.3803842030789393"><ele>132.0</ele><time>2026-04-25T15:03:15Z</time></trkpt><trkpt lat="48.118442285684836" lon="1.3804933179849481"><ele>132.0</ele><time>2026-04-25T15:03:17Z</time></trkpt><trkpt lat="48.11840960006686" lon="1.38062002558042"><ele>131.79999999999998</ele><time>2026-04-25T15:03:19Z</time></trkpt><trkpt lat="48.118377354622616" lon="1.380746991503537"><ele>131.6</ele><time>2026-04-25T15:03:21Z</time></trkpt><trkpt lat="48.11834411785092" lon="1.3808702888349664"><ele>131.39999999999998</ele><time>2026-04-25T15:03:23Z</time></trkpt><trkpt lat="48.11829631050148" lon="1.3809902459439523"><ele>131.2</ele><time>2026-04-25T15:03:25Z</time></trkpt><trkpt lat="48.11826626828538" lon="1.3811219234974426"><ele>131.0</ele><time>2026-04-25T15:03:27Z</time></trkpt><trkpt lat="48.11823624574403" lon="1.381249118827859"><ele>130.66666666666666</ele><time>2026-04-25T15:03:29Z</time></trkpt><trkpt lat="48.118195293913985" lon="1.3813706916596364"><ele>130.33333333333331</ele><time>2026-04-25T15:03:31Z</time></trkpt><trkpt lat="48.11817375688751" lon="1.3814970652221377"><ele>130.0</ele><time>2026-04-25T15:03:33Z</time></trkpt><trkpt lat="48.1181396020221" lon="1.3816172834840001"><ele>129.66666666666666</ele><time>2026-04-25T15:03:35Z</time></trkpt><trkpt lat="48.11811009659959" lon="1.3817352330120782"><ele>129.33333333333334</ele><time>2026-04-25T15:03:37Z</time></trkpt><trkpt lat="48.118079196231136" lon="1.381859004164951"><ele>129.0</ele><time>2026-04-25T15:03:39Z</time></trkpt><trkpt lat="48.11804657263763" lon="1.3819774573169947"><ele>129.0</ele><time>2026-04-25T15:03:41Z</time></trkpt><trkpt lat="48.11801446062773" lon="1.3820988595283834"><ele>129.0</ele><time>2026-04-25T15:03:43Z</time></trkpt><trkpt lat="48.11798042936503" lon="1.3822172119032758"><ele>129.0</ele><time>2026-04-25T15:03:45Z</time></trkpt><trkpt lat="48.11795751799478" lon="1.3823311798621147"><ele>129.0</ele><time>2026-04-25T15:03:47Z</time></trkpt><trkpt lat="48.11793048352111" lon="1.3824506801898568"><ele>129.0</ele><time>2026-04-25T15:03:49Z</time></trkpt><trkpt lat="48.11790378576148" lon="1.3825735282091336"><ele>129.0</ele><time>2026-04-25T15:03:51Z</time></trkpt><trkpt lat="48.11787154130443" lon="1.3826906377769759"><ele>129.16666666666666</ele><time>2026-04-25T15:03:53Z</time></trkpt><trkpt lat="48.11785208455594" lon="1.3828144938182956"><ele>129.33333333333334</ele><time>2026-04-25T15:03:55Z</time></trkpt><trkpt lat="48.11783125765016" lon="1.3829371827856838"><ele>129.5</ele><time>2026-04-25T15:03:57Z</time></trkpt><trkpt lat="48.11781258952106" lon="1.3830620172309145"><ele>129.66666666666669</ele><time>2026-04-25T15:03:59Z</time></trkpt><trkpt lat="48.11779367220625" lon="1.3831825773611712"><ele>129.83333333333334</ele><time>2026-04-25T15:04:01Z</time></trkpt><trkpt lat="48.11777524586245" lon="1.383307562801035"><ele>130.0</ele><time>2026-04-25T15:04:03Z</time></trkpt><trkpt lat="48.11776290793325" lon="1.3834345607218783"><ele>130.0</ele><time>2026-04-25T15:04:05Z</time></trkpt><trkpt lat="48.11774949964198" lon="1.383563336924115"><ele>130.0</ele><time>2026-04-25T15:04:07Z</time></trkpt><trkpt lat="48.117745829118455" lon="1.3836980165722848"><ele>130.0</ele><time>2026-04-25T15:04:09Z</time></trkpt><trkpt lat="48.11773367910262" lon="1.3838258704589517"><ele>130.0</ele><time>2026-04-25T15:04:11Z</time></trkpt><trkpt lat="48.117738085497734" lon="1.3839582826315382"><ele>130.0</ele><time>2026-04-25T15:04:13Z</time></trkpt><trkpt lat="48.117751652865984" lon="1.3840878103859924"><ele>130.0</ele><time>2026-04-25T15:04:15Z</time></trkpt><trkpt lat="48.11775749072078" lon="1.384224591407378"><ele>130.0</ele><time>2026-04-25T15:04:17Z</time></trkpt><trkpt lat="48.11776671646667" lon="1.3843637124698787"><ele>130.0</ele><time>2026-04-25T15:04:19Z</time></trkpt><trkpt lat="48.117770822303136" lon="1.3845000897376132"><ele>130.0</ele><time>2026-04-25T15:04:21Z</time></trkpt><trkpt lat="48.11777516327578" lon="1.3846276979932266"><ele>130.0</ele><time>2026-04-25T15:04:23Z</time></trkpt><trkpt lat="48.11778321761187" lon="1.3847626712439525"><ele>130.0</ele><time>2026-04-25T15:04:25Z</time></trkpt><trkpt lat="48.11778962231266" lon="1.3848990947757767"><ele>129.8</ele><time>2026-04-25T15:04:27Z</time></trkpt><trkpt lat="48.117799558923835" lon="1.3850376669952278"><ele>129.6</ele><time>2026-04-25T15:04:29Z</time></trkpt><trkpt lat="48.11781257915175" lon="1.3851715929540893"><ele>129.4</ele><time>2026-04-25T15:04:31Z</time></trkpt><trkpt lat="48.117826442754954" lon="1.3853081223991741"><ele>129.2</ele><time>2026-04-25T15:04:33Z</time></trkpt><trkpt lat="48.117831487199496" lon="1.3854432775558914"><ele>129.0</ele><time>2026-04-25T15:04:35Z</time></trkpt><trkpt lat="48.117843375032784" lon="1.3855819456264835"><ele>128.8</ele><time>2026-04-25T15:04:37Z</time></trkpt><trkpt lat="48.11785114955371" lon="1.385724560997901"><ele>128.60000000000002</ele><time>2026-04-25T15:04:39Z</time></trkpt><trkpt lat="48.11785943145711" lon="1.385864318204484"><ele>128.4</ele><time>2026-04-25T15:04:41Z</time></trkpt><trkpt lat="48.11786042564121" lon="1.386014405532159"><ele>128.20000000000002</ele><time>2026-04-25T15:04:43Z</time></trkpt><trkpt lat="48.11786360462293" lon="1.3861672077678497"><ele>128.0</ele><time>2026-04-25T15:04:45Z</time></trkpt><trkpt lat="48.117868894559955" lon="1.386313188257537"><ele>127.60000000000001</ele><time>2026-04-25T15:04:47Z</time></trkpt><trkpt lat="48.11787031052447" lon="1.3864619984671886"><ele>127.20000000000002</ele><time>2026-04-25T15:04:49Z</time></trkpt><trkpt lat="48.11787222604833" lon="1.3866189956100712"><ele>126.8</ele><time>2026-04-25T15:04:51Z</time></trkpt><trkpt lat="48.11786744073372" lon="1.386769281576561"><ele>126.4</ele><time>2026-04-25T15:04:53Z</time></trkpt><trkpt lat="48.117862620547655" lon="1.3869173140075988"><ele>126.0</ele><time>2026-04-25T15:04:55Z</time></trkpt><trkpt lat="48.11794027601357" lon="1.3869960595794317"><ele>126.0</ele><time>2026-04-25T15:04:56Z</time></trkpt><trkpt lat="48.11797025916238" lon="1.3871309121092972"><ele>126.0</ele><time>2026-04-25T15:04:58Z</time></trkpt><trkpt lat="48.11800048862963" lon="1.3872505162653384"><ele>126.0</ele><time>2026-04-25T15:05:00Z</time></trkpt><trkpt lat="48.11804334826482" lon="1.3873694612588388"><ele>126.0</ele><time>2026-04-25T15:05:02Z</time></trkpt><trkpt lat="48.118090407461985" lon="1.3874845296782967"><ele>126.0</ele><time>2026-04-25T15:05:04Z</time></trkpt><trkpt lat="48.11814003385835" lon="1.3875889734090914"><ele>126.0</ele><time>2026-04-25T15:05:06Z</time></trkpt><trkpt lat="48.11819747858205" lon="1.3876580625227504"><ele>126.16666666666667</ele><time>2026-04-25T15:05:08Z</time></trkpt><trkpt lat="48.11827201032158" lon="1.3877007097704996"><ele>126.33333333333334</ele><time>2026-04-25T15:05:10Z</time></trkpt><trkpt lat="48.118345401294945" lon="1.3877454727215226"><ele>126.5</ele><time>2026-04-25T15:05:12Z</time></trkpt><trkpt lat="48.11841844529907" lon="1.3877167355793036"><ele>126.66666666666667</ele><time>2026-04-25T15:05:14Z</time></trkpt><trkpt lat="48.11849256502489" lon="1.3877253621900096"><ele>126.83333333333334</ele><time>2026-04-25T15:05:16Z</time></trkpt><trkpt lat="48.11856771706232" lon="1.3877022667423191"><ele>127.0</ele><time>2026-04-25T15:05:18Z</time></trkpt><trkpt lat="48.118656790956905" lon="1.3877163823385037"><ele>127.00000000000001</ele><time>2026-04-25T15:05:21Z</time></trkpt><trkpt lat="48.11872963947813" lon="1.3877363605477469"><ele>127.0</ele><time>2026-04-25T15:05:23Z</time></trkpt><trkpt lat="48.11881300899661" lon="1.3877244234167845"><ele>127.0</ele><time>2026-04-25T15:05:25Z</time></trkpt><trkpt lat="48.11889440938719" lon="1.3877242396065335"><ele>127.0</ele><time>2026-04-25T15:05:27Z</time></trkpt><trkpt lat="48.118978914397736" lon="1.3877385314823836"><ele>127.00000000000001</ele><time>2026-04-25T15:05:29Z</time></trkpt><trkpt lat="48.11907052425968" lon="1.3877267086720388"><ele>127.0</ele><time>2026-04-25T15:05:32Z</time></trkpt><trkpt lat="48.11915880175017" lon="1.3877293043744099"><ele>127.8</ele><time>2026-04-25T15:05:34Z</time></trkpt><trkpt lat="48.119267610221854" lon="1.387724040159926"><ele>128.6</ele><time>2026-04-25T15:05:37Z</time></trkpt><trkpt lat="48.11937688288346" lon="1.3877258167425348"><ele>129.39999999999998</ele><time>2026-04-25T15:05:40Z</time></trkpt><trkpt lat="48.119489417325276" lon="1.3877311184834147"><ele>130.2</ele><time>2026-04-25T15:05:43Z</time></trkpt><trkpt lat="48.11956835873017" lon="1.387731283955553"><ele>131.0</ele><time>2026-04-25T15:05:45Z</time></trkpt><trkpt lat="48.11963640002119" lon="1.3877443290430094"><ele>131.0</ele><time>2026-04-25T15:05:47Z</time></trkpt><trkpt lat="48.11974066023248" lon="1.3877623547244655"><ele>131.0</ele><time>2026-04-25T15:05:50Z</time></trkpt><trkpt lat="48.1198604353769" lon="1.3877713748892475"><ele>131.0</ele><time>2026-04-25T15:05:53Z</time></trkpt><trkpt lat="48.11996001272813" lon="1.3877462294284983"><ele>131.0</ele><time>2026-04-25T15:05:55Z</time></trkpt><trkpt lat="48.12004764047824" lon="1.3877174754307984"><ele>131.0</ele><time>2026-04-25T15:05:57Z</time></trkpt><trkpt lat="48.12025505526236" lon="1.3876866818803206"><ele>133.0</ele><time>2026-04-25T15:06:02Z</time></trkpt><trkpt lat="48.12034865208368" lon="1.3876597029727207"><ele>135.0</ele><time>2026-04-25T15:06:04Z</time></trkpt><trkpt lat="48.12055358564923" lon="1.3876942842663964"><ele>137.0</ele><time>2026-04-25T15:06:09Z</time></trkpt><trkpt lat="48.120640954030264" lon="1.3876639256407197"><ele>139.0</ele><time>2026-04-25T15:06:11Z</time></trkpt><trkpt lat="48.12072800210999" lon="1.3876489042006122"><ele>139.8</ele><time>2026-04-25T15:06:13Z</time></trkpt><trkpt lat="48.12080291045273" lon="1.3876365041331808"><ele>140.60000000000002</ele><time>2026-04-25T15:06:15Z</time></trkpt><trkpt lat="48.12091055406357" lon="1.387638910445695"><ele>141.4</ele><time>2026-04-25T15:06:18Z</time></trkpt><trkpt lat="48.12099169999615" lon="1.3876498607813157"><ele>142.20000000000002</ele><time>2026-04-25T15:06:20Z</time></trkpt><trkpt lat="48.121149728568575" lon="1.3876529268775222"><ele>143.0</ele><time>2026-04-25T15:06:24Z</time></trkpt><trkpt lat="48.12122153359892" lon="1.387638989504231"><ele>143.0</ele><time>2026-04-25T15:06:26Z</time></trkpt><trkpt lat="48.121320956516776" lon="1.3876222527289443"><ele>143.0</ele><time>2026-04-25T15:06:28Z</time></trkpt><trkpt lat="48.12139369315021" lon="1.3876378260820017"><ele>143.0</ele><time>2026-04-25T15:06:30Z</time></trkpt><trkpt lat="48.12146200278567" lon="1.3876586028057976"><ele>143.0</ele><time>2026-04-25T15:06:32Z</time></trkpt><trkpt lat="48.12153393922318" lon="1.3877173250181563"><ele>143.0</ele><time>2026-04-25T15:06:34Z</time></trkpt><trkpt lat="48.121605745351836" lon="1.3877616273237816"><ele>143.0</ele><time>2026-04-25T15:06:36Z</time></trkpt><trkpt lat="48.12172427706997" lon="1.3877946068134999"><ele>143.33333333333331</ele><time>2026-04-25T15:06:53Z</time></trkpt><trkpt lat="48.121791689032534" lon="1.3878892499845545"><ele>143.66666666666666</ele><time>2026-04-25T15:06:57Z</time></trkpt><trkpt lat="48.121859794429994" lon="1.3879415059653066"><ele>144.0</ele><time>2026-04-25T15:06:59Z</time></trkpt><trkpt lat="48.12192448249247" lon="1.387989658596913"><ele>144.33333333333334</ele><time>2026-04-25T15:07:01Z</time></trkpt><trkpt lat="48.122016960375" lon="1.3880268862844443"><ele>144.66666666666669</ele><time>2026-04-25T15:07:03Z</time></trkpt><trkpt lat="48.122105465970634" lon="1.3880381291114596"><ele>145.0</ele><time>2026-04-25T15:07:05Z</time></trkpt><trkpt lat="48.12218055720007" lon="1.3880548705374696"><ele>145.25</ele><time>2026-04-25T15:07:07Z</time></trkpt><trkpt lat="48.12224534985549" lon="1.3880673651252307"><ele>145.5</ele><time>2026-04-25T15:07:09Z</time></trkpt><trkpt lat="48.122319485747575" lon="1.3881527406013097"><ele>145.75</ele><time>2026-04-25T15:07:11Z</time></trkpt><trkpt lat="48.12254894076846" lon="1.3882179566450497"><ele>146.0</ele><time>2026-04-25T15:07:15Z</time></trkpt><trkpt lat="48.12265644328446" lon="1.3881335998597353"><ele>146.0</ele><time>2026-04-25T15:07:17Z</time></trkpt><trkpt lat="48.12268673890974" lon="1.3879722464606365"><ele>146.0</ele><time>2026-04-25T15:07:18Z</time></trkpt><trkpt lat="48.12285746756692" lon="1.3879639000812156"><ele>146.0</ele><time>2026-04-25T15:07:21Z</time></trkpt><trkpt lat="48.12293506430675" lon="1.3879320354513758"><ele>146.0</ele><time>2026-04-25T15:07:22Z</time></trkpt><trkpt lat="48.12301590807041" lon="1.387906936862418"><ele>146.0</ele><time>2026-04-25T15:07:23Z</time></trkpt><trkpt lat="48.12308614492246" lon="1.3878695181688845"><ele>146.0</ele><time>2026-04-25T15:07:24Z</time></trkpt><trkpt lat="48.12315608533481" lon="1.3878678288087407"><ele>146.0</ele><time>2026-04-25T15:07:25Z</time></trkpt><trkpt lat="48.12321775765341" lon="1.3878380636910492"><ele>146.0</ele><time>2026-04-25T15:07:26Z</time></trkpt><trkpt lat="48.123340527070816" lon="1.3878255125993506"><ele>146.0</ele><time>2026-04-25T15:07:28Z</time></trkpt><trkpt lat="48.12344087081521" lon="1.3878278271642814"><ele>146.0</ele><time>2026-04-25T15:07:30Z</time></trkpt><trkpt lat="48.12362767918553" lon="1.3878141166397855"><ele>146.25</ele><time>2026-04-25T15:07:58Z</time></trkpt><trkpt lat="48.123745303135216" lon="1.3877880086846757"><ele>146.5</ele><time>2026-04-25T15:08:00Z</time></trkpt><trkpt lat="48.123866862550216" lon="1.3877440626281463"><ele>146.75</ele><time>2026-04-25T15:08:02Z</time></trkpt><trkpt lat="48.12398876029405" lon="1.3877005287123252"><ele>147.0</ele><time>2026-04-25T15:08:04Z</time></trkpt><trkpt lat="48.124117150393275" lon="1.38767224872937"><ele>147.0</ele><time>2026-04-25T15:08:06Z</time></trkpt><trkpt lat="48.12417969977067" lon="1.3876584712323554"><ele>147.0</ele><time>2026-04-25T15:08:07Z</time></trkpt><trkpt lat="48.12425232051821" lon="1.3876426040907976"><ele>147.0</ele><time>2026-04-25T15:08:09Z</time></trkpt><trkpt lat="48.12436073322799" lon="1.3876138418216954"><ele>147.0</ele><time>2026-04-25T15:08:11Z</time></trkpt><trkpt lat="48.12445241284761" lon="1.3875963104755373"><ele>147.0</ele><time>2026-04-25T15:08:13Z</time></trkpt><trkpt lat="48.124517320544676" lon="1.3875726276589109"><ele>147.0</ele><time>2026-04-25T15:08:15Z</time></trkpt><trkpt lat="48.12465326556892" lon="1.3875610001673742"><ele>147.0</ele><time>2026-04-25T15:08:18Z</time></trkpt><trkpt lat="48.12474817315779" lon="1.387543581981153"><ele>147.0</ele><time>2026-04-25T15:08:20Z</time></trkpt><trkpt lat="48.12484597235867" lon="1.3875256330899157"><ele>147.0</ele><time>2026-04-25T15:08:22Z</time></trkpt><trkpt lat="48.12495218856006" lon="1.3875061429049016"><ele>147.0</ele><time>2026-04-25T15:08:24Z</time></trkpt><trkpt lat="48.1250648479187" lon="1.3875037193253583"><ele>147.0</ele><time>2026-04-25T15:08:26Z</time></trkpt><trkpt lat="48.12516686303206" lon="1.387464822777379"><ele>147.0</ele><time>2026-04-25T15:08:28Z</time></trkpt><trkpt lat="48.125234616472525" lon="1.387450795083245"><ele>147.0</ele><time>2026-04-25T15:08:29Z</time></trkpt><trkpt lat="48.12536449124815" lon="1.387420395807524"><ele>147.0</ele><time>2026-04-25T15:08:31Z</time></trkpt><trkpt lat="48.12544371853841" lon="1.3874001213935794"><ele>147.0</ele><time>2026-04-25T15:08:32Z</time></trkpt><trkpt lat="48.125521585117795" lon="1.387377066314501"><ele>147.0</ele><time>2026-04-25T15:08:33Z</time></trkpt><trkpt lat="48.125610398892874" lon="1.3873509380424098"><ele>147.0</ele><time>2026-04-25T15:08:34Z</time></trkpt><trkpt lat="48.12568017078678" lon="1.3873298621215238"><ele>147.0</ele><time>2026-04-25T15:08:35Z</time></trkpt><trkpt lat="48.12575090353145" lon="1.387308495963294"><ele>147.0</ele><time>2026-04-25T15:08:37Z</time></trkpt><trkpt lat="48.125843881852646" lon="1.3873703304018428"><ele>147.0</ele><time>2026-04-25T15:08:40Z</time></trkpt><trkpt lat="48.12591324374797" lon="1.3874657060441167"><ele>147.0</ele><time>2026-04-25T15:08:54Z</time></trkpt><trkpt lat="48.12598128832648" lon="1.387559270361468"><ele>147.0</ele><time>2026-04-25T15:08:56Z</time></trkpt><trkpt lat="48.12602969299063" lon="1.3876258288782015"><ele>146.83333333333334</ele><time>2026-04-25T15:08:57Z</time></trkpt><trkpt lat="48.12607034907917" lon="1.3877086869251045"><ele>146.66666666666666</ele><time>2026-04-25T15:08:58Z</time></trkpt><trkpt lat="48.126123352859544" lon="1.3877669145555003"><ele>146.5</ele><time>2026-04-25T15:08:59Z</time></trkpt><trkpt lat="48.12617806551579" lon="1.3878159361273097"><ele>146.33333333333331</ele><time>2026-04-25T15:09:00Z</time></trkpt><trkpt lat="48.126232821752545" lon="1.3878884452349463"><ele>146.16666666666666</ele><time>2026-04-25T15:09:01Z</time></trkpt><trkpt lat="48.126326376189915" lon="1.38798668984719"><ele>146.0</ele><time>2026-04-25T15:09:03Z</time></trkpt><trkpt lat="48.126394546438085" lon="1.3880469010509882"><ele>146.0</ele><time>2026-04-25T15:09:04Z</time></trkpt><trkpt lat="48.12647175504422" lon="1.3881855745980338"><ele>146.0</ele><time>2026-04-25T15:09:06Z</time></trkpt><trkpt lat="48.12653420102316" lon="1.3882211708132364"><ele>146.0</ele><time>2026-04-25T15:09:07Z</time></trkpt><trkpt lat="48.126587053031415" lon="1.3882728037659984"><ele>146.0</ele><time>2026-04-25T15:09:08Z</time></trkpt><trkpt lat="48.12667680979708" lon="1.3883537577656309"><ele>146.0</ele><time>2026-04-25T15:09:12Z</time></trkpt><trkpt lat="48.12673907065724" lon="1.3884104986764145"><ele>146.0</ele><time>2026-04-25T15:09:13Z</time></trkpt><trkpt lat="48.1268618243919" lon="1.388516567381214"><ele>146.0</ele><time>2026-04-25T15:09:15Z</time></trkpt><trkpt lat="48.126963203042564" lon="1.3886037689164286"><ele>146.0</ele><time>2026-04-25T15:09:17Z</time></trkpt><trkpt lat="48.12707745524396" lon="1.3887006052926625"><ele>146.0</ele><time>2026-04-25T15:09:19Z</time></trkpt><trkpt lat="48.127162281557816" lon="1.3887874645189568"><ele>146.0</ele><time>2026-04-25T15:09:21Z</time></trkpt><trkpt lat="48.12723293474662" lon="1.3888099261679756"><ele>146.0</ele><time>2026-04-25T15:09:22Z</time></trkpt><trkpt lat="48.12729463959527" lon="1.388870201339976"><ele>146.0</ele><time>2026-04-25T15:09:23Z</time></trkpt><trkpt lat="48.12738497439041" lon="1.3889474125457937"><ele>146.0</ele><time>2026-04-25T15:09:25Z</time></trkpt><trkpt lat="48.12746641581262" lon="1.3890170224175185"><ele>146.0</ele><time>2026-04-25T15:09:27Z</time></trkpt><trkpt lat="48.12756305610142" lon="1.389099623069616"><ele>146.0</ele><time>2026-04-25T15:09:29Z</time></trkpt><trkpt lat="48.12763019264443" lon="1.3891564434077366"><ele>146.0</ele><time>2026-04-25T15:09:30Z</time></trkpt><trkpt lat="48.12774910542873" lon="1.3892299916428639"><ele>145.6</ele><time>2026-04-25T15:09:32Z</time></trkpt><trkpt lat="48.127852030382265" lon="1.3893428292420753"><ele>145.2</ele><time>2026-04-25T15:09:34Z</time></trkpt><trkpt lat="48.12795605389332" lon="1.3894173735968653"><ele>144.8</ele><time>2026-04-25T15:09:36Z</time></trkpt><trkpt lat="48.128008265671966" lon="1.3894736424602263"><ele>144.4</ele><time>2026-04-25T15:09:37Z</time></trkpt><trkpt lat="48.128089134315275" lon="1.3895326449717171"><ele>144.0</ele><time>2026-04-25T15:09:39Z</time></trkpt><trkpt lat="48.128187305188156" lon="1.3896397081179475"><ele>143.83333333333334</ele><time>2026-04-25T15:09:41Z</time></trkpt><trkpt lat="48.12824484236721" lon="1.3896796653055061"><ele>143.66666666666666</ele><time>2026-04-25T15:09:42Z</time></trkpt><trkpt lat="48.12831112504576" lon="1.3897330467799418"><ele>143.5</ele><time>2026-04-25T15:09:43Z</time></trkpt><trkpt lat="48.12840391863276" lon="1.3898074423271907"><ele>143.33333333333331</ele><time>2026-04-25T15:09:45Z</time></trkpt><trkpt lat="48.12847486674046" lon="1.3898643236308947"><ele>143.16666666666666</ele><time>2026-04-25T15:09:47Z</time></trkpt><trkpt lat="48.12856500514583" lon="1.38993616080781"><ele>143.0</ele><time>2026-04-25T15:09:49Z</time></trkpt><trkpt lat="48.12865220656095" lon="1.3900054298989328"><ele>143.0</ele><time>2026-04-25T15:09:51Z</time></trkpt><trkpt lat="48.1287355824748" lon="1.3900716602036909"><ele>143.0</ele><time>2026-04-25T15:09:53Z</time></trkpt><trkpt lat="48.128848056844824" lon="1.3901610050841187"><ele>143.0</ele><time>2026-04-25T15:09:55Z</time></trkpt><trkpt lat="48.12895343990703" lon="1.3902447167032275"><ele>143.0</ele><time>2026-04-25T15:09:57Z</time></trkpt><trkpt lat="48.12905801161564" lon="1.39029621956773"><ele>142.4</ele><time>2026-04-25T15:09:59Z</time></trkpt><trkpt lat="48.12915856749075" lon="1.3903476721658397"><ele>141.8</ele><time>2026-04-25T15:10:01Z</time></trkpt><trkpt lat="48.12925790739408" lon="1.3903889678425592"><ele>141.2</ele><time>2026-04-25T15:10:03Z</time></trkpt><trkpt lat="48.12936995372519" lon="1.3904260933158368"><ele>140.6</ele><time>2026-04-25T15:10:05Z</time></trkpt><trkpt lat="48.12946399285203" lon="1.3904501079583698"><ele>140.0</ele><time>2026-04-25T15:10:07Z</time></trkpt><trkpt lat="48.12953222366028" lon="1.3904657742350794"><ele>140.0</ele><time>2026-04-25T15:10:08Z</time></trkpt><trkpt lat="48.12959659708556" lon="1.3904782937825408"><ele>140.0</ele><time>2026-04-25T15:10:09Z</time></trkpt><trkpt lat="48.129812279182026" lon="1.3905159610775841"><ele>140.0</ele><time>2026-04-25T15:10:14Z</time></trkpt><trkpt lat="48.13003363475854" lon="1.3905506058574295"><ele>140.5</ele><time>2026-04-25T15:10:19Z</time></trkpt><trkpt lat="48.13014258591854" lon="1.3905651102807735"><ele>141.0</ele><time>2026-04-25T15:10:21Z</time></trkpt><trkpt lat="48.130254072766945" lon="1.3905894277239172"><ele>141.5</ele><time>2026-04-25T15:10:23Z</time></trkpt><trkpt lat="48.130327492143145" lon="1.3905811882956358"><ele>142.0</ele><time>2026-04-25T15:10:25Z</time></trkpt><trkpt lat="48.13036746233719" lon="1.390272424300435"><ele>137.0</ele><time>2026-04-25T15:10:29Z</time></trkpt><trkpt lat="48.13043896040121" lon="1.3901765198232447"><ele>137.0</ele><time>2026-04-25T15:11:00Z</time></trkpt><trkpt lat="48.130500442217496" lon="1.3901467423919955"><ele>137.0</ele><time>2026-04-25T15:11:15Z</time></trkpt></trkseg><trkseg><trkpt lat="48.129394740445214" lon="1.3905083126160933"><ele>143.0</ele><time>2026-04-25T15:29:25Z</time></trkpt><trkpt lat="48.12932409911972" lon="1.3904815064180724"><ele>143.0</ele><time>2026-04-25T15:29:28Z</time></trkpt><trkpt lat="48.12925294172035" lon="1.3904897295352032"><ele>143.0</ele><time>2026-04-25T15:29:30Z</time></trkpt><trkpt lat="48.129179032147654" lon="1.390474809698808"><ele>143.0</ele><time>2026-04-25T15:29:32Z</time></trkpt><trkpt lat="48.12909355741069" lon="1.3904322627839267"><ele>143.0</ele><time>2026-04-25T15:29:34Z</time></trkpt><trkpt lat="48.12902056235129" lon="1.3903830744243981"><ele>143.0</ele><time>2026-04-25T15:29:36Z</time></trkpt><trkpt lat="48.1289508742712" lon="1.3903291215966977"><ele>143.0</ele><time>2026-04-25T15:29:38Z</time></trkpt><trkpt lat="48.12887676377524" lon="1.3902992771996416"><ele>143.0</ele><time>2026-04-25T15:29:40Z</time></trkpt><trkpt lat="48.12881254127836" lon="1.3902415767211016"><ele>143.0</ele><time>2026-04-25T15:29:44Z</time></trkpt><trkpt lat="48.128748584064624" lon="1.3901654713561005"><ele>143.0</ele><time>2026-04-25T15:29:50Z</time></trkpt><trkpt lat="48.128674715279914" lon="1.3901110213890442"><ele>143.0</ele><time>2026-04-25T15:29:52Z</time></trkpt><trkpt lat="48.128284297415505" lon="1.3897156207102426"><ele>143.14285714285714</ele><time>2026-04-25T15:30:04Z</time></trkpt><trkpt lat="48.12822206504144" lon="1.3896607599621853"><ele>143.28571428571428</ele><time>2026-04-25T15:30:06Z</time></trkpt><trkpt lat="48.1281637944523" lon="1.3896150124079398"><ele>143.42857142857144</ele><time>2026-04-25T15:30:08Z</time></trkpt><trkpt lat="48.128113474346186" lon="1.3895344003097088"><ele>143.57142857142856</ele><time>2026-04-25T15:30:10Z</time></trkpt><trkpt lat="48.12805642999552" lon="1.3894653972681839"><ele>143.71428571428572</ele><time>2026-04-25T15:30:12Z</time></trkpt><trkpt lat="48.127998516695904" lon="1.3894202687157016"><ele>143.85714285714286</ele><time>2026-04-25T15:30:14Z</time></trkpt><trkpt lat="48.12794297104219" lon="1.389327288267476"><ele>144.0</ele><time>2026-04-25T15:30:16Z</time></trkpt><trkpt lat="48.127863929992195" lon="1.3892711830276114"><ele>144.00000000000003</ele><time>2026-04-25T15:30:18Z</time></trkpt><trkpt lat="48.12782223508885" lon="1.3891983798099874"><ele>144.0</ele><time>2026-04-25T15:30:20Z</time></trkpt><trkpt lat="48.12776048255089" lon="1.3891420341225753"><ele>144.0</ele><time>2026-04-25T15:30:22Z</time></trkpt><trkpt lat="48.12768517770717" lon="1.389065214939594"><ele>144.0</ele><time>2026-04-25T15:30:23.999Z</time></trkpt><trkpt lat="48.12762982541804" lon="1.3889855041662484"><ele>144.0</ele><time>2026-04-25T15:30:25.999Z</time></trkpt><trkpt lat="48.127569876811016" lon="1.3889326375339137"><ele>144.00000000000003</ele><time>2026-04-25T15:30:27.999Z</time></trkpt><trkpt lat="48.12750546638078" lon="1.3889103796112827"><ele>144.0</ele><time>2026-04-25T15:30:29.999Z</time></trkpt><trkpt lat="48.12743979547483" lon="1.3888894186487295"><ele>143.83333333333334</ele><time>2026-04-25T15:30:31.999Z</time></trkpt><trkpt lat="48.127363095600316" lon="1.3888594490148358"><ele>143.66666666666666</ele><time>2026-04-25T15:30:33.999Z</time></trkpt><trkpt lat="48.127292256727486" lon="1.3888279939462418"><ele>143.5</ele><time>2026-04-25T15:30:35.999Z</time></trkpt><trkpt lat="48.127210295653555" lon="1.3888400932550444"><ele>143.33333333333331</ele><time>2026-04-25T15:30:37.999Z</time></trkpt><trkpt lat="48.12712160619521" lon="1.3888192962222616"><ele>143.16666666666666</ele><time>2026-04-25T15:30:39.999Z</time></trkpt><trkpt lat="48.12703637316288" lon="1.388788636636611"><ele>143.0</ele><time>2026-04-25T15:30:42.999Z</time></trkpt><trkpt lat="48.12694625949352" lon="1.3887635678215478"><ele>143.0</ele><time>2026-04-25T15:30:44.999Z</time></trkpt><trkpt lat="48.12688339601535" lon="1.3887330388832542"><ele>143.0</ele><time>2026-04-25T15:30:46.999Z</time></trkpt><trkpt lat="48.12681563410604" lon="1.3886675086516744"><ele>143.0</ele><time>2026-04-25T15:30:48.999Z</time></trkpt><trkpt lat="48.12679489793523" lon="1.3885488180334586"><ele>143.0</ele><time>2026-04-25T15:30:51.999Z</time></trkpt><trkpt lat="48.125746485091035" lon="1.3873411820428454"><ele>143.66666666666666</ele><time>2026-04-25T15:33:04Z</time></trkpt><trkpt lat="48.125662621997705" lon="1.3873319359834873"><ele>144.33333333333331</ele><time>2026-04-25T15:33:06Z</time></trkpt><trkpt lat="48.125590905540435" lon="1.387301587742416"><ele>145.0</ele><time>2026-04-25T15:33:08Z</time></trkpt><trkpt lat="48.125507150480644" lon="1.3872945909067622"><ele>145.66666666666666</ele><time>2026-04-25T15:33:10Z</time></trkpt><trkpt lat="48.1254363219114" lon="1.387294782763671"><ele>146.33333333333334</ele><time>2026-04-25T15:33:12Z</time></trkpt><trkpt lat="48.12537001788641" lon="1.3873174991002342"><ele>147.0</ele><time>2026-04-25T15:33:14Z</time></trkpt><trkpt lat="48.125287893739305" lon="1.3873784952154713"><ele>147.0</ele><time>2026-04-25T15:33:16Z</time></trkpt><trkpt lat="48.12520690372835" lon="1.3873891391904043"><ele>147.0</ele><time>2026-04-25T15:33:18Z</time></trkpt><trkpt lat="48.125141781200504" lon="1.387425427307274"><ele>147.0</ele><time>2026-04-25T15:33:20Z</time></trkpt><trkpt lat="48.125068607599545" lon="1.3874227953656084"><ele>147.0</ele><time>2026-04-25T15:33:22Z</time></trkpt><trkpt lat="48.12496285029167" lon="1.3874337209780978"><ele>147.0</ele><time>2026-04-25T15:33:24Z</time></trkpt><trkpt lat="48.124874901917515" lon="1.3874541247664791"><ele>147.0</ele><time>2026-04-25T15:33:26Z</time></trkpt><trkpt lat="48.12481023055409" lon="1.3874924703872928"><ele>147.0</ele><time>2026-04-25T15:33:28Z</time></trkpt><trkpt lat="48.12472698760367" lon="1.3875035596337022"><ele>147.0</ele><time>2026-04-25T15:33:30Z</time></trkpt><trkpt lat="48.124645915451026" lon="1.387522983111118"><ele>147.0</ele><time>2026-04-25T15:33:32Z</time></trkpt><trkpt lat="48.12453137437136" lon="1.3875300016218444"><ele>147.0</ele><time>2026-04-25T15:33:35Z</time></trkpt><trkpt lat="48.1244367947844" lon="1.3875748099019205"><ele>147.0</ele><time>2026-04-25T15:33:38Z</time></trkpt><trkpt lat="48.12433975596112" lon="1.3875980380321693"><ele>147.0</ele><time>2026-04-25T15:33:40Z</time></trkpt><trkpt lat="48.124251263806926" lon="1.3875952137063905"><ele>147.0</ele><time>2026-04-25T15:33:41Z</time></trkpt><trkpt lat="48.12414932763282" lon="1.3876095042992467"><ele>147.0</ele><time>2026-04-25T15:33:43Z</time></trkpt><trkpt lat="48.12408793686359" lon="1.3876339850614774"><ele>147.0</ele><time>2026-04-25T15:33:45Z</time></trkpt><trkpt lat="48.123985815332155" lon="1.3876581366508027"><ele>147.0</ele><time>2026-04-25T15:33:48Z</time></trkpt><trkpt lat="48.12387142074757" lon="1.3876532759924627"><ele>145.5</ele><time>2026-04-25T15:33:50Z</time></trkpt><trkpt lat="48.12378719475208" lon="1.3876878608305414"><ele>144.0</ele><time>2026-04-25T15:33:53Z</time></trkpt><trkpt lat="48.12332286422828" lon="1.3877786292358179"><ele>144.0</ele><time>2026-04-25T15:34:04Z</time></trkpt><trkpt lat="48.1232542904868" lon="1.3877983053019316"><ele>144.0</ele><time>2026-04-25T15:34:07Z</time></trkpt><trkpt lat="48.12319060750416" lon="1.3877956432857852"><ele>144.0</ele><time>2026-04-25T15:34:08Z</time></trkpt><trkpt lat="48.1231003655031" lon="1.3877772186446105"><ele>144.0</ele><time>2026-04-25T15:34:10Z</time></trkpt><trkpt lat="48.1230097885952" lon="1.3878141777452662"><ele>144.0</ele><time>2026-04-25T15:34:11.001Z</time></trkpt><trkpt lat="48.12294305449015" lon="1.387824504918576"><ele>144.0</ele><time>2026-04-25T15:34:13.001Z</time></trkpt><trkpt lat="48.12287568332804" lon="1.3878018948558206"><ele>144.16666666666666</ele><time>2026-04-25T15:34:15.001Z</time></trkpt><trkpt lat="48.12278023734035" lon="1.3878264829315308"><ele>144.33333333333334</ele><time>2026-04-25T15:34:17.001Z</time></trkpt><trkpt lat="48.12268662482692" lon="1.3878568590411884"><ele>144.5</ele><time>2026-04-25T15:34:19.001Z</time></trkpt><trkpt lat="48.122620142187714" lon="1.387901953111271"><ele>144.66666666666669</ele><time>2026-04-25T15:34:21.001Z</time></trkpt><trkpt lat="48.12254027810324" lon="1.3879101572560366"><ele>144.83333333333334</ele><time>2026-04-25T15:34:23.001Z</time></trkpt><trkpt lat="48.12245162617937" lon="1.3879060144896016"><ele>145.0</ele><time>2026-04-25T15:34:25.001Z</time></trkpt><trkpt lat="48.122370186309126" lon="1.3879410737520945"><ele>145.0</ele><time>2026-04-25T15:34:27.001Z</time></trkpt><trkpt lat="48.12228055908721" lon="1.3879505253309197"><ele>145.0</ele><time>2026-04-25T15:34:29.001Z</time></trkpt><trkpt lat="48.12219055302621" lon="1.387962392603233"><ele>145.0</ele><time>2026-04-25T15:34:31.001Z</time></trkpt><trkpt lat="48.12212800233925" lon="1.3879887432979918"><ele>145.0</ele><time>2026-04-25T15:34:34.001Z</time></trkpt><trkpt lat="48.12200406707158" lon="1.3879693293624007"><ele>145.0</ele><time>2026-04-25T15:34:36.001Z</time></trkpt><trkpt lat="48.12191036862057" lon="1.387928722356162"><ele>145.0</ele><time>2026-04-25T15:34:38.001Z</time></trkpt><trkpt lat="48.12183688721253" lon="1.3878889781157304"><ele>145.0</ele><time>2026-04-25T15:34:40.001Z</time></trkpt><trkpt lat="48.12175304980182" lon="1.387822720695986"><ele>145.0</ele><time>2026-04-25T15:34:42.001Z</time></trkpt><trkpt lat="48.12168245381763" lon="1.387751573746912"><ele>145.0</ele><time>2026-04-25T15:34:44.001Z</time></trkpt><trkpt lat="48.12160554900697" lon="1.387703176681647"><ele>145.0</ele><time>2026-04-25T15:34:46.001Z</time></trkpt><trkpt lat="48.12151725993471" lon="1.38764174838846"><ele>145.0</ele><time>2026-04-25T15:34:48.001Z</time></trkpt><trkpt lat="48.121449172134454" lon="1.3876061322152764"><ele>144.0</ele><time>2026-04-25T15:34:50.001Z</time></trkpt><trkpt lat="48.12137008302478" lon="1.3875882386580598"><ele>143.0</ele><time>2026-04-25T15:34:52Z</time></trkpt><trkpt lat="48.120821055900436" lon="1.3875819337832458"><ele>143.0</ele><time>2026-04-25T15:35:04Z</time></trkpt><trkpt lat="48.12074376149522" lon="1.3875973979868266"><ele>143.0</ele><time>2026-04-25T15:35:06Z</time></trkpt><trkpt lat="48.12064486488194" lon="1.3876091806867508"><ele>143.0</ele><time>2026-04-25T15:35:08Z</time></trkpt><trkpt lat="48.12055937790285" lon="1.3876359299510426"><ele>143.0</ele><time>2026-04-25T15:35:10Z</time></trkpt><trkpt lat="48.12047515531847" lon="1.3876222083193388"><ele>143.0</ele><time>2026-04-25T15:35:12Z</time></trkpt><trkpt lat="48.12038632527882" lon="1.3876494595923814"><ele>143.0</ele><time>2026-04-25T15:35:14Z</time></trkpt><trkpt lat="48.120298523857045" lon="1.38765886251725"><ele>142.33333333333331</ele><time>2026-04-25T15:35:16Z</time></trkpt><trkpt lat="48.12022243855611" lon="1.3876594985547441"><ele>141.66666666666666</ele><time>2026-04-25T15:35:18Z</time></trkpt><trkpt lat="48.12014846240383" lon="1.3876782941904333"><ele>141.0</ele><time>2026-04-25T15:35:20Z</time></trkpt><trkpt lat="48.12006858768095" lon="1.3876713410941366"><ele>140.33333333333334</ele><time>2026-04-25T15:35:23Z</time></trkpt><trkpt lat="48.11998698775387" lon="1.3876817987300805"><ele>139.66666666666669</ele><time>2026-04-25T15:35:24Z</time></trkpt><trkpt lat="48.119887143842476" lon="1.3876824406806205"><ele>139.0</ele><time>2026-04-25T15:35:26Z</time></trkpt><trkpt lat="48.119800139938604" lon="1.3876918667077882"><ele>137.4</ele><time>2026-04-25T15:35:28Z</time></trkpt><trkpt lat="48.119699467327656" lon="1.3876738841831826"><ele>135.8</ele><time>2026-04-25T15:35:30Z</time></trkpt><trkpt lat="48.11961434565767" lon="1.3876909479480593"><ele>134.2</ele><time>2026-04-25T15:35:32Z</time></trkpt><trkpt lat="48.119514943492376" lon="1.3876869461208037"><ele>132.6</ele><time>2026-04-25T15:35:34Z</time></trkpt><trkpt lat="48.11942370368779" lon="1.3876884819752253"><ele>131.0</ele><time>2026-04-25T15:35:36Z</time></trkpt><trkpt lat="48.119340222759455" lon="1.3877023182569745"><ele>131.0</ele><time>2026-04-25T15:35:38Z</time></trkpt><trkpt lat="48.11924869922677" lon="1.387696548405208"><ele>131.0</ele><time>2026-04-25T15:35:40Z</time></trkpt><trkpt lat="48.11915934476026" lon="1.3876901508094566"><ele>131.0</ele><time>2026-04-25T15:35:42Z</time></trkpt><trkpt lat="48.11906898448589" lon="1.387692998438879"><ele>131.0</ele><time>2026-04-25T15:35:44Z</time></trkpt><trkpt lat="48.1189770926893" lon="1.3876982144222811"><ele>131.0</ele><time>2026-04-25T15:35:46Z</time></trkpt><trkpt lat="48.11888542428881" lon="1.3876912045586365"><ele>129.66666666666666</ele><time>2026-04-25T15:35:48Z</time></trkpt><trkpt lat="48.11879744092485" lon="1.3876952257606916"><ele>128.33333333333334</ele><time>2026-04-25T15:35:50Z</time></trkpt><trkpt lat="48.11870985960724" lon="1.387689851761837"><ele>127.0</ele><time>2026-04-25T15:35:52Z</time></trkpt><trkpt lat="48.118183847276676" lon="1.3875774469656903"><ele>126.16666666666667</ele><time>2026-04-25T15:36:04.001Z</time></trkpt><trkpt lat="48.11813091293346" lon="1.3874932096738326"><ele>125.33333333333334</ele><time>2026-04-25T15:36:06.001Z</time></trkpt><trkpt lat="48.11806860530684" lon="1.387453880308702"><ele>124.5</ele><time>2026-04-25T15:36:08.001Z</time></trkpt><trkpt lat="48.11799356055264" lon="1.3874444290448187"><ele>123.66666666666666</ele><time>2026-04-25T15:36:10.001Z</time></trkpt><trkpt lat="48.11789866925507" lon="1.3874233693840279"><ele>122.83333333333333</ele><time>2026-04-25T15:36:13.001Z</time></trkpt><trkpt lat="48.117834562401306" lon="1.3874233023915907"><ele>122.0</ele><time>2026-04-25T15:36:16.001Z</time></trkpt><trkpt lat="48.117779752601756" lon="1.387487403944721"><ele>122.0</ele><time>2026-04-25T15:36:19.001Z</time></trkpt><trkpt lat="48.11773217784256" lon="1.387600513656614"><ele>121.99999999999999</ele><time>2026-04-25T15:36:21.001Z</time></trkpt><trkpt lat="48.117696807137385" lon="1.3877299823741485"><ele>121.99999999999999</ele><time>2026-04-25T15:36:23.001Z</time></trkpt><trkpt lat="48.117665207037675" lon="1.387865210400851"><ele>122.0</ele><time>2026-04-25T15:36:25.001Z</time></trkpt><trkpt lat="48.11762860542929" lon="1.3880100878442476"><ele>122.0</ele><time>2026-04-25T15:36:27.001Z</time></trkpt><trkpt lat="48.11759319345782" lon="1.3881578937287664"><ele>121.49999999999999</ele><time>2026-04-25T15:36:29.001Z</time></trkpt><trkpt lat="48.11755237689713" lon="1.388303666863967"><ele>121.0</ele><time>2026-04-25T15:36:31.001Z</time></trkpt><trkpt lat="48.11750535058325" lon="1.3884687580299062"><ele>120.5</ele><time>2026-04-25T15:36:33.001Z</time></trkpt><trkpt lat="48.117478313894345" lon="1.3885614096581094"><ele>120.0</ele><time>2026-04-25T15:36:34.001Z</time></trkpt><trkpt lat="48.11745019697205" lon="1.3886683301509002"><ele>119.49999999999999</ele><time>2026-04-25T15:36:35.001Z</time></trkpt><trkpt lat="48.11741544867099" lon="1.3887757385601132"><ele>119.0</ele><time>2026-04-25T15:36:36.001Z</time></trkpt><trkpt lat="48.11738450510388" lon="1.3888736667940418"><ele>117.99999999999999</ele><time>2026-04-25T15:36:37.001Z</time></trkpt><trkpt lat="48.11735090472276" lon="1.3889592768901355"><ele>117.0</ele><time>2026-04-25T15:36:38.001Z</time></trkpt><trkpt lat="48.11727442855964" lon="1.389079655372998"><ele>116.0</ele><time>2026-04-25T15:36:40.001Z</time></trkpt><trkpt lat="48.1172174533987" lon="1.3891234234222614"><ele>115.0</ele><time>2026-04-25T15:36:41.001Z</time></trkpt><trkpt lat="48.11714564416337" lon="1.3891580314913665"><ele>113.99999999999999</ele><time>2026-04-25T15:36:42.001Z</time></trkpt><trkpt lat="48.117077116921685" lon="1.3891696493943522"><ele>113.0</ele><time>2026-04-25T15:36:43.001Z</time></trkpt><trkpt lat="48.11696242786279" lon="1.3891826694281477"><ele>113.0</ele><time>2026-04-25T15:36:45.001Z</time></trkpt><trkpt lat="48.116855369393896" lon="1.3891984915118396"><ele>113.00000000000001</ele><time>2026-04-25T15:36:47.001Z</time></trkpt><trkpt lat="48.116728217271174" lon="1.389233653847511"><ele>113.00000000000001</ele><time>2026-04-25T15:36:49.001Z</time></trkpt><trkpt lat="48.11665402437482" lon="1.3892487272804164"><ele>113.0</ele><time>2026-04-25T15:36:50.001Z</time></trkpt><trkpt lat="48.116581344190344" lon="1.3892649071230307"><ele>113.0</ele><time>2026-04-25T15:36:51.001Z</time></trkpt><trkpt lat="48.116507612815454" lon="1.3892814485611344"><ele>114.0</ele><time>2026-04-25T15:36:52.001Z</time></trkpt><trkpt lat="48.11643286286627" lon="1.3892992429384055"><ele>115.0</ele><time>2026-04-25T15:36:53.001Z</time></trkpt><trkpt lat="48.11465451687145" lon="1.3918324726742097"><ele>115.33333333333334</ele><time>2026-04-25T15:38:04Z</time></trkpt><trkpt lat="48.11457996960336" lon="1.3918545672311655"><ele>115.66666666666667</ele><time>2026-04-25T15:38:06Z</time></trkpt><trkpt lat="48.11450285967728" lon="1.3918790565058974"><ele>116.0</ele><time>2026-04-25T15:38:08Z</time></trkpt><trkpt lat="48.114425291836085" lon="1.3919106720210144"><ele>116.33333333333334</ele><time>2026-04-25T15:38:10Z</time></trkpt><trkpt lat="48.114350431051854" lon="1.3919456688763967"><ele>116.66666666666667</ele><time>2026-04-25T15:38:12Z</time></trkpt><trkpt lat="48.11427669801935" lon="1.3919786989936351"><ele>117.0</ele><time>2026-04-25T15:38:14Z</time></trkpt><trkpt lat="48.114202464591656" lon="1.392003671220617"><ele>117.0</ele><time>2026-04-25T15:38:16Z</time></trkpt><trkpt lat="48.114140199354445" lon="1.3920385492472016"><ele>117.0</ele><time>2026-04-25T15:38:18Z</time></trkpt><trkpt lat="48.114102280480964" lon="1.3921308918230266"><ele>117.0</ele><time>2026-04-25T15:38:20Z</time></trkpt><trkpt lat="48.11411568033175" lon="1.3922628608053367"><ele>117.0</ele><time>2026-04-25T15:38:22Z</time></trkpt><trkpt lat="48.11412155989993" lon="1.3923825069055333"><ele>117.0</ele><time>2026-04-25T15:38:24Z</time></trkpt><trkpt lat="48.11412628291281" lon="1.3924986362801888"><ele>117.0</ele><time>2026-04-25T15:38:26Z</time></trkpt><trkpt lat="48.114128821273034" lon="1.3926216737933734"><ele>117.0</ele><time>2026-04-25T15:38:28Z</time></trkpt><trkpt lat="48.11413912609831" lon="1.3927395616684257"><ele>117.0</ele><time>2026-04-25T15:38:30Z</time></trkpt><trkpt lat="48.11414533655117" lon="1.3928583842149005"><ele>117.0</ele><time>2026-04-25T15:38:32Z</time></trkpt><trkpt lat="48.11415440471793" lon="1.3929780693226532"><ele>117.0</ele><time>2026-04-25T15:38:34Z</time></trkpt><trkpt lat="48.114185503906235" lon="1.3931025210940224"><ele>117.0</ele><time>2026-04-25T15:38:36Z</time></trkpt><trkpt lat="48.114245818394856" lon="1.3932036342765566"><ele>117.0</ele><time>2026-04-25T15:38:38Z</time></trkpt><trkpt lat="48.114296987950944" lon="1.3933127575545659"><ele>117.0</ele><time>2026-04-25T15:38:40Z</time></trkpt><trkpt lat="48.11434586262641" lon="1.393419906741855"><ele>117.0</ele><time>2026-04-25T15:38:42Z</time></trkpt><trkpt lat="48.11438833004939" lon="1.3935351596169563"><ele>117.0</ele><time>2026-04-25T15:38:44Z</time></trkpt><trkpt lat="48.11443576084246" lon="1.3936449111299216"><ele>117.0</ele><time>2026-04-25T15:38:46Z</time></trkpt><trkpt lat="48.114483017377395" lon="1.393750435033214"><ele>117.0</ele><time>2026-04-25T15:38:48.001Z</time></trkpt><trkpt lat="48.11452421636896" lon="1.3938637181317084"><ele>117.0</ele><time>2026-04-25T15:38:50.001Z</time></trkpt><trkpt lat="48.11455414075493" lon="1.3939833512370567"><ele>112.0</ele><time>2026-04-25T15:38:52Z</time></trkpt><trkpt lat="48.11520358751211" lon="1.3976825697306365"><ele>112.00000000000001</ele><time>2026-04-25T15:39:54Z</time></trkpt><trkpt lat="48.11521925360653" lon="1.397798616503617"><ele>112.0</ele><time>2026-04-25T15:39:56Z</time></trkpt><trkpt lat="48.115227099796364" lon="1.397908817128492"><ele>112.0</ele><time>2026-04-25T15:39:59Z</time></trkpt><trkpt lat="48.1152344520198" lon="1.3980105085850107"><ele>112.0</ele><time>2026-04-25T15:40:03Z</time></trkpt><trkpt lat="48.11526149399405" lon="1.3981460707289945"><ele>112.00000000000001</ele><time>2026-04-25T15:40:06Z</time></trkpt><trkpt lat="48.11527201091691" lon="1.3982780952667533"><ele>112.0</ele><time>2026-04-25T15:40:08Z</time></trkpt><trkpt lat="48.11526865567508" lon="1.3984022133927405"><ele>112.16666666666667</ele><time>2026-04-25T15:40:10Z</time></trkpt><trkpt lat="48.11526577534865" lon="1.3985148296436083"><ele>112.33333333333334</ele><time>2026-04-25T15:40:12Z</time></trkpt><trkpt lat="48.11527915258174" lon="1.3986413696661795"><ele>112.5</ele><time>2026-04-25T15:40:14Z</time></trkpt><trkpt lat="48.11527445089473" lon="1.3987646683049721"><ele>112.66666666666666</ele><time>2026-04-25T15:40:16Z</time></trkpt><trkpt lat="48.11526515062479" lon="1.3988911012885297"><ele>112.83333333333333</ele><time>2026-04-25T15:40:18Z</time></trkpt><trkpt lat="48.11523865491958" lon="1.3989924245880956"><ele>113.0</ele><time>2026-04-25T15:40:20Z</time></trkpt><trkpt lat="48.11519790333319" lon="1.3990792365966591"><ele>112.99999999999999</ele><time>2026-04-25T15:40:22Z</time></trkpt><trkpt lat="48.11514051326697" lon="1.3991392382105479"><ele>113.0</ele><time>2026-04-25T15:40:24Z</time></trkpt><trkpt lat="48.11506532373721" lon="1.3991816617099921"><ele>113.0</ele><time>2026-04-25T15:40:26Z</time></trkpt><trkpt lat="48.1149889633931" lon="1.3991803067196873"><ele>113.0</ele><time>2026-04-25T15:40:28Z</time></trkpt><trkpt lat="48.11490644954057" lon="1.3991450503084397"><ele>112.99999999999999</ele><time>2026-04-25T15:40:30Z</time></trkpt><trkpt lat="48.11483241918882" lon="1.3990994367614606"><ele>113.0</ele><time>2026-04-25T15:40:32Z</time></trkpt><trkpt lat="48.11475549209298" lon="1.399059039363426"><ele>112.99999999999999</ele><time>2026-04-25T15:40:34Z</time></trkpt><trkpt lat="48.11468306665652" lon="1.399024140062794"><ele>113.0</ele><time>2026-04-25T15:40:36Z</time></trkpt><trkpt lat="48.11460893485723" lon="1.3989784900683715"><ele>113.0</ele><time>2026-04-25T15:40:38Z</time></trkpt><trkpt lat="48.11453354629788" lon="1.3989312261251303"><ele>113.0</ele><time>2026-04-25T15:40:40Z</time></trkpt><trkpt lat="48.114455372505475" lon="1.3988940426532275"><ele>112.99999999999999</ele><time>2026-04-25T15:40:42Z</time></trkpt><trkpt lat="48.11437914492827" lon="1.3988648158517156"><ele>113.0</ele><time>2026-04-25T15:40:44Z</time></trkpt><trkpt lat="48.11430190962671" lon="1.3988322597044565"><ele>113.0</ele><time>2026-04-25T15:40:46Z</time></trkpt><trkpt lat="48.114227692417415" lon="1.398794243755792"><ele>113.0</ele><time>2026-04-25T15:40:48Z</time></trkpt><trkpt lat="48.11415314377057" lon="1.398766611300466"><ele>113.0</ele><time>2026-04-25T15:40:50Z</time></trkpt><trkpt lat="48.11408167189231" lon="1.3987410168106618"><ele>113.0</ele><time>2026-04-25T15:40:52Z</time></trkpt><trkpt lat="48.11217577037482" lon="1.398105653715448"><ele>115.14285714285714</ele><time>2026-04-25T15:41:54Z</time></trkpt><trkpt lat="48.112100046202215" lon="1.3981054964846429"><ele>117.28571428571428</ele><time>2026-04-25T15:41:56Z</time></trkpt><trkpt lat="48.11202836720388" lon="1.3980913374401744"><ele>119.42857142857142</ele><time>2026-04-25T15:41:58Z</time></trkpt><trkpt lat="48.111966706446935" lon="1.3980678897067402"><ele>121.57142857142857</ele><time>2026-04-25T15:42:00Z</time></trkpt><trkpt lat="48.111916127815505" lon="1.397992215866983"><ele>123.7142857142857</ele><time>2026-04-25T15:42:11Z</time></trkpt><trkpt lat="48.11193593731817" lon="1.3978990480685143"><ele>125.85714285714285</ele><time>2026-04-25T15:42:13Z</time></trkpt><trkpt lat="48.111974661344476" lon="1.3977884849529267"><ele>128.0</ele><time>2026-04-25T15:42:15Z</time></trkpt><trkpt lat="48.111996757142116" lon="1.3976622674703276"><ele>128.16666666666666</ele><time>2026-04-25T15:42:17Z</time></trkpt><trkpt lat="48.11202647674787" lon="1.3975469299812482"><ele>128.33333333333331</ele><time>2026-04-25T15:42:19Z</time></trkpt><trkpt lat="48.112049379223095" lon="1.397425375354125"><ele>128.5</ele><time>2026-04-25T15:42:21Z</time></trkpt><trkpt lat="48.11207314438609" lon="1.3973082714314933"><ele>128.66666666666666</ele><time>2026-04-25T15:42:23Z</time></trkpt><trkpt lat="48.11209529738761" lon="1.3971859554203305"><ele>128.83333333333334</ele><time>2026-04-25T15:42:25Z</time></trkpt><trkpt lat="48.11212559721661" lon="1.3970690506438912"><ele>129.0</ele><time>2026-04-25T15:42:27Z</time></trkpt><trkpt lat="48.1121507069258" lon="1.3969496592383688"><ele>129.0</ele><time>2026-04-25T15:42:29Z</time></trkpt><trkpt lat="48.11217572180075" lon="1.3968235600322891"><ele>129.0</ele><time>2026-04-25T15:42:31Z</time></trkpt><trkpt lat="48.11219410241739" lon="1.3966521031480987"><ele>129.0</ele><time>2026-04-25T15:42:33Z</time></trkpt><trkpt lat="48.112244315914914" lon="1.3964746644752963"><ele>129.0</ele><time>2026-04-25T15:42:35Z</time></trkpt><trkpt lat="48.11226173976535" lon="1.3963826794504968"><ele>129.0</ele><time>2026-04-25T15:42:36Z</time></trkpt><trkpt lat="48.1122916703661" lon="1.3962284498584117"><ele>128.83333333333334</ele><time>2026-04-25T15:42:38Z</time></trkpt><trkpt lat="48.112322249587706" lon="1.396100164520726"><ele>128.66666666666666</ele><time>2026-04-25T15:42:40Z</time></trkpt><trkpt lat="48.112345602357486" lon="1.3959795010189295"><ele>128.5</ele><time>2026-04-25T15:42:42Z</time></trkpt><trkpt lat="48.112380785727126" lon="1.395859407696619"><ele>128.33333333333331</ele><time>2026-04-25T15:42:44Z</time></trkpt><trkpt lat="48.11240930139448" lon="1.3957363518980854"><ele>128.16666666666666</ele><time>2026-04-25T15:42:46Z</time></trkpt><trkpt lat="48.112457056290786" lon="1.3956257507396923"><ele>128.0</ele><time>2026-04-25T15:42:48Z</time></trkpt><trkpt lat="48.11249363586598" lon="1.3955028088155597"><ele>127.0</ele><time>2026-04-25T15:42:50Z</time></trkpt><trkpt lat="48.112540255430375" lon="1.3953930218405115"><ele>126.0</ele><time>2026-04-25T15:42:52Z</time></trkpt><trkpt lat="48.11261709158398" lon="1.391610742794875"><ele>125.66666666666667</ele><time>2026-04-25T15:43:54Z</time></trkpt><trkpt lat="48.1125745690234" lon="1.3915114303685348"><ele>125.33333333333334</ele><time>2026-04-25T15:43:56Z</time></trkpt><trkpt lat="48.11253510914873" lon="1.3914101032192527"><ele>125.0</ele><time>2026-04-25T15:43:58Z</time></trkpt><trkpt lat="48.11249347052194" lon="1.391309614469362"><ele>124.66666666666667</ele><time>2026-04-25T15:44:00Z</time></trkpt><trkpt lat="48.112453575127226" lon="1.3912123059663895"><ele>124.33333333333334</ele><time>2026-04-25T15:44:02Z</time></trkpt><trkpt lat="48.112414721665864" lon="1.3911060033395668"><ele>124.0</ele><time>2026-04-25T15:44:04Z</time></trkpt><trkpt lat="48.11237852178857" lon="1.3909994692980712"><ele>124.0</ele><time>2026-04-25T15:44:06Z</time></trkpt><trkpt lat="48.11234666377234" lon="1.3908931254649681"><ele>124.0</ele><time>2026-04-25T15:44:08Z</time></trkpt><trkpt lat="48.112317603513056" lon="1.3907880146355642"><ele>124.0</ele><time>2026-04-25T15:44:10Z</time></trkpt><trkpt lat="48.11228405326194" lon="1.3906797142127274"><ele>124.0</ele><time>2026-04-25T15:44:12Z</time></trkpt><trkpt lat="48.11225026356553" lon="1.390533758216681"><ele>124.0</ele><time>2026-04-25T15:44:14Z</time></trkpt><trkpt lat="48.112216203271174" lon="1.3903625634440602"><ele>124.00000000000001</ele><time>2026-04-25T15:44:16Z</time></trkpt><trkpt lat="48.112195611985165" lon="1.3902570431508126"><ele>124.0</ele><time>2026-04-25T15:44:18Z</time></trkpt><trkpt lat="48.1123095008277" lon="1.3901998830399813"><ele>124.0</ele><time>2026-04-25T15:44:19Z</time></trkpt><trkpt lat="48.1123821362808" lon="1.3902006557387536"><ele>124.0</ele><time>2026-04-25T15:44:20Z</time></trkpt><trkpt lat="48.11245211729833" lon="1.3902076181385776"><ele>124.00000000000001</ele><time>2026-04-25T15:44:21Z</time></trkpt><trkpt lat="48.112526323879706" lon="1.3901820452046245"><ele>124.0</ele><time>2026-04-25T15:44:22Z</time></trkpt><trkpt lat="48.11260722359076" lon="1.3901594663857197"><ele>123.83333333333334</ele><time>2026-04-25T15:44:23Z</time></trkpt><trkpt lat="48.11268350737113" lon="1.3901385320776114"><ele>123.66666666666667</ele><time>2026-04-25T15:44:24Z</time></trkpt><trkpt lat="48.1127542347765" lon="1.3901222488717861"><ele>123.5</ele><time>2026-04-25T15:44:25Z</time></trkpt><trkpt lat="48.112836419638775" lon="1.3901050667449117"><ele>123.33333333333334</ele><time>2026-04-25T15:44:27Z</time></trkpt><trkpt lat="48.11290543842823" lon="1.3900917765573981"><ele>123.16666666666667</ele><time>2026-04-25T15:44:29Z</time></trkpt><trkpt lat="48.113000798512964" lon="1.3900891338968444"><ele>123.0</ele><time>2026-04-25T15:44:31Z</time></trkpt><trkpt lat="48.113106418260216" lon="1.3900547972552275"><ele>121.0</ele><time>2026-04-25T15:44:33Z</time></trkpt><trkpt lat="48.11358140182225" lon="1.3899364777723764"><ele>121.0</ele><time>2026-04-25T15:45:54Z</time></trkpt><trkpt lat="48.1136724687934" lon="1.389920149842091"><ele>121.0</ele><time>2026-04-25T15:45:56Z</time></trkpt><trkpt lat="48.11376653208825" lon="1.3898991279637791"><ele>121.0</ele><time>2026-04-25T15:45:58Z</time></trkpt><trkpt lat="48.113859265145265" lon="1.3898837356197402"><ele>121.0</ele><time>2026-04-25T15:46:00Z</time></trkpt><trkpt lat="48.11395672889409" lon="1.3898656429027834"><ele>121.0</ele><time>2026-04-25T15:46:02Z</time></trkpt><trkpt lat="48.11405258757376" lon="1.3898391855789956"><ele>120.0</ele><time>2026-04-25T15:46:04Z</time></trkpt><trkpt lat="48.11414723178176" lon="1.3898102845833757"><ele>119.0</ele><time>2026-04-25T15:46:06Z</time></trkpt><trkpt lat="48.11424020376634" lon="1.389788691270251"><ele>118.0</ele><time>2026-04-25T15:46:08Z</time></trkpt><trkpt lat="48.11432988582383" lon="1.3897739150668773"><ele>117.0</ele><time>2026-04-25T15:46:10Z</time></trkpt><trkpt lat="48.11442662898878" lon="1.3897666509707103"><ele>116.0</ele><time>2026-04-25T15:46:12Z</time></trkpt><trkpt lat="48.11451542301642" lon="1.3897369918158309"><ele>115.99999999999999</ele><time>2026-04-25T15:46:14Z</time></trkpt><trkpt lat="48.114601338903604" lon="1.3897147036883786"><ele>116.0</ele><time>2026-04-25T15:46:16Z</time></trkpt><trkpt lat="48.11468696413094" lon="1.3896911511491923"><ele>116.0</ele><time>2026-04-25T15:46:18Z</time></trkpt><trkpt lat="48.11477017191545" lon="1.389671015760251"><ele>116.0</ele><time>2026-04-25T15:46:20Z</time></trkpt><trkpt lat="48.11485385688054" lon="1.3896674175703845"><ele>115.99999999999999</ele><time>2026-04-25T15:46:22Z</time></trkpt><trkpt lat="48.114938885989694" lon="1.3896379451707719"><ele>116.0</ele><time>2026-04-25T15:46:24Z</time></trkpt><trkpt lat="48.11500758715357" lon="1.3896211914008825"><ele>115.33333333333333</ele><time>2026-04-25T15:46:26Z</time></trkpt><trkpt lat="48.115071145824565" lon="1.3896032641722285"><ele>114.66666666666666</ele><time>2026-04-25T15:46:45Z</time></trkpt><trkpt lat="48.115417276553146" lon="1.3895619100453758"><ele>114.0</ele><time>2026-04-25T15:47:04Z</time></trkpt><trkpt lat="48.115633205850024" lon="1.389516235079425"><ele>114.16666666666667</ele><time>2026-04-25T15:47:10Z</time></trkpt><trkpt lat="48.11574238515537" lon="1.3895029135665575"><ele>114.33333333333334</ele><time>2026-04-25T15:47:12Z</time></trkpt><trkpt lat="48.11580993373999" lon="1.3894889103818564"><ele>114.5</ele><time>2026-04-25T15:47:14Z</time></trkpt><trkpt lat="48.115936475465865" lon="1.3894733791792162"><ele>114.66666666666667</ele><time>2026-04-25T15:47:19Z</time></trkpt><trkpt lat="48.11599964398555" lon="1.3894558089957771"><ele>114.83333333333334</ele><time>2026-04-25T15:47:21Z</time></trkpt><trkpt lat="48.11606780089495" lon="1.3894477489866657"><ele>115.0</ele><time>2026-04-25T15:47:23Z</time></trkpt><trkpt lat="48.11616791617521" lon="1.3894312447434447"><ele>115.0</ele><time>2026-04-25T15:47:27Z</time></trkpt><trkpt lat="48.11627330900129" lon="1.389413099103847"><ele>115.0</ele><time>2026-04-25T15:47:31Z</time></trkpt><trkpt lat="48.11636070175353" lon="1.3893468343575386"><ele>115.0</ele><time>2026-04-25T15:48:08Z</time></trkpt><trkpt lat="48.11645596014788" lon="1.3893246893297482"><ele>115.0</ele><time>2026-04-25T15:48:10Z</time></trkpt><trkpt lat="48.116598434428" lon="1.3893117980179275"><ele>115.0</ele><time>2026-04-25T15:48:27Z</time></trkpt><trkpt lat="48.11670645140014" lon="1.3892969422844497"><ele>114.5</ele><time>2026-04-25T15:48:33Z</time></trkpt><trkpt lat="48.11678453997624" lon="1.3892612985198651"><ele>114.0</ele><time>2026-04-25T15:48:35Z</time></trkpt><trkpt lat="48.11692895705381" lon="1.3892480754731134"><ele>113.5</ele><time>2026-04-25T15:48:38Z</time></trkpt><trkpt lat="48.11699486265864" lon="1.3892216451816577"><ele>113.0</ele><time>2026-04-25T15:48:41Z</time></trkpt><trkpt lat="48.11716115883762" lon="1.3891986000347036"><ele>113.0</ele><time>2026-04-25T15:48:47Z</time></trkpt><trkpt lat="48.11724461876551" lon="1.389140643436172"><ele>113.0</ele><time>2026-04-25T15:48:49Z</time></trkpt><trkpt lat="48.117327169459664" lon="1.3890271982952398"><ele>113.0</ele><time>2026-04-25T15:48:51Z</time></trkpt><trkpt lat="48.11739271974736" lon="1.3889100773107508"><ele>113.0</ele><time>2026-04-25T15:48:53Z</time></trkpt><trkpt lat="48.11766371452619" lon="1.388007893753648"><ele>114.49999999999999</ele><time>2026-04-25T15:49:04Z</time></trkpt><trkpt lat="48.117696843910956" lon="1.3878653448473248"><ele>116.0</ele><time>2026-04-25T15:49:06Z</time></trkpt><trkpt lat="48.11772881749256" lon="1.3877476116587053"><ele>117.5</ele><time>2026-04-25T15:49:08Z</time></trkpt><trkpt lat="48.11776724688356" lon="1.3876278282942698"><ele>119.0</ele><time>2026-04-25T15:49:10Z</time></trkpt><trkpt lat="48.11779190991158" lon="1.3874872399710336"><ele>120.49999999999999</ele><time>2026-04-25T15:49:12Z</time></trkpt><trkpt lat="48.117817805769306" lon="1.3873991015623623"><ele>122.0</ele><time>2026-04-25T15:49:14Z</time></trkpt><trkpt lat="48.11783075121401" lon="1.3872988139240965"><ele>121.99999999999999</ele><time>2026-04-25T15:49:16Z</time></trkpt><trkpt lat="48.11784934004135" lon="1.3871786903986678"><ele>122.0</ele><time>2026-04-25T15:49:18Z</time></trkpt><trkpt lat="48.11786852519402" lon="1.387056253890542"><ele>122.0</ele><time>2026-04-25T15:49:20Z</time></trkpt><trkpt lat="48.117891055671706" lon="1.386935597257928"><ele>122.0</ele><time>2026-04-25T15:49:22Z</time></trkpt><trkpt lat="48.11790431044248" lon="1.386812287157666"><ele>121.99999999999999</ele><time>2026-04-25T15:49:24Z</time></trkpt><trkpt lat="48.1179063297875" lon="1.386681648251309"><ele>122.0</ele><time>2026-04-25T15:49:26Z</time></trkpt><trkpt lat="48.117901907958846" lon="1.3865425235960107"><ele>122.66666666666666</ele><time>2026-04-25T15:49:28Z</time></trkpt><trkpt lat="48.11789786859619" lon="1.3864048526388089"><ele>123.33333333333333</ele><time>2026-04-25T15:49:30Z</time></trkpt><trkpt lat="48.11790656116087" lon="1.3863076246656953"><ele>124.0</ele><time>2026-04-25T15:49:32Z</time></trkpt><trkpt lat="48.117901323085185" lon="1.386188117669371"><ele>124.66666666666666</ele><time>2026-04-25T15:49:34Z</time></trkpt><trkpt lat="48.11789791325972" lon="1.3860729429178105"><ele>125.33333333333333</ele><time>2026-04-25T15:49:36Z</time></trkpt><trkpt lat="48.11789774225793" lon="1.385931527776119"><ele>126.0</ele><time>2026-04-25T15:49:38Z</time></trkpt><trkpt lat="48.11789262154753" lon="1.3857862985025362"><ele>126.4</ele><time>2026-04-25T15:49:40Z</time></trkpt><trkpt lat="48.11788071733188" lon="1.3856389488842233"><ele>126.8</ele><time>2026-04-25T15:49:42Z</time></trkpt><trkpt lat="48.11786533838231" lon="1.3854802192001274"><ele>127.20000000000002</ele><time>2026-04-25T15:49:44Z</time></trkpt><trkpt lat="48.117858174647445" lon="1.3853136754318156"><ele>127.60000000000001</ele><time>2026-04-25T15:49:46Z</time></trkpt><trkpt lat="48.11784747322251" lon="1.3851785900051719"><ele>128.0</ele><time>2026-04-25T15:49:48Z</time></trkpt><trkpt lat="48.11783985704716" lon="1.3850629151256844"><ele>128.5</ele><time>2026-04-25T15:49:50Z</time></trkpt><trkpt lat="48.11782097941658" lon="1.3849513501064827"><ele>129.0</ele><time>2026-04-25T15:49:52Z</time></trkpt><trkpt lat="48.11764963458153" lon="1.3832261425282655"><ele>130.0</ele><time>2026-04-25T15:51:03Z</time></trkpt><trkpt lat="48.117717025350906" lon="1.3832252569325294"><ele>131.0</ele><time>2026-04-25T15:51:42Z</time></trkpt><trkpt lat="48.11840285254058" lon="1.380680801123049"><ele>131.0</ele><time>2026-04-25T15:52:54Z</time></trkpt><trkpt lat="48.118435753376126" lon="1.3805718607563817"><ele>131.0</ele><time>2026-04-25T15:52:56Z</time></trkpt><trkpt lat="48.11848190741213" lon="1.380482827576037"><ele>131.0</ele><time>2026-04-25T15:52:58Z</time></trkpt><trkpt lat="48.118501975138734" lon="1.380368880098316"><ele>131.0</ele><time>2026-04-25T15:53:00Z</time></trkpt><trkpt lat="48.118554798400396" lon="1.3802278777258865"><ele>131.0</ele><time>2026-04-25T15:53:02Z</time></trkpt><trkpt lat="48.11859502404078" lon="1.3801024767305605"><ele>131.0</ele><time>2026-04-25T15:53:04Z</time></trkpt><trkpt lat="48.118645933682835" lon="1.3799638512028385"><ele>131.16666666666666</ele><time>2026-04-25T15:53:06Z</time></trkpt><trkpt lat="48.11869989993559" lon="1.3798021008179442"><ele>131.33333333333331</ele><time>2026-04-25T15:53:08Z</time></trkpt><trkpt lat="48.1187374173419" lon="1.3797217781539026"><ele>131.5</ele><time>2026-04-25T15:53:10Z</time></trkpt><trkpt lat="48.11876560064278" lon="1.3795966802039323"><ele>131.66666666666666</ele><time>2026-04-25T15:53:13Z</time></trkpt><trkpt lat="48.11881228035461" lon="1.3795002796273472"><ele>131.83333333333334</ele><time>2026-04-25T15:53:15Z</time></trkpt><trkpt lat="48.11884963522048" lon="1.3793897565953932"><ele>132.0</ele><time>2026-04-25T15:53:17Z</time></trkpt><trkpt lat="48.118873966435636" lon="1.379271481160982"><ele>132.0</ele><time>2026-04-25T15:53:19Z</time></trkpt><trkpt lat="48.1189085345283" lon="1.3791660259300733"><ele>132.0</ele><time>2026-04-25T15:53:21Z</time></trkpt><trkpt lat="48.11895743901397" lon="1.3790707941220146"><ele>132.0</ele><time>2026-04-25T15:53:23Z</time></trkpt><trkpt lat="48.118985871085314" lon="1.3789505368805872"><ele>132.0</ele><time>2026-04-25T15:53:25Z</time></trkpt><trkpt lat="48.11901738464561" lon="1.3788387542799585"><ele>132.0</ele><time>2026-04-25T15:53:27Z</time></trkpt><trkpt lat="48.119066845439384" lon="1.378745525654714"><ele>132.0</ele><time>2026-04-25T15:53:29Z</time></trkpt><trkpt lat="48.11909059115549" lon="1.3786226553043774"><ele>132.16666666666666</ele><time>2026-04-25T15:53:31Z</time></trkpt><trkpt lat="48.11914202695707" lon="1.3785213935230782"><ele>132.33333333333334</ele><time>2026-04-25T15:53:33Z</time></trkpt><trkpt lat="48.119177998042545" lon="1.3784141560551502"><ele>132.5</ele><time>2026-04-25T15:53:35Z</time></trkpt><trkpt lat="48.11919919228213" lon="1.3782945924367478"><ele>132.66666666666669</ele><time>2026-04-25T15:53:37Z</time></trkpt><trkpt lat="48.119231949151214" lon="1.3781917547188705"><ele>132.83333333333334</ele><time>2026-04-25T15:53:39Z</time></trkpt><trkpt lat="48.11926855464858" lon="1.3780860790438054"><ele>133.0</ele><time>2026-04-25T15:53:41Z</time></trkpt><trkpt lat="48.11930662926615" lon="1.3779758092263437"><ele>133.0</ele><time>2026-04-25T15:53:43Z</time></trkpt><trkpt lat="48.11934767668494" lon="1.377866556351302"><ele>133.0</ele><time>2026-04-25T15:53:45Z</time></trkpt><trkpt lat="48.119386625951165" lon="1.3777626765534674"><ele>133.0</ele><time>2026-04-25T15:53:47Z</time></trkpt><trkpt lat="48.11942334203125" lon="1.3776575823586485"><ele>133.0</ele><time>2026-04-25T15:53:49Z</time></trkpt><trkpt lat="48.119458859291036" lon="1.3775531065484294"><ele>133.0</ele><time>2026-04-25T15:53:51Z</time></trkpt><trkpt lat="48.11949739388695" lon="1.3774531154263736"><ele>133.0</ele><time>2026-04-25T15:53:53Z</time></trkpt><trkpt lat="48.12043070356938" lon="1.373311291020187"><ele>133.0</ele><time>2026-04-25T15:54:54Z</time></trkpt><trkpt lat="48.12045189705479" lon="1.3731804555179443"><ele>133.0</ele><time>2026-04-25T15:54:56Z</time></trkpt><trkpt lat="48.120478574481574" lon="1.373070839543144"><ele>133.0</ele><time>2026-04-25T15:54:58Z</time></trkpt><trkpt lat="48.1204957077848" lon="1.3729521038236574"><ele>133.0</ele><time>2026-04-25T15:55:00Z</time></trkpt><trkpt lat="48.12051928657095" lon="1.3728145268028107"><ele>133.0</ele><time>2026-04-25T15:55:02Z</time></trkpt><trkpt lat="48.12055011781715" lon="1.3726743395571852"><ele>133.0</ele><time>2026-04-25T15:55:04Z</time></trkpt><trkpt lat="48.12057860427586" lon="1.372544789253048"><ele>133.0</ele><time>2026-04-25T15:55:06Z</time></trkpt><trkpt lat="48.12059991505623" lon="1.3724188266612467"><ele>133.0</ele><time>2026-04-25T15:55:08Z</time></trkpt><trkpt lat="48.12063572571842" lon="1.372284130632111"><ele>133.0</ele><time>2026-04-25T15:55:10Z</time></trkpt><trkpt lat="48.120648467669945" lon="1.3721539827270237"><ele>133.0</ele><time>2026-04-25T15:55:12Z</time></trkpt><trkpt lat="48.12068530943829" lon="1.3720356912706844"><ele>133.0</ele><time>2026-04-25T15:55:14Z</time></trkpt><trkpt lat="48.120715003923074" lon="1.3719016714801142"><ele>133.0</ele><time>2026-04-25T15:55:16Z</time></trkpt><trkpt lat="48.12074156662167" lon="1.371788475076905"><ele>133.0</ele><time>2026-04-25T15:55:18Z</time></trkpt><trkpt lat="48.120762725443" lon="1.3716658328608846"><ele>133.0</ele><time>2026-04-25T15:55:20Z</time></trkpt><trkpt lat="48.12079532661829" lon="1.3715147403759869"><ele>133.0</ele><time>2026-04-25T15:55:22Z</time></trkpt><trkpt lat="48.12081559112896" lon="1.3713876805589462"><ele>133.0</ele><time>2026-04-25T15:55:24Z</time></trkpt><trkpt lat="48.12083823383481" lon="1.3712634906555323"><ele>133.0</ele><time>2026-04-25T15:55:26Z</time></trkpt><trkpt lat="48.1208669155495" lon="1.371134629283988"><ele>133.20000000000002</ele><time>2026-04-25T15:55:28Z</time></trkpt><trkpt lat="48.120902250183775" lon="1.3710058179443114"><ele>133.4</ele><time>2026-04-25T15:55:30Z</time></trkpt><trkpt lat="48.12091880655932" lon="1.3708896885054989"><ele>133.60000000000002</ele><time>2026-04-25T15:55:32Z</time></trkpt><trkpt lat="48.120964078741366" lon="1.3707546236139119"><ele>133.8</ele><time>2026-04-25T15:55:34Z</time></trkpt><trkpt lat="48.120980852926884" lon="1.3705877203157006"><ele>134.0</ele><time>2026-04-25T15:55:36Z</time></trkpt><trkpt lat="48.12101443275663" lon="1.370411944372295"><ele>134.0</ele><time>2026-04-25T15:55:38Z</time></trkpt><trkpt lat="48.12103825186858" lon="1.3703197104753522"><ele>134.0</ele><time>2026-04-25T15:55:39Z</time></trkpt><trkpt lat="48.12105714915477" lon="1.3702237436401008"><ele>134.0</ele><time>2026-04-25T15:55:40Z</time></trkpt><trkpt lat="48.12108319700794" lon="1.370125034733273"><ele>134.0</ele><time>2026-04-25T15:55:41Z</time></trkpt><trkpt lat="48.1211095605056" lon="1.3699533546850577"><ele>134.0</ele><time>2026-04-25T15:55:43Z</time></trkpt><trkpt lat="48.12114164375431" lon="1.3697987327858974"><ele>134.0</ele><time>2026-04-25T15:55:45Z</time></trkpt><trkpt lat="48.121154265300376" lon="1.369705484430243"><ele>134.0</ele><time>2026-04-25T15:55:46Z</time></trkpt><trkpt lat="48.12118150090251" lon="1.369549109677691"><ele>134.0</ele><time>2026-04-25T15:55:48Z</time></trkpt><trkpt lat="48.12119642674499" lon="1.3693864641094"><ele>134.0</ele><time>2026-04-25T15:55:50Z</time></trkpt><trkpt lat="48.12120133632885" lon="1.369229573911471"><ele>134.0</ele><time>2026-04-25T15:55:52Z</time></trkpt><trkpt lat="48.12113417501135" lon="1.3683609535922692"><ele>133.6</ele><time>2026-04-25T15:56:04Z</time></trkpt><trkpt lat="48.12112429560251" lon="1.3682553701185967"><ele>133.2</ele><time>2026-04-25T15:56:06Z</time></trkpt><trkpt lat="48.12111221253917" lon="1.3681274176322098"><ele>132.79999999999998</ele><time>2026-04-25T15:56:08Z</time></trkpt><trkpt lat="48.12110171359776" lon="1.3679774108177436"><ele>132.4</ele><time>2026-04-25T15:56:10Z</time></trkpt><trkpt lat="48.12110165397347" lon="1.367828101618406"><ele>132.0</ele><time>2026-04-25T15:56:12Z</time></trkpt><trkpt lat="48.1210744785198" lon="1.367646152220295"><ele>131.85714285714286</ele><time>2026-04-25T15:56:14Z</time></trkpt><trkpt lat="48.12106131499234" lon="1.367550707848962"><ele>131.71428571428572</ele><time>2026-04-25T15:56:15Z</time></trkpt><trkpt lat="48.12104540986051" lon="1.3674495058615375"><ele>131.57142857142858</ele><time>2026-04-25T15:56:16Z</time></trkpt><trkpt lat="48.12103082343459" lon="1.3673408624892711"><ele>131.42857142857144</ele><time>2026-04-25T15:56:17Z</time></trkpt><trkpt lat="48.12102474953569" lon="1.367232855706599"><ele>131.2857142857143</ele><time>2026-04-25T15:56:18Z</time></trkpt><trkpt lat="48.12100974209648" lon="1.3671205644916116"><ele>131.14285714285714</ele><time>2026-04-25T15:56:19Z</time></trkpt><trkpt lat="48.12099924387013" lon="1.3670109605116416"><ele>131.0</ele><time>2026-04-25T15:56:20Z</time></trkpt><trkpt lat="48.12098353677223" lon="1.3669015382207035"><ele>130.66666666666666</ele><time>2026-04-25T15:56:21Z</time></trkpt><trkpt lat="48.12097890163498" lon="1.3668048427620159"><ele>130.33333333333331</ele><time>2026-04-25T15:56:22Z</time></trkpt><trkpt lat="48.12097345180968" lon="1.3666905934854536"><ele>130.0</ele><time>2026-04-25T15:56:23Z</time></trkpt><trkpt lat="48.12096596970446" lon="1.3665783211427243"><ele>129.66666666666666</ele><time>2026-04-25T15:56:24Z</time></trkpt><trkpt lat="48.12095598276193" lon="1.3664615739804045"><ele>129.33333333333334</ele><time>2026-04-25T15:56:25Z</time></trkpt><trkpt lat="48.12094325060641" lon="1.3663485598988134"><ele>129.0</ele><time>2026-04-25T15:56:26Z</time></trkpt><trkpt lat="48.120929382687315" lon="1.366233087233045"><ele>128.83333333333334</ele><time>2026-04-25T15:56:27Z</time></trkpt><trkpt lat="48.120925025034836" lon="1.366122351417586"><ele>128.66666666666666</ele><time>2026-04-25T15:56:28Z</time></trkpt><trkpt lat="48.12091196957432" lon="1.36600813617901"><ele>128.5</ele><time>2026-04-25T15:56:29Z</time></trkpt><trkpt lat="48.120901954630085" lon="1.3659070042749053"><ele>128.33333333333331</ele><time>2026-04-25T15:56:30Z</time></trkpt><trkpt lat="48.1208865378019" lon="1.3657566158877068"><ele>128.16666666666666</ele><time>2026-04-25T15:56:32Z</time></trkpt><trkpt lat="48.12089884364619" lon="1.3656498273755435"><ele>128.0</ele><time>2026-04-25T15:56:34Z</time></trkpt><trkpt lat="48.12095126311155" lon="1.3655797394565332"><ele>128.0</ele><time>2026-04-25T15:56:37Z</time></trkpt><trkpt lat="48.12105139209833" lon="1.3655333149976328"><ele>128.0</ele><time>2026-04-25T15:56:39Z</time></trkpt><trkpt lat="48.12112796028458" lon="1.365476458726163"><ele>128.0</ele><time>2026-04-25T15:56:41Z</time></trkpt><trkpt lat="48.1210612108298" lon="1.3655305410373766"><ele>128.0</ele><time>2026-04-25T15:56:49Z</time></trkpt><trkpt lat="48.12390756081268" lon="1.3657338384447764"><ele>127.4</ele><time>2026-04-25T15:58:54Z</time></trkpt><trkpt lat="48.123989435211854" lon="1.365811957566623"><ele>126.80000000000001</ele><time>2026-04-25T15:58:56Z</time></trkpt><trkpt lat="48.12409048809259" lon="1.3658552003092599"><ele>126.2</ele><time>2026-04-25T15:58:58Z</time></trkpt><trkpt lat="48.1241763331663" lon="1.3658569067125994"><ele>125.6</ele><time>2026-04-25T15:59:00Z</time></trkpt><trkpt lat="48.12427044091186" lon="1.3658464589563029"><ele>125.0</ele><time>2026-04-25T15:59:02Z</time></trkpt><trkpt lat="48.124389197831626" lon="1.3658114705347022"><ele>123.49999999999999</ele><time>2026-04-25T15:59:04Z</time></trkpt><trkpt lat="48.124457105826245" lon="1.3657834481141482"><ele>122.0</ele><time>2026-04-25T15:59:05Z</time></trkpt><trkpt lat="48.12451866163436" lon="1.3657620909414592"><ele>120.5</ele><time>2026-04-25T15:59:06Z</time></trkpt><trkpt lat="48.12464868190287" lon="1.3657202467383187"><ele>119.0</ele><time>2026-04-25T15:59:08Z</time></trkpt><trkpt lat="48.12471496135312" lon="1.3657030141683604"><ele>117.49999999999999</ele><time>2026-04-25T15:59:09Z</time></trkpt><trkpt lat="48.12482031717344" lon="1.3656673013596605"><ele>116.0</ele><time>2026-04-25T15:59:11Z</time></trkpt><trkpt lat="48.124919311032244" lon="1.3656353492387285"><ele>115.4</ele><time>2026-04-25T15:59:13Z</time></trkpt><trkpt lat="48.12498110641098" lon="1.3656157314939283"><ele>114.8</ele><time>2026-04-25T15:59:14Z</time></trkpt><trkpt lat="48.1251151279411" lon="1.3655954294331303"><ele>114.20000000000002</ele><time>2026-04-25T15:59:16Z</time></trkpt><trkpt lat="48.12523870481073" lon="1.3655624649680596"><ele>113.60000000000001</ele><time>2026-04-25T15:59:18Z</time></trkpt><trkpt lat="48.12536126204431" lon="1.365520795654245"><ele>113.0</ele><time>2026-04-25T15:59:20Z</time></trkpt><trkpt lat="48.12549352514164" lon="1.365479604106301"><ele>112.85714285714286</ele><time>2026-04-25T15:59:22Z</time></trkpt><trkpt lat="48.1255718178347" lon="1.3654652125666833"><ele>112.71428571428571</ele><time>2026-04-25T15:59:23Z</time></trkpt><trkpt lat="48.12564572986701" lon="1.3654668050456258"><ele>112.57142857142857</ele><time>2026-04-25T15:59:24Z</time></trkpt><trkpt lat="48.125715254686426" lon="1.365495245369112"><ele>112.42857142857143</ele><time>2026-04-25T15:59:25Z</time></trkpt><trkpt lat="48.125780253137386" lon="1.365530667165776"><ele>112.28571428571428</ele><time>2026-04-25T15:59:26Z</time></trkpt><trkpt lat="48.12584108162323" lon="1.365579024382903"><ele>112.14285714285714</ele><time>2026-04-25T15:59:27Z</time></trkpt><trkpt lat="48.12589760416671" lon="1.3656249067290525"><ele>112.0</ele><time>2026-04-25T15:59:28Z</time></trkpt><trkpt lat="48.12601773935468" lon="1.365648397583786"><ele>112.66666666666667</ele><time>2026-04-25T15:59:30Z</time></trkpt><trkpt lat="48.12608082896751" lon="1.365647465655341"><ele>113.33333333333334</ele><time>2026-04-25T15:59:31Z</time></trkpt><trkpt lat="48.12614548731459" lon="1.3656469392770305"><ele>114.0</ele><time>2026-04-25T15:59:32Z</time></trkpt><trkpt lat="48.1262101515362" lon="1.365651645533627"><ele>114.66666666666666</ele><time>2026-04-25T15:59:33Z</time></trkpt><trkpt lat="48.126277847767106" lon="1.3656621326522567"><ele>115.33333333333333</ele><time>2026-04-25T15:59:34Z</time></trkpt><trkpt lat="48.1263938170111" lon="1.365673617655582"><ele>116.0</ele><time>2026-04-25T15:59:36Z</time></trkpt><trkpt lat="48.1264805170475" lon="1.3656892484314511"><ele>116.0</ele><time>2026-04-25T15:59:38Z</time></trkpt><trkpt lat="48.12654332929952" lon="1.3656968388034885"><ele>116.0</ele><time>2026-04-25T15:59:41Z</time></trkpt><trkpt lat="48.12661506830299" lon="1.3656966791218768"><ele>116.0</ele><time>2026-04-25T15:59:49Z</time></trkpt><trkpt lat="48.12670279226037" lon="1.3656795360360983"><ele>116.0</ele><time>2026-04-25T15:59:52Z</time></trkpt><trkpt lat="48.126816523356844" lon="1.3647983930910368"><ele>110.0</ele><time>2026-04-25T16:00:56Z</time></trkpt><trkpt lat="48.12635535609519" lon="1.3634519634618638"><ele>109.99999999999999</ele><time>2026-04-25T16:03:06Z</time></trkpt><trkpt lat="48.12635477401763" lon="1.3633387950183202"><ele>110.0</ele><time>2026-04-25T16:03:25Z</time></trkpt><trkpt lat="48.12634141403385" lon="1.3632305825286521"><ele>110.0</ele><time>2026-04-25T16:03:29Z</time></trkpt><trkpt lat="48.12633698534976" lon="1.3631295043835958"><ele>110.0</ele><time>2026-04-25T16:03:33Z</time></trkpt><trkpt lat="48.12631956022243" lon="1.3630304192006055"><ele>109.99999999999999</ele><time>2026-04-25T16:03:37Z</time></trkpt><trkpt lat="48.126303350536546" lon="1.362899171480898"><ele>110.0</ele><time>2026-04-25T16:03:39Z</time></trkpt><trkpt lat="48.12627980229817" lon="1.3627449784085888"><ele>110.0</ele><time>2026-04-25T16:03:41Z</time></trkpt><trkpt lat="48.12625897015302" lon="1.3625895937576955"><ele>110.0</ele><time>2026-04-25T16:03:43Z</time></trkpt><trkpt lat="48.12623412910429" lon="1.3624311420398345"><ele>110.0</ele><time>2026-04-25T16:03:45Z</time></trkpt><trkpt lat="48.12623262656491" lon="1.3622412462543814"><ele>110.0</ele><time>2026-04-25T16:03:47Z</time></trkpt><trkpt lat="48.12622817864083" lon="1.3620574190619215"><ele>110.0</ele><time>2026-04-25T16:03:49Z</time></trkpt><trkpt lat="48.12622467069128" lon="1.361884001209787"><ele>110.0</ele><time>2026-04-25T16:03:51Z</time></trkpt><trkpt lat="48.12621264401919" lon="1.3617711404488757"><ele>110.0</ele><time>2026-04-25T16:03:53Z</time></trkpt><trkpt lat="48.12601537066488" lon="1.3608464341266644"><ele>110.14285714285714</ele><time>2026-04-25T16:04:04Z</time></trkpt><trkpt lat="48.12598805010315" lon="1.3607418263867574"><ele>110.28571428571428</ele><time>2026-04-25T16:04:05Z</time></trkpt><trkpt lat="48.125959502914434" lon="1.360638439798877"><ele>110.42857142857142</ele><time>2026-04-25T16:04:06Z</time></trkpt><trkpt lat="48.12592883234358" lon="1.3605363133664172"><ele>110.57142857142857</ele><time>2026-04-25T16:04:07Z</time></trkpt><trkpt lat="48.12589711362011" lon="1.3604370187818424"><ele>110.71428571428572</ele><time>2026-04-25T16:04:08Z</time></trkpt><trkpt lat="48.12587635964734" lon="1.3603287875613812"><ele>110.85714285714285</ele><time>2026-04-25T16:04:09Z</time></trkpt><trkpt lat="48.125833247696626" lon="1.3602424834566031"><ele>111.0</ele><time>2026-04-25T16:04:10Z</time></trkpt><trkpt lat="48.125767632160596" lon="1.3600892192051501"><ele>110.83333333333333</ele><time>2026-04-25T16:04:12Z</time></trkpt><trkpt lat="48.125712491330404" lon="1.3599267410970257"><ele>110.66666666666666</ele><time>2026-04-25T16:04:14Z</time></trkpt><trkpt lat="48.125662440780154" lon="1.3597988861078374"><ele>110.5</ele><time>2026-04-25T16:04:16Z</time></trkpt><trkpt lat="48.125631271405034" lon="1.359695979898655"><ele>110.33333333333333</ele><time>2026-04-25T16:04:18Z</time></trkpt><trkpt lat="48.12559839731514" lon="1.3595969619786217"><ele>110.16666666666666</ele><time>2026-04-25T16:04:27Z</time></trkpt><trkpt lat="48.1255651400221" lon="1.359510419481706"><ele>110.0</ele><time>2026-04-25T16:04:29Z</time></trkpt><trkpt lat="48.125527361803904" lon="1.3593972942000059"><ele>110.0</ele><time>2026-04-25T16:04:31Z</time></trkpt><trkpt lat="48.12548923589489" lon="1.3593200683472835"><ele>110.0</ele><time>2026-04-25T16:04:33Z</time></trkpt><trkpt lat="48.125444007010294" lon="1.3591897229441026"><ele>110.0</ele><time>2026-04-25T16:04:35Z</time></trkpt><trkpt lat="48.12539339824384" lon="1.3590491289037203"><ele>110.0</ele><time>2026-04-25T16:04:37Z</time></trkpt><trkpt lat="48.12532271140928" lon="1.3589011412232874"><ele>110.0</ele><time>2026-04-25T16:04:39Z</time></trkpt><trkpt lat="48.12525249468761" lon="1.3587764250300576"><ele>109.99999999999999</ele><time>2026-04-25T16:04:41Z</time></trkpt><trkpt lat="48.12519064296116" lon="1.3586401777282302"><ele>110.0</ele><time>2026-04-25T16:04:43Z</time></trkpt><trkpt lat="48.12514289926373" lon="1.358530066067204"><ele>110.0</ele><time>2026-04-25T16:04:45Z</time></trkpt><trkpt lat="48.12510014289224" lon="1.358432395219213"><ele>110.0</ele><time>2026-04-25T16:04:47Z</time></trkpt><trkpt lat="48.12505202066396" lon="1.3583185935806943"><ele>109.99999999999999</ele><time>2026-04-25T16:04:49Z</time></trkpt><trkpt lat="48.12501297369533" lon="1.3582443200489789"><ele>110.0</ele><time>2026-04-25T16:04:51Z</time></trkpt><trkpt lat="48.12471944723389" lon="1.357756820640962"><ele>109.99999999999999</ele><time>2026-04-25T16:05:04Z</time></trkpt><trkpt lat="48.12466462213719" lon="1.357674485520294"><ele>110.0</ele><time>2026-04-25T16:05:06Z</time></trkpt><trkpt lat="48.124595773719044" lon="1.3575869519180577"><ele>110.0</ele><time>2026-04-25T16:05:09Z</time></trkpt><trkpt lat="48.124523062394964" lon="1.3575080201981242"><ele>110.0</ele><time>2026-04-25T16:05:12Z</time></trkpt><trkpt lat="48.12444678062344" lon="1.3574275363918473"><ele>109.99999999999999</ele><time>2026-04-25T16:05:14Z</time></trkpt><trkpt lat="48.1243778499473" lon="1.3573367881845548"><ele>110.0</ele><time>2026-04-25T16:05:16Z</time></trkpt><trkpt lat="48.12431923773376" lon="1.3572934834370327"><ele>109.99999999999999</ele><time>2026-04-25T16:05:18Z</time></trkpt><trkpt lat="48.124239340495095" lon="1.3572108465632273"><ele>110.0</ele><time>2026-04-25T16:05:21Z</time></trkpt><trkpt lat="48.124179993465205" lon="1.3571395842291938"><ele>110.0</ele><time>2026-04-25T16:05:23Z</time></trkpt><trkpt lat="48.12409940410947" lon="1.3570799075099778"><ele>110.0</ele><time>2026-04-25T16:05:26Z</time></trkpt><trkpt lat="48.124030166741655" lon="1.3570143933417127"><ele>109.99999999999999</ele><time>2026-04-25T16:05:28Z</time></trkpt><trkpt lat="48.12396501788342" lon="1.3569574859807074"><ele>110.0</ele><time>2026-04-25T16:05:30Z</time></trkpt><trkpt lat="48.12390053178759" lon="1.3568884490156408"><ele>110.16666666666666</ele><time>2026-04-25T16:05:32Z</time></trkpt><trkpt lat="48.12382147391142" lon="1.3568419463873815"><ele>110.33333333333333</ele><time>2026-04-25T16:05:35Z</time></trkpt><trkpt lat="48.12376195494566" lon="1.3567677553499569"><ele>110.5</ele><time>2026-04-25T16:05:37Z</time></trkpt><trkpt lat="48.12369492657805" lon="1.3566916208674455"><ele>110.66666666666666</ele><time>2026-04-25T16:05:39Z</time></trkpt><trkpt lat="48.12362332331772" lon="1.356635661976489"><ele>110.83333333333333</ele><time>2026-04-25T16:05:41Z</time></trkpt><trkpt lat="48.12355836874842" lon="1.3565862767314663"><ele>111.0</ele><time>2026-04-25T16:05:43Z</time></trkpt><trkpt lat="48.12348051139457" lon="1.3565378581586927"><ele>111.0</ele><time>2026-04-25T16:05:46Z</time></trkpt><trkpt lat="48.12342784771272" lon="1.3564814335257689"><ele>111.0</ele><time>2026-04-25T16:05:48Z</time></trkpt><trkpt lat="48.12337046114604" lon="1.3564121463043073"><ele>111.0</ele><time>2026-04-25T16:05:50Z</time></trkpt><trkpt lat="48.12328023200664" lon="1.356319177724817"><ele>111.0</ele><time>2026-04-25T16:05:52Z</time></trkpt><trkpt lat="48.12322035383024" lon="1.3562721649924998"><ele>111.0</ele><time>2026-04-25T16:05:53Z</time></trkpt><trkpt lat="48.12239642491364" lon="1.3556617083834637"><ele>112.19999999999999</ele><time>2026-04-25T16:06:04Z</time></trkpt><trkpt lat="48.12230735116614" lon="1.3556453255042595"><ele>113.39999999999999</ele><time>2026-04-25T16:06:05Z</time></trkpt><trkpt lat="48.122188629266944" lon="1.3556563851963703"><ele>114.6</ele><time>2026-04-25T16:06:07Z</time></trkpt><trkpt lat="48.12207976142029" lon="1.3556552113696558"><ele>115.8</ele><time>2026-04-25T16:06:09Z</time></trkpt><trkpt lat="48.12200789829705" lon="1.3556503068789048"><ele>117.0</ele><time>2026-04-25T16:06:11Z</time></trkpt><trkpt lat="48.12192400842187" lon="1.3556870320278227"><ele>117.0</ele><time>2026-04-25T16:06:14Z</time></trkpt><trkpt lat="48.12183492271581" lon="1.3557118651445743"><ele>117.0</ele><time>2026-04-25T16:06:17Z</time></trkpt><trkpt lat="48.12174796681972" lon="1.355707278164284"><ele>117.0</ele><time>2026-04-25T16:06:19Z</time></trkpt><trkpt lat="48.121674040868356" lon="1.3557129459739947"><ele>117.0</ele><time>2026-04-25T16:06:21Z</time></trkpt><trkpt lat="48.12161195881905" lon="1.3557338955368612"><ele>117.0</ele><time>2026-04-25T16:06:24Z</time></trkpt><trkpt lat="48.121528719829" lon="1.3557358641006532"><ele>117.0</ele><time>2026-04-25T16:06:26Z</time></trkpt><trkpt lat="48.12142070804306" lon="1.3557388337269602"><ele>117.25</ele><time>2026-04-25T16:06:28Z</time></trkpt><trkpt lat="48.12131929450918" lon="1.3557496140931131"><ele>117.5</ele><time>2026-04-25T16:06:30Z</time></trkpt><trkpt lat="48.12122181931928" lon="1.3557263965835564"><ele>117.75</ele><time>2026-04-25T16:06:32Z</time></trkpt><trkpt lat="48.121102977073946" lon="1.3557195068941057"><ele>118.0</ele><time>2026-04-25T16:06:34Z</time></trkpt><trkpt lat="48.12096170439969" lon="1.3556905836797295"><ele>118.00000000000001</ele><time>2026-04-25T16:06:36Z</time></trkpt><trkpt lat="48.120844771357035" lon="1.3556090541706753"><ele>118.0</ele><time>2026-04-25T16:06:38Z</time></trkpt><trkpt lat="48.12077856647908" lon="1.3556059964332543"><ele>118.0</ele><time>2026-04-25T16:06:39Z</time></trkpt><trkpt lat="48.12071839260284" lon="1.3555475510095072"><ele>118.0</ele><time>2026-04-25T16:06:40Z</time></trkpt><trkpt lat="48.120653811474156" lon="1.3555156844867742"><ele>118.00000000000001</ele><time>2026-04-25T16:06:41Z</time></trkpt><trkpt lat="48.12056712111695" lon="1.3554782546874606"><ele>118.0</ele><time>2026-04-25T16:06:42Z</time></trkpt><trkpt lat="48.12048914516833" lon="1.3554345707916404"><ele>118.83333333333334</ele><time>2026-04-25T16:06:43Z</time></trkpt><trkpt lat="48.12040217816332" lon="1.3553906992692113"><ele>119.66666666666667</ele><time>2026-04-25T16:06:44Z</time></trkpt><trkpt lat="48.12032541186691" lon="1.3553307956835035"><ele>120.5</ele><time>2026-04-25T16:06:45Z</time></trkpt><trkpt lat="48.12023500437518" lon="1.3553139356229935"><ele>121.33333333333334</ele><time>2026-04-25T16:06:46Z</time></trkpt><trkpt lat="48.12016053227966" lon="1.355266762919164"><ele>122.16666666666667</ele><time>2026-04-25T16:06:47Z</time></trkpt><trkpt lat="48.12008598587785" lon="1.3552314670718184"><ele>123.0</ele><time>2026-04-25T16:06:48Z</time></trkpt><trkpt lat="48.120000098892326" lon="1.3551942981848801"><ele>123.0</ele><time>2026-04-25T16:06:49Z</time></trkpt><trkpt lat="48.119912815368124" lon="1.355134232806074"><ele>123.00000000000001</ele><time>2026-04-25T16:06:50Z</time></trkpt><trkpt lat="48.119817950743794" lon="1.355096316023169"><ele>123.00000000000001</ele><time>2026-04-25T16:06:51Z</time></trkpt><trkpt lat="48.119730285634304" lon="1.3550593861552527"><ele>123.0</ele><time>2026-04-25T16:06:52Z</time></trkpt><trkpt lat="48.11966240272824" lon="1.354995351530133"><ele>123.0</ele><time>2026-04-25T16:06:53Z</time></trkpt><trkpt lat="48.119251904213726" lon="1.3547294078561605"><ele>122.83333333333333</ele><time>2026-04-25T16:06:58Z</time></trkpt><trkpt lat="48.119181676039446" lon="1.35468015470498"><ele>122.66666666666666</ele><time>2026-04-25T16:06:59Z</time></trkpt><trkpt lat="48.11910523436943" lon="1.3546382262445755"><ele>122.5</ele><time>2026-04-25T16:07:00Z</time></trkpt><trkpt lat="48.119046836069906" lon="1.3545977050689817"><ele>122.33333333333333</ele><time>2026-04-25T16:07:01Z</time></trkpt><trkpt lat="48.118961439067846" lon="1.3545172127783485"><ele>122.16666666666666</ele><time>2026-04-25T16:07:03Z</time></trkpt><trkpt lat="48.11890245754105" lon="1.3544279829041086"><ele>122.0</ele><time>2026-04-25T16:07:05Z</time></trkpt><trkpt lat="48.11884460912281" lon="1.3543851771136826"><ele>121.39999999999999</ele><time>2026-04-25T16:07:10Z</time></trkpt><trkpt lat="48.11876721846502" lon="1.3543015042494622"><ele>120.79999999999998</ele><time>2026-04-25T16:07:14Z</time></trkpt><trkpt lat="48.11868430929465" lon="1.3542664172671726"><ele>120.2</ele><time>2026-04-25T16:07:16Z</time></trkpt><trkpt lat="48.1186144745024" lon="1.3541909271867765"><ele>119.6</ele><time>2026-04-25T16:07:19Z</time></trkpt><trkpt lat="48.11853999641538" lon="1.3541305586074674"><ele>119.0</ele><time>2026-04-25T16:07:21Z</time></trkpt><trkpt lat="48.118416228053185" lon="1.3540500686658377"><ele>119.0</ele><time>2026-04-25T16:07:23Z</time></trkpt><trkpt lat="48.11829312731023" lon="1.3539555457407595"><ele>119.0</ele><time>2026-04-25T16:07:25Z</time></trkpt><trkpt lat="48.118214128408326" lon="1.3538950383717248"><ele>119.0</ele><time>2026-04-25T16:07:26Z</time></trkpt><trkpt lat="48.118158076180436" lon="1.3538431590399231"><ele>119.0</ele><time>2026-04-25T16:07:27Z</time></trkpt><trkpt lat="48.11806373785794" lon="1.3537914282464412"><ele>119.0</ele><time>2026-04-25T16:07:28Z</time></trkpt><trkpt lat="48.118000228599065" lon="1.3537227063377784"><ele>118.6</ele><time>2026-04-25T16:07:29Z</time></trkpt><trkpt lat="48.117920388830086" lon="1.3536480459056948"><ele>118.2</ele><time>2026-04-25T16:07:30Z</time></trkpt><trkpt lat="48.117810631970755" lon="1.3536065123187613"><ele>117.79999999999998</ele><time>2026-04-25T16:07:31Z</time></trkpt><trkpt lat="48.1177229643769" lon="1.3535056409540982"><ele>117.39999999999999</ele><time>2026-04-25T16:07:32Z</time></trkpt><trkpt lat="48.117646890176715" lon="1.353397422038152"><ele>117.0</ele><time>2026-04-25T16:07:33Z</time></trkpt><trkpt lat="48.11756524536104" lon="1.3533179464360199"><ele>117.0</ele><time>2026-04-25T16:07:34Z</time></trkpt><trkpt lat="48.117487315634406" lon="1.3532546361129736"><ele>116.99999999999999</ele><time>2026-04-25T16:07:35Z</time></trkpt><trkpt lat="48.11741468957052" lon="1.353150298007042"><ele>116.99999999999999</ele><time>2026-04-25T16:07:36Z</time></trkpt><trkpt lat="48.11733761138749" lon="1.35305449279677"><ele>117.0</ele><time>2026-04-25T16:07:37Z</time></trkpt><trkpt lat="48.11725733329657" lon="1.3529639456182234"><ele>117.0</ele><time>2026-04-25T16:07:38Z</time></trkpt><trkpt lat="48.117194443539134" lon="1.3528431101219742"><ele>116.39999999999999</ele><time>2026-04-25T16:07:39Z</time></trkpt><trkpt lat="48.11712159905847" lon="1.3527325737886726"><ele>115.79999999999998</ele><time>2026-04-25T16:07:40Z</time></trkpt><trkpt lat="48.11704783102363" lon="1.3526206364405449"><ele>115.2</ele><time>2026-04-25T16:07:41Z</time></trkpt><trkpt lat="48.116976548323876" lon="1.3525124700626419"><ele>114.6</ele><time>2026-04-25T16:07:42Z</time></trkpt><trkpt lat="48.116903388198075" lon="1.3524014548669285"><ele>114.0</ele><time>2026-04-25T16:07:43Z</time></trkpt><trkpt lat="48.11683111505277" lon="1.352291785720538"><ele>113.6</ele><time>2026-04-25T16:07:44Z</time></trkpt><trkpt lat="48.11675772046362" lon="1.3521804147135927"><ele>113.2</ele><time>2026-04-25T16:07:45Z</time></trkpt><trkpt lat="48.11668630851333" lon="1.3520720524116983"><ele>112.79999999999998</ele><time>2026-04-25T16:07:46Z</time></trkpt><trkpt lat="48.11661027939917" lon="1.3519630114044667"><ele>112.39999999999999</ele><time>2026-04-25T16:07:47Z</time></trkpt><trkpt lat="48.11654830833825" lon="1.3518409501465545"><ele>112.0</ele><time>2026-04-25T16:07:48Z</time></trkpt><trkpt lat="48.1164756109589" lon="1.3517383307791546"><ele>112.0</ele><time>2026-04-25T16:07:49Z</time></trkpt><trkpt lat="48.11639819736745" lon="1.3516355488659815"><ele>111.99999999999999</ele><time>2026-04-25T16:07:50Z</time></trkpt><trkpt lat="48.116327063277105" lon="1.3515300060644793"><ele>111.99999999999999</ele><time>2026-04-25T16:07:51Z</time></trkpt><trkpt lat="48.116256328251026" lon="1.3514221775710302"><ele>112.0</ele><time>2026-04-25T16:07:52Z</time></trkpt><trkpt lat="48.11618292746959" lon="1.351309770794077"><ele>112.0</ele><time>2026-04-25T16:07:53Z</time></trkpt><trkpt lat="48.115660311592315" lon="1.3504915001136053"><ele>111.66666666666667</ele><time>2026-04-25T16:08:01Z</time></trkpt><trkpt lat="48.11558670654962" lon="1.3504059860560325"><ele>111.33333333333334</ele><time>2026-04-25T16:08:02Z</time></trkpt><trkpt lat="48.1155319767155" lon="1.350296761862012"><ele>111.0</ele><time>2026-04-25T16:08:03Z</time></trkpt><trkpt lat="48.115472131655736" lon="1.3501943789617008"><ele>110.66666666666666</ele><time>2026-04-25T16:08:04Z</time></trkpt><trkpt lat="48.11541090027701" lon="1.350095632053835"><ele>110.33333333333333</ele><time>2026-04-25T16:08:05Z</time></trkpt><trkpt lat="48.11536137023865" lon="1.3499942270330312"><ele>110.0</ele><time>2026-04-25T16:08:06Z</time></trkpt><trkpt lat="48.11532104842162" lon="1.3499168339704604"><ele>109.99999999999999</ele><time>2026-04-25T16:08:07Z</time></trkpt><trkpt lat="48.115269061197345" lon="1.349835736085341"><ele>110.0</ele><time>2026-04-25T16:08:09Z</time></trkpt><trkpt lat="48.1152125282121" lon="1.3497333816230253"><ele>110.0</ele><time>2026-04-25T16:08:12Z</time></trkpt><trkpt lat="48.11517600371608" lon="1.3496490612633605"><ele>110.0</ele><time>2026-04-25T16:08:15Z</time></trkpt><trkpt lat="48.11513537857067" lon="1.3495732100006999"><ele>110.0</ele><time>2026-04-25T16:08:17Z</time></trkpt><trkpt lat="48.11509288149348" lon="1.3495000394113061"><ele>109.99999999999999</ele><time>2026-04-25T16:08:19Z</time></trkpt><trkpt lat="48.11503224986874" lon="1.3494037026509642"><ele>110.0</ele><time>2026-04-25T16:08:21Z</time></trkpt><trkpt lat="48.114995281863415" lon="1.3493161652536796"><ele>110.0</ele><time>2026-04-25T16:08:23Z</time></trkpt><trkpt lat="48.114950523195986" lon="1.3492155606331038"><ele>110.0</ele><time>2026-04-25T16:08:26Z</time></trkpt><trkpt lat="48.11490488534605" lon="1.3491088214501867"><ele>110.0</ele><time>2026-04-25T16:08:28Z</time></trkpt><trkpt lat="48.11486685599208" lon="1.3490134879479516"><ele>110.0</ele><time>2026-04-25T16:08:30Z</time></trkpt><trkpt lat="48.11482175362066" lon="1.348863784849937"><ele>110.0</ele><time>2026-04-25T16:08:33Z</time></trkpt><trkpt lat="48.11477507157567" lon="1.3487101478057708"><ele>110.33333333333333</ele><time>2026-04-25T16:08:35Z</time></trkpt><trkpt lat="48.11475992215662" lon="1.348609679750371"><ele>110.66666666666666</ele><time>2026-04-25T16:08:36Z</time></trkpt><trkpt lat="48.11475103983399" lon="1.3485076668870462"><ele>111.0</ele><time>2026-04-25T16:08:37Z</time></trkpt><trkpt lat="48.11476036386883" lon="1.348333616434666"><ele>111.33333333333334</ele><time>2026-04-25T16:08:39Z</time></trkpt><trkpt lat="48.11475824758283" lon="1.3481460720851612"><ele>111.66666666666667</ele><time>2026-04-25T16:08:41Z</time></trkpt><trkpt lat="48.11475725397124" lon="1.3480459160729652"><ele>112.0</ele><time>2026-04-25T16:08:42Z</time></trkpt><trkpt lat="48.1147557842468" lon="1.3479383589712084"><ele>112.00000000000001</ele><time>2026-04-25T16:08:43Z</time></trkpt><trkpt lat="48.11473884221121" lon="1.3478236442412572"><ele>112.0</ele><time>2026-04-25T16:08:44Z</time></trkpt><trkpt lat="48.11474977269742" lon="1.3477087055605406"><ele>112.0</ele><time>2026-04-25T16:08:45Z</time></trkpt><trkpt lat="48.11474666918735" lon="1.3475901451397128"><ele>112.0</ele><time>2026-04-25T16:08:46Z</time></trkpt><trkpt lat="48.11474473616903" lon="1.3474654325389068"><ele>112.00000000000001</ele><time>2026-04-25T16:08:47Z</time></trkpt><trkpt lat="48.114728968384085" lon="1.3473423620392382"><ele>112.0</ele><time>2026-04-25T16:08:48Z</time></trkpt><trkpt lat="48.11474933672397" lon="1.3472189333338156"><ele>112.0</ele><time>2026-04-25T16:08:49Z</time></trkpt><trkpt lat="48.114768083262874" lon="1.347098569972547"><ele>111.99999999999999</ele><time>2026-04-25T16:08:50Z</time></trkpt><trkpt lat="48.11480395291591" lon="1.3469764532384474"><ele>111.99999999999999</ele><time>2026-04-25T16:08:51Z</time></trkpt><trkpt lat="48.11484375080661" lon="1.3468539759286466"><ele>112.0</ele><time>2026-04-25T16:08:52Z</time></trkpt><trkpt lat="48.11492601204232" lon="1.3467832884837219"><ele>112.0</ele><time>2026-04-25T16:08:53Z</time></trkpt><trkpt lat="48.11534240752091" lon="1.3454519102010858"><ele>111.19999999999999</ele><time>2026-04-25T16:09:04Z</time></trkpt><trkpt lat="48.115363152740166" lon="1.3453227507510388"><ele>110.39999999999999</ele><time>2026-04-25T16:09:05Z</time></trkpt><trkpt lat="48.11536750183944" lon="1.345187901816215"><ele>109.60000000000001</ele><time>2026-04-25T16:09:06Z</time></trkpt><trkpt lat="48.115383995470225" lon="1.3450549154995735"><ele>108.80000000000001</ele><time>2026-04-25T16:09:07Z</time></trkpt><trkpt lat="48.11541158688105" lon="1.344914964260369"><ele>108.0</ele><time>2026-04-25T16:09:08Z</time></trkpt><trkpt lat="48.11540139210577" lon="1.3447818015946642"><ele>108.2</ele><time>2026-04-25T16:09:09Z</time></trkpt><trkpt lat="48.11540066036208" lon="1.3446406800984239"><ele>108.4</ele><time>2026-04-25T16:09:10Z</time></trkpt><trkpt lat="48.11540811485342" lon="1.3444886908953162"><ele>108.60000000000001</ele><time>2026-04-25T16:09:11Z</time></trkpt><trkpt lat="48.115396975568075" lon="1.344343417476584"><ele>108.80000000000001</ele><time>2026-04-25T16:09:12Z</time></trkpt><trkpt lat="48.11535994598375" lon="1.3442020508830408"><ele>109.0</ele><time>2026-04-25T16:09:13Z</time></trkpt><trkpt lat="48.115348341487156" lon="1.3440527738058254"><ele>109.0</ele><time>2026-04-25T16:09:14Z</time></trkpt><trkpt lat="48.11531586249969" lon="1.343913345796576"><ele>109.0</ele><time>2026-04-25T16:09:15Z</time></trkpt><trkpt lat="48.11526882721196" lon="1.3437832616741123"><ele>109.0</ele><time>2026-04-25T16:09:16Z</time></trkpt><trkpt lat="48.115229263078184" lon="1.3436523644345497"><ele>109.0</ele><time>2026-04-25T16:09:17Z</time></trkpt><trkpt lat="48.11517172318298" lon="1.3435283487852432"><ele>109.0</ele><time>2026-04-25T16:09:18Z</time></trkpt><trkpt lat="48.115117716262894" lon="1.3434120634427713"><ele>109.0</ele><time>2026-04-25T16:09:19Z</time></trkpt><trkpt lat="48.11504701055369" lon="1.3433065551571652"><ele>109.0</ele><time>2026-04-25T16:09:20Z</time></trkpt><trkpt lat="48.114975925664005" lon="1.3431960515179875"><ele>109.0</ele><time>2026-04-25T16:09:21Z</time></trkpt><trkpt lat="48.11490712898514" lon="1.3430934995822243"><ele>109.0</ele><time>2026-04-25T16:09:22Z</time></trkpt><trkpt lat="48.11483283909771" lon="1.342988574519553"><ele>109.0</ele><time>2026-04-25T16:09:23Z</time></trkpt><trkpt lat="48.11475999304799" lon="1.3428855526994603"><ele>109.0</ele><time>2026-04-25T16:09:24Z</time></trkpt><trkpt lat="48.114690155737534" lon="1.3427880872681417"><ele>109.0</ele><time>2026-04-25T16:09:25Z</time></trkpt><trkpt lat="48.11461801452734" lon="1.3426823656942226"><ele>109.0</ele><time>2026-04-25T16:09:26Z</time></trkpt><trkpt lat="48.114543172959614" lon="1.3425819808774393"><ele>109.0</ele><time>2026-04-25T16:09:27Z</time></trkpt><trkpt lat="48.11447412064045" lon="1.3424806615906504"><ele>109.0</ele><time>2026-04-25T16:09:28Z</time></trkpt><trkpt lat="48.11439897055994" lon="1.3423853247503428"><ele>109.00000000000001</ele><time>2026-04-25T16:09:29Z</time></trkpt><trkpt lat="48.11434111931818" lon="1.3423033389914962"><ele>109.0</ele><time>2026-04-25T16:09:30Z</time></trkpt><trkpt lat="48.11428300641127" lon="1.3422254290803415"><ele>109.0</ele><time>2026-04-25T16:09:31Z</time></trkpt><trkpt lat="48.11423493576174" lon="1.3421479329772794"><ele>109.0</ele><time>2026-04-25T16:09:32Z</time></trkpt><trkpt lat="48.11415793752913" lon="1.3420453634154923"><ele>109.00000000000001</ele><time>2026-04-25T16:09:34Z</time></trkpt><trkpt lat="48.114095802432566" lon="1.3419551976779274"><ele>109.0</ele><time>2026-04-25T16:09:36Z</time></trkpt><trkpt lat="48.11403140969535" lon="1.3418045877844138"><ele>109.0</ele><time>2026-04-25T16:09:38Z</time></trkpt><trkpt lat="48.11398285604169" lon="1.3416935926701143"><ele>109.0</ele><time>2026-04-25T16:09:40Z</time></trkpt><trkpt lat="48.11394915951284" lon="1.341592583160582"><ele>109.0</ele><time>2026-04-25T16:09:46Z</time></trkpt><trkpt lat="48.11391935619384" lon="1.3414990524127628"><ele>109.0</ele><time>2026-04-25T16:09:48Z</time></trkpt><trkpt lat="48.11387239347445" lon="1.341350738459767"><ele>109.0</ele><time>2026-04-25T16:09:50Z</time></trkpt><trkpt lat="48.113852391730184" lon="1.3411647389097188"><ele>109.0</ele><time>2026-04-25T16:09:52Z</time></trkpt><trkpt lat="48.11358325947261" lon="1.3396416977347414"><ele>109.00000000000001</ele><time>2026-04-25T16:12:04Z</time></trkpt><trkpt lat="48.11353230299641" lon="1.3395398563553766"><ele>109.0</ele><time>2026-04-25T16:12:07Z</time></trkpt><trkpt lat="48.11346403472628" lon="1.3395150155431843"><ele>109.0</ele><time>2026-04-25T16:12:09Z</time></trkpt><trkpt lat="48.113396513155124" lon="1.3394684693792214"><ele>109.0</ele><time>2026-04-25T16:12:11Z</time></trkpt><trkpt lat="48.1133103847438" lon="1.3394048525470053"><ele>109.00000000000001</ele><time>2026-04-25T16:12:14Z</time></trkpt><trkpt lat="48.1132449299592" lon="1.3393490083840114"><ele>109.0</ele><time>2026-04-25T16:12:18Z</time></trkpt><trkpt lat="48.11349263309138" lon="1.3371929704574617"><ele>109.50000000000001</ele><time>2026-04-25T16:15:04Z</time></trkpt><trkpt lat="48.11350327643421" lon="1.3370795040420844"><ele>110.0</ele><time>2026-04-25T16:15:08Z</time></trkpt><trkpt lat="48.113516275972785" lon="1.3369793098971103"><ele>110.5</ele><time>2026-04-25T16:15:11Z</time></trkpt><trkpt lat="48.11353843437295" lon="1.3368711433181089"><ele>111.0</ele><time>2026-04-25T16:15:13Z</time></trkpt><trkpt lat="48.1135577444888" lon="1.336765767911784"><ele>111.50000000000001</ele><time>2026-04-25T16:15:15Z</time></trkpt><trkpt lat="48.11358212803501" lon="1.336662408988855"><ele>112.0</ele><time>2026-04-25T16:15:17Z</time></trkpt><trkpt lat="48.11361329571358" lon="1.3365431913453365"><ele>112.0</ele><time>2026-04-25T16:15:19Z</time></trkpt><trkpt lat="48.11364497007716" lon="1.336403943435162"><ele>111.99999999999999</ele><time>2026-04-25T16:15:21Z</time></trkpt><trkpt lat="48.11368351062319" lon="1.3362634916588554"><ele>111.99999999999999</ele><time>2026-04-25T16:15:23Z</time></trkpt><trkpt lat="48.11371427367267" lon="1.3361212787656895"><ele>112.0</ele><time>2026-04-25T16:15:25Z</time></trkpt><trkpt lat="48.113748534473366" lon="1.3359744356346033"><ele>112.0</ele><time>2026-04-25T16:15:27Z</time></trkpt><trkpt lat="48.11379348439933" lon="1.3358157175805792"><ele>112.0</ele><time>2026-04-25T16:15:29Z</time></trkpt><trkpt lat="48.11384229374131" lon="1.335663996860299"><ele>111.99999999999999</ele><time>2026-04-25T16:15:31Z</time></trkpt><trkpt lat="48.11387122090078" lon="1.335533117663152"><ele>111.99999999999999</ele><time>2026-04-25T16:15:33Z</time></trkpt><trkpt lat="48.113881108816415" lon="1.3353886481302044"><ele>112.0</ele><time>2026-04-25T16:15:35Z</time></trkpt><trkpt lat="48.11386953559115" lon="1.335227916917582"><ele>112.0</ele><time>2026-04-25T16:15:37Z</time></trkpt><trkpt lat="48.11387489860055" lon="1.335050557227282"><ele>112.00000000000001</ele><time>2026-04-25T16:15:39Z</time></trkpt><trkpt lat="48.11389065572794" lon="1.3348688929686743"><ele>112.0</ele><time>2026-04-25T16:15:41Z</time></trkpt><trkpt lat="48.113895549076744" lon="1.334774827163695"><ele>112.0</ele><time>2026-04-25T16:15:42Z</time></trkpt><trkpt lat="48.113895944638216" lon="1.3346763318359434"><ele>112.0</ele><time>2026-04-25T16:15:43Z</time></trkpt><trkpt lat="48.11390194682102" lon="1.3345806933674007"><ele>112.00000000000001</ele><time>2026-04-25T16:15:44Z</time></trkpt><trkpt lat="48.11391391804306" lon="1.3344098537154094"><ele>112.0</ele><time>2026-04-25T16:15:46Z</time></trkpt><trkpt lat="48.1139118875814" lon="1.3342942440435543"><ele>112.0</ele><time>2026-04-25T16:15:48Z</time></trkpt><trkpt lat="48.113907101225784" lon="1.3341883407473039"><ele>112.0</ele><time>2026-04-25T16:15:50Z</time></trkpt><trkpt lat="48.11443168147925" lon="1.3340251975806638"><ele>112.19999999999999</ele><time>2026-04-25T16:16:04Z</time></trkpt><trkpt lat="48.114472845989106" lon="1.3339372159021021"><ele>112.39999999999999</ele><time>2026-04-25T16:16:06Z</time></trkpt><trkpt lat="48.114440835050004" lon="1.3338125844166788"><ele>112.60000000000001</ele><time>2026-04-25T16:16:08Z</time></trkpt><trkpt lat="48.114400397302454" lon="1.3336753865889004"><ele>112.80000000000001</ele><time>2026-04-25T16:16:10Z</time></trkpt><trkpt lat="48.11438197260089" lon="1.333541951947613"><ele>113.0</ele><time>2026-04-25T16:16:12Z</time></trkpt><trkpt lat="48.114365513570256" lon="1.3333950741848377"><ele>113.16666666666666</ele><time>2026-04-25T16:16:14Z</time></trkpt><trkpt lat="48.11436431874681" lon="1.333280660667884"><ele>113.33333333333333</ele><time>2026-04-25T16:16:16Z</time></trkpt><trkpt lat="48.114354121701886" lon="1.3331629496553898"><ele>113.5</ele><time>2026-04-25T16:16:18Z</time></trkpt><trkpt lat="48.1143547291382" lon="1.3330490656186733"><ele>113.66666666666666</ele><time>2026-04-25T16:16:20Z</time></trkpt><trkpt lat="48.11436569325385" lon="1.3329212932620333"><ele>113.83333333333333</ele><time>2026-04-25T16:16:23Z</time></trkpt><trkpt lat="48.114439477313795" lon="1.3328322733138418"><ele>114.0</ele><time>2026-04-25T16:16:26Z</time></trkpt><trkpt lat="48.11450212704556" lon="1.33278671313039"><ele>114.0</ele><time>2026-04-25T16:16:28Z</time></trkpt><trkpt lat="48.11457527253291" lon="1.332741712235326"><ele>114.0</ele><time>2026-04-25T16:16:31Z</time></trkpt><trkpt lat="48.11516011215681" lon="1.33233327920017"><ele>113.66666666666667</ele><time>2026-04-25T16:17:04Z</time></trkpt><trkpt lat="48.11527544794939" lon="1.3322853894989395"><ele>113.33333333333334</ele><time>2026-04-25T16:17:06Z</time></trkpt><trkpt lat="48.115337221626994" lon="1.3322612783144967"><ele>113.0</ele><time>2026-04-25T16:17:07Z</time></trkpt><trkpt lat="48.11540277714914" lon="1.3322334875572548"><ele>112.66666666666667</ele><time>2026-04-25T16:17:08Z</time></trkpt><trkpt lat="48.11546704193169" lon="1.3322095691320026"><ele>112.33333333333334</ele><time>2026-04-25T16:17:09Z</time></trkpt><trkpt lat="48.11553912131413" lon="1.3321981524444815"><ele>112.0</ele><time>2026-04-25T16:17:10Z</time></trkpt><trkpt lat="48.11560195100987" lon="1.332174621094259"><ele>112.00000000000001</ele><time>2026-04-25T16:17:11Z</time></trkpt><trkpt lat="48.11572806337836" lon="1.3321273887129275"><ele>112.0</ele><time>2026-04-25T16:17:13Z</time></trkpt><trkpt lat="48.11578957403365" lon="1.332104351371193"><ele>112.0</ele><time>2026-04-25T16:17:14Z</time></trkpt><trkpt lat="48.115858979180665" lon="1.3320783573093342"><ele>112.0</ele><time>2026-04-25T16:17:15Z</time></trkpt><trkpt lat="48.11592445729978" lon="1.3320538339244394"><ele>112.00000000000001</ele><time>2026-04-25T16:17:16Z</time></trkpt><trkpt lat="48.115991352538906" lon="1.3320287789581418"><ele>112.0</ele><time>2026-04-25T16:17:17Z</time></trkpt><trkpt lat="48.11605309366321" lon="1.3320038377781922"><ele>112.0</ele><time>2026-04-25T16:17:18Z</time></trkpt><trkpt lat="48.1161241397873" lon="1.3319762478861248"><ele>112.0</ele><time>2026-04-25T16:17:19Z</time></trkpt><trkpt lat="48.11618952771423" lon="1.331950459368724"><ele>112.0</ele><time>2026-04-25T16:17:20Z</time></trkpt><trkpt lat="48.11625268938229" lon="1.3319004511373231"><ele>112.0</ele><time>2026-04-25T16:17:21Z</time></trkpt><trkpt lat="48.11631730197797" lon="1.3318731735504539"><ele>112.0</ele><time>2026-04-25T16:17:22Z</time></trkpt><trkpt lat="48.1163811540075" lon="1.3318477108542786"><ele>112.0</ele><time>2026-04-25T16:17:23Z</time></trkpt><trkpt lat="48.116454343921504" lon="1.3318436135544744"><ele>112.0</ele><time>2026-04-25T16:17:24Z</time></trkpt><trkpt lat="48.11651806712953" lon="1.3317949803856255"><ele>112.0</ele><time>2026-04-25T16:17:25Z</time></trkpt><trkpt lat="48.11658523036017" lon="1.3317700453743968"><ele>112.0</ele><time>2026-04-25T16:17:26Z</time></trkpt><trkpt lat="48.116653321465414" lon="1.3317477226007397"><ele>112.0</ele><time>2026-04-25T16:17:27Z</time></trkpt><trkpt lat="48.116721395222484" lon="1.331725027057472"><ele>112.0</ele><time>2026-04-25T16:17:28Z</time></trkpt><trkpt lat="48.11678958623111" lon="1.3316957154263265"><ele>112.0</ele><time>2026-04-25T16:17:29Z</time></trkpt><trkpt lat="48.11685392317633" lon="1.3316702474498963"><ele>112.0</ele><time>2026-04-25T16:17:30Z</time></trkpt><trkpt lat="48.116920686167106" lon="1.3316472114961995"><ele>112.0</ele><time>2026-04-25T16:17:31Z</time></trkpt><trkpt lat="48.11698753842769" lon="1.3316285567224584"><ele>112.0</ele><time>2026-04-25T16:17:32Z</time></trkpt><trkpt lat="48.117053183991956" lon="1.3316020072920667"><ele>112.0</ele><time>2026-04-25T16:17:33Z</time></trkpt><trkpt lat="48.11711908513143" lon="1.3315751011420547"><ele>112.0</ele><time>2026-04-25T16:17:34Z</time></trkpt><trkpt lat="48.117183795462694" lon="1.331553057862709"><ele>112.0</ele><time>2026-04-25T16:17:35Z</time></trkpt><trkpt lat="48.11724771284663" lon="1.3315277853803045"><ele>112.0</ele><time>2026-04-25T16:17:36Z</time></trkpt><trkpt lat="48.11730822912386" lon="1.3314865421539168"><ele>112.0</ele><time>2026-04-25T16:17:37Z</time></trkpt><trkpt lat="48.11737327908032" lon="1.3314540081149602"><ele>112.0</ele><time>2026-04-25T16:17:38Z</time></trkpt><trkpt lat="48.11743429855666" lon="1.3314128284050368"><ele>112.5</ele><time>2026-04-25T16:17:39Z</time></trkpt><trkpt lat="48.117537441559456" lon="1.3313364487776178"><ele>113.0</ele><time>2026-04-25T16:17:41Z</time></trkpt><trkpt lat="48.117649703440584" lon="1.3312677557299832"><ele>113.5</ele><time>2026-04-25T16:17:43Z</time></trkpt><trkpt lat="48.11775587023959" lon="1.3311916844435"><ele>114.0</ele><time>2026-04-25T16:17:45Z</time></trkpt><trkpt lat="48.11785511026794" lon="1.331124416867439"><ele>114.0</ele><time>2026-04-25T16:17:47Z</time></trkpt><trkpt lat="48.11794419772254" lon="1.3310468327167921"><ele>114.0</ele><time>2026-04-25T16:17:49Z</time></trkpt><trkpt lat="48.11799549466715" lon="1.3309312517013945"><ele>114.0</ele><time>2026-04-25T16:17:51Z</time></trkpt><trkpt lat="48.11798181960661" lon="1.3307757743878872"><ele>114.0</ele><time>2026-04-25T16:17:53Z</time></trkpt><trkpt lat="48.117461321428245" lon="1.3304865363179452"><ele>113.6</ele><time>2026-04-25T16:18:04Z</time></trkpt><trkpt lat="48.11734078250766" lon="1.3304840325375045"><ele>113.2</ele><time>2026-04-25T16:18:06Z</time></trkpt><trkpt lat="48.11721653680231" lon="1.3304834214591872"><ele>112.79999999999998</ele><time>2026-04-25T16:18:08Z</time></trkpt><trkpt lat="48.117145257473894" lon="1.3304769524999718"><ele>112.39999999999999</ele><time>2026-04-25T16:18:09Z</time></trkpt><trkpt lat="48.11707427349204" lon="1.3304724687629974"><ele>112.0</ele><time>2026-04-25T16:18:10Z</time></trkpt><trkpt lat="48.11700062999674" lon="1.3304708734876725"><ele>112.0</ele><time>2026-04-25T16:18:11Z</time></trkpt><trkpt lat="48.1169317332976" lon="1.3304722718321422"><ele>111.99999999999999</ele><time>2026-04-25T16:18:12Z</time></trkpt><trkpt lat="48.11686212930928" lon="1.3304681608655287"><ele>111.99999999999999</ele><time>2026-04-25T16:18:13Z</time></trkpt><trkpt lat="48.116743267555094" lon="1.3304562876388666"><ele>112.0</ele><time>2026-04-25T16:18:15Z</time></trkpt><trkpt lat="48.11663752731305" lon="1.3304572980541787"><ele>112.0</ele><time>2026-04-25T16:18:17Z</time></trkpt><trkpt lat="48.116548378919035" lon="1.3304606774610679"><ele>112.00000000000001</ele><time>2026-04-25T16:18:19Z</time></trkpt><trkpt lat="48.1164638823136" lon="1.3304690171140436"><ele>112.0</ele><time>2026-04-25T16:18:21Z</time></trkpt><trkpt lat="48.116394770838404" lon="1.3304388633066686"><ele>112.0</ele><time>2026-04-25T16:18:23Z</time></trkpt><trkpt lat="48.11638456843627" lon="1.3303104899350062"><ele>112.0</ele><time>2026-04-25T16:18:27Z</time></trkpt><trkpt lat="48.116359863910475" lon="1.3302072278844237"><ele>112.00000000000001</ele><time>2026-04-25T16:18:29Z</time></trkpt><trkpt lat="48.11624658316141" lon="1.3301609753015144"><ele>112.0</ele><time>2026-04-25T16:18:31Z</time></trkpt><trkpt lat="48.11617727860756" lon="1.3301758647588484"><ele>112.00000000000001</ele><time>2026-04-25T16:18:32Z</time></trkpt><trkpt lat="48.1161123237007" lon="1.330188950180521"><ele>112.0</ele><time>2026-04-25T16:18:33Z</time></trkpt><trkpt lat="48.11603847172905" lon="1.3302004016444184"><ele>112.0</ele><time>2026-04-25T16:18:34Z</time></trkpt><trkpt lat="48.115961612510986" lon="1.330204894455416"><ele>112.0</ele><time>2026-04-25T16:18:35Z</time></trkpt><trkpt lat="48.11587871530833" lon="1.3302054523149422"><ele>112.00000000000001</ele><time>2026-04-25T16:18:36Z</time></trkpt><trkpt lat="48.11579009379683" lon="1.3302088891345862"><ele>112.0</ele><time>2026-04-25T16:18:37Z</time></trkpt><trkpt lat="48.11570014457672" lon="1.330212362064803"><ele>111.8</ele><time>2026-04-25T16:18:38Z</time></trkpt><trkpt lat="48.115606338957754" lon="1.3302128469433894"><ele>111.6</ele><time>2026-04-25T16:18:39Z</time></trkpt><trkpt lat="48.115512108586096" lon="1.3302054309242028"><ele>111.39999999999999</ele><time>2026-04-25T16:18:40Z</time></trkpt><trkpt lat="48.11541766310791" lon="1.3301984599683359"><ele>111.19999999999999</ele><time>2026-04-25T16:18:41Z</time></trkpt><trkpt lat="48.11532452394128" lon="1.3301921770318856"><ele>111.0</ele><time>2026-04-25T16:18:42Z</time></trkpt><trkpt lat="48.115233973497325" lon="1.3301882763139945"><ele>111.0</ele><time>2026-04-25T16:18:43Z</time></trkpt><trkpt lat="48.11513985725298" lon="1.330192147705146"><ele>111.0</ele><time>2026-04-25T16:18:44Z</time></trkpt><trkpt lat="48.11504886000247" lon="1.3301880068851317"><ele>111.0</ele><time>2026-04-25T16:18:45Z</time></trkpt><trkpt lat="48.11496998043513" lon="1.3301758911353083"><ele>111.0</ele><time>2026-04-25T16:18:46Z</time></trkpt><trkpt lat="48.11485760856075" lon="1.33017164638684"><ele>111.0</ele><time>2026-04-25T16:18:48Z</time></trkpt><trkpt lat="48.114774096466135" lon="1.3301643929634264"><ele>111.0</ele><time>2026-04-25T16:18:50Z</time></trkpt><trkpt lat="48.114697125972015" lon="1.3301385788607916"><ele>111.0</ele><time>2026-04-25T16:18:52Z</time></trkpt><trkpt lat="48.114138681789505" lon="1.3301283299086566"><ele>111.0</ele><time>2026-04-25T16:19:04Z</time></trkpt><trkpt lat="48.11406009871055" lon="1.3301345971563647"><ele>111.0</ele><time>2026-04-25T16:19:05Z</time></trkpt><trkpt lat="48.11397744966806" lon="1.3301422787497608"><ele>111.0</ele><time>2026-04-25T16:19:06Z</time></trkpt><trkpt lat="48.113894756175995" lon="1.330140886564164"><ele>111.0</ele><time>2026-04-25T16:19:07Z</time></trkpt><trkpt lat="48.1138058445517" lon="1.330146202676908"><ele>111.0</ele><time>2026-04-25T16:19:08Z</time></trkpt><trkpt lat="48.11370874372422" lon="1.3301481332351928"><ele>111.0</ele><time>2026-04-25T16:19:09Z</time></trkpt><trkpt lat="48.1136123104065" lon="1.3301419307674964"><ele>111.0</ele><time>2026-04-25T16:19:10Z</time></trkpt><trkpt lat="48.11350815269447" lon="1.3301232204934674"><ele>111.0</ele><time>2026-04-25T16:19:11Z</time></trkpt><trkpt lat="48.11341977289899" lon="1.330106869495258"><ele>111.0</ele><time>2026-04-25T16:19:12Z</time></trkpt><trkpt lat="48.11334011429849" lon="1.33010075172794"><ele>111.0</ele><time>2026-04-25T16:19:13Z</time></trkpt><trkpt lat="48.11326427667397" lon="1.3301003559477633"><ele>111.0</ele><time>2026-04-25T16:19:14Z</time></trkpt><trkpt lat="48.113183357408964" lon="1.33009171583809"><ele>111.0</ele><time>2026-04-25T16:19:15Z</time></trkpt><trkpt lat="48.113108264844165" lon="1.3300886524808317"><ele>110.6</ele><time>2026-04-25T16:19:16Z</time></trkpt><trkpt lat="48.11299293445431" lon="1.3300910475424237"><ele>110.19999999999999</ele><time>2026-04-25T16:19:18Z</time></trkpt><trkpt lat="48.11290307134015" lon="1.330085184573899"><ele>109.80000000000001</ele><time>2026-04-25T16:19:20Z</time></trkpt><trkpt lat="48.11286123936763" lon="1.329914497828162"><ele>109.4</ele><time>2026-04-25T16:19:23Z</time></trkpt><trkpt lat="48.11283928285774" lon="1.3297577097146172"><ele>109.0</ele><time>2026-04-25T16:19:25Z</time></trkpt><trkpt lat="48.11281376241653" lon="1.3295852398609382"><ele>108.80000000000001</ele><time>2026-04-25T16:19:27Z</time></trkpt><trkpt lat="48.11278021971402" lon="1.3294142004745928"><ele>108.60000000000001</ele><time>2026-04-25T16:19:29Z</time></trkpt><trkpt lat="48.112748315997784" lon="1.3293320750606081"><ele>108.4</ele><time>2026-04-25T16:19:30Z</time></trkpt><trkpt lat="48.11268958947536" lon="1.3292154269397802"><ele>108.2</ele><time>2026-04-25T16:19:32Z</time></trkpt><trkpt lat="48.11262143584172" lon="1.3290749768454597"><ele>108.0</ele><time>2026-04-25T16:19:34Z</time></trkpt><trkpt lat="48.11257801782929" lon="1.3290034225296607"><ele>108.0</ele><time>2026-04-25T16:19:35Z</time></trkpt><trkpt lat="48.11253055850505" lon="1.3289244077269462"><ele>108.0</ele><time>2026-04-25T16:19:36Z</time></trkpt><trkpt lat="48.11247940353157" lon="1.328856534699286"><ele>108.0</ele><time>2026-04-25T16:19:37Z</time></trkpt><trkpt lat="48.11242858843326" lon="1.328782941709891"><ele>108.0</ele><time>2026-04-25T16:19:38Z</time></trkpt><trkpt lat="48.11237915915997" lon="1.3287143558410845"><ele>108.0</ele><time>2026-04-25T16:19:39Z</time></trkpt><trkpt lat="48.11230416593718" lon="1.3285942693285748"><ele>108.0</ele><time>2026-04-25T16:19:41Z</time></trkpt><trkpt lat="48.11225307308488" lon="1.3284702085045594"><ele>108.2</ele><time>2026-04-25T16:19:43Z</time></trkpt><trkpt lat="48.1122226578357" lon="1.3283270654772887"><ele>108.4</ele><time>2026-04-25T16:19:45Z</time></trkpt><trkpt lat="48.11218840820664" lon="1.328176505279803"><ele>108.60000000000001</ele><time>2026-04-25T16:19:47Z</time></trkpt><trkpt lat="48.112164636447" lon="1.3280813723554883"><ele>108.80000000000001</ele><time>2026-04-25T16:19:48Z</time></trkpt><trkpt lat="48.11212466423987" lon="1.3279165662223282"><ele>109.0</ele><time>2026-04-25T16:19:50Z</time></trkpt><trkpt lat="48.112104688966916" lon="1.3277220526297377"><ele>108.0</ele><time>2026-04-25T16:19:52Z</time></trkpt><trkpt lat="48.1119501133488" lon="1.326724986235866"><ele>108.0</ele><time>2026-04-25T16:20:04Z</time></trkpt><trkpt lat="48.111915357707936" lon="1.3266069819709092"><ele>108.00000000000001</ele><time>2026-04-25T16:20:06Z</time></trkpt><trkpt lat="48.11189088218393" lon="1.3264806837790684"><ele>108.00000000000001</ele><time>2026-04-25T16:20:09Z</time></trkpt><trkpt lat="48.111875737571076" lon="1.3263534947178348"><ele>108.0</ele><time>2026-04-25T16:20:11Z</time></trkpt><trkpt lat="48.111871384848975" lon="1.3262051048106267"><ele>108.0</ele><time>2026-04-25T16:20:13Z</time></trkpt><trkpt lat="48.11185259056009" lon="1.3260547274466838"><ele>108.2</ele><time>2026-04-25T16:20:15Z</time></trkpt><trkpt lat="48.111857023772046" lon="1.3258918147779442"><ele>108.4</ele><time>2026-04-25T16:20:17Z</time></trkpt><trkpt lat="48.11182736233703" lon="1.3257275610855852"><ele>108.60000000000001</ele><time>2026-04-25T16:20:19Z</time></trkpt><trkpt lat="48.11183745591668" lon="1.325567029744244"><ele>108.80000000000001</ele><time>2026-04-25T16:20:21Z</time></trkpt><trkpt lat="48.111836873453704" lon="1.3254628467255736"><ele>109.0</ele><time>2026-04-25T16:20:22Z</time></trkpt><trkpt lat="48.1118215914357" lon="1.3253667036225272"><ele>109.14285714285714</ele><time>2026-04-25T16:20:23Z</time></trkpt><trkpt lat="48.11182763151044" lon="1.3252684285947318"><ele>109.28571428571429</ele><time>2026-04-25T16:20:24Z</time></trkpt><trkpt lat="48.11183856941412" lon="1.325161917151671"><ele>109.42857142857142</ele><time>2026-04-25T16:20:25Z</time></trkpt><trkpt lat="48.111838062934865" lon="1.3250517067447127"><ele>109.57142857142857</ele><time>2026-04-25T16:20:26Z</time></trkpt><trkpt lat="48.111841352193395" lon="1.3249447427353205"><ele>109.71428571428571</ele><time>2026-04-25T16:20:27Z</time></trkpt><trkpt lat="48.1118406703794" lon="1.324837197170836"><ele>109.85714285714285</ele><time>2026-04-25T16:20:28Z</time></trkpt><trkpt lat="48.11184534013061" lon="1.324733766629986"><ele>110.0</ele><time>2026-04-25T16:20:29Z</time></trkpt><trkpt lat="48.11184852694191" lon="1.3246325116455866"><ele>109.99999999999999</ele><time>2026-04-25T16:20:30Z</time></trkpt><trkpt lat="48.11186061489223" lon="1.3245311687171848"><ele>110.0</ele><time>2026-04-25T16:20:31Z</time></trkpt><trkpt lat="48.11185701910521" lon="1.3244241059625848"><ele>110.0</ele><time>2026-04-25T16:20:32Z</time></trkpt><trkpt lat="48.11185851327474" lon="1.324315728004706"><ele>110.0</ele><time>2026-04-25T16:20:33Z</time></trkpt><trkpt lat="48.11186228646945" lon="1.324210862664136"><ele>110.0</ele><time>2026-04-25T16:20:34Z</time></trkpt><trkpt lat="48.11186850446353" lon="1.3241072076946507"><ele>109.99999999999999</ele><time>2026-04-25T16:20:35Z</time></trkpt><trkpt lat="48.11186914237998" lon="1.324002295551099"><ele>110.0</ele><time>2026-04-25T16:20:36Z</time></trkpt><trkpt lat="48.11185964548017" lon="1.3238953704497018"><ele>109.71428571428571</ele><time>2026-04-25T16:20:37Z</time></trkpt><trkpt lat="48.11186280519284" lon="1.3237927673368906"><ele>109.42857142857143</ele><time>2026-04-25T16:20:38Z</time></trkpt><trkpt lat="48.11186506940333" lon="1.3236920012953233"><ele>109.14285714285714</ele><time>2026-04-25T16:20:39Z</time></trkpt><trkpt lat="48.1118671505356" lon="1.3235892240489842"><ele>108.85714285714286</ele><time>2026-04-25T16:20:40Z</time></trkpt><trkpt lat="48.11187407947732" lon="1.3234785885035252"><ele>108.57142857142857</ele><time>2026-04-25T16:20:41Z</time></trkpt><trkpt lat="48.111877185476736" lon="1.323370743298119"><ele>108.28571428571428</ele><time>2026-04-25T16:20:42Z</time></trkpt><trkpt lat="48.111893529501394" lon="1.3232762382966368"><ele>108.0</ele><time>2026-04-25T16:20:43Z</time></trkpt><trkpt lat="48.111902041326935" lon="1.3231783685049656"><ele>108.0</ele><time>2026-04-25T16:20:44Z</time></trkpt><trkpt lat="48.11190190049474" lon="1.3230715914783528"><ele>108.00000000000001</ele><time>2026-04-25T16:20:45Z</time></trkpt><trkpt lat="48.111923715432695" lon="1.322969116581766"><ele>108.00000000000001</ele><time>2026-04-25T16:20:46Z</time></trkpt><trkpt lat="48.11194574398986" lon="1.3227847380447064"><ele>108.0</ele><time>2026-04-25T16:20:48Z</time></trkpt><trkpt lat="48.11193947929179" lon="1.3226874102053414"><ele>108.0</ele><time>2026-04-25T16:20:49Z</time></trkpt><trkpt lat="48.111965386882225" lon="1.3225063316182604"><ele>107.5</ele><time>2026-04-25T16:20:51Z</time></trkpt><trkpt lat="48.1119669375193" lon="1.3223437577779413"><ele>107.0</ele><time>2026-04-25T16:20:53Z</time></trkpt><trkpt lat="48.11190807830862" lon="1.3216283864869216"><ele>106.99999999999999</ele><time>2026-04-25T16:21:04Z</time></trkpt><trkpt lat="48.111885703107404" lon="1.3214950526731757"><ele>107.0</ele><time>2026-04-25T16:21:06Z</time></trkpt><trkpt lat="48.11186539705902" lon="1.3213760366001814"><ele>107.0</ele><time>2026-04-25T16:21:08Z</time></trkpt><trkpt lat="48.11184589621784" lon="1.3212716198076384"><ele>107.0</ele><time>2026-04-25T16:21:10Z</time></trkpt><trkpt lat="48.111820358025845" lon="1.3211658802528592"><ele>106.99999999999999</ele><time>2026-04-25T16:21:12Z</time></trkpt><trkpt lat="48.1117939840711" lon="1.3210369349841409"><ele>107.0</ele><time>2026-04-25T16:21:14Z</time></trkpt><trkpt lat="48.111762204154594" lon="1.3209110104766923"><ele>106.99999999999999</ele><time>2026-04-25T16:21:16Z</time></trkpt><trkpt lat="48.111718518961034" lon="1.3207498708600072"><ele>107.0</ele><time>2026-04-25T16:21:18Z</time></trkpt><trkpt lat="48.11169291082583" lon="1.32056543102029"><ele>107.0</ele><time>2026-04-25T16:21:20Z</time></trkpt><trkpt lat="48.111671184978746" lon="1.320472779721986"><ele>107.0</ele><time>2026-04-25T16:21:21Z</time></trkpt><trkpt lat="48.111647517388946" lon="1.3203771071938948"><ele>106.99999999999999</ele><time>2026-04-25T16:21:22Z</time></trkpt><trkpt lat="48.111622430912256" lon="1.3202796145232778"><ele>107.0</ele><time>2026-04-25T16:21:23Z</time></trkpt><trkpt lat="48.11159410045748" lon="1.3201764099014763"><ele>107.00000000000001</ele><time>2026-04-25T16:21:24Z</time></trkpt><trkpt lat="48.111564765810925" lon="1.3200769281423532"><ele>107.0</ele><time>2026-04-25T16:21:25Z</time></trkpt><trkpt lat="48.11153486385922" lon="1.3199810909765188"><ele>107.0</ele><time>2026-04-25T16:21:26Z</time></trkpt><trkpt lat="48.111503231835464" lon="1.31988374465036"><ele>107.0</ele><time>2026-04-25T16:21:27Z</time></trkpt><trkpt lat="48.11146929586178" lon="1.3197868612811"><ele>107.0</ele><time>2026-04-25T16:21:28Z</time></trkpt><trkpt lat="48.11143302677373" lon="1.319692383826187"><ele>107.00000000000001</ele><time>2026-04-25T16:21:29Z</time></trkpt><trkpt lat="48.11137739116928" lon="1.3196170897810717"><ele>107.0</ele><time>2026-04-25T16:21:30Z</time></trkpt><trkpt lat="48.111334448788206" lon="1.3195320670496984"><ele>106.99999999999999</ele><time>2026-04-25T16:21:31Z</time></trkpt><trkpt lat="48.11129489894895" lon="1.3194362741587302"><ele>107.0</ele><time>2026-04-25T16:21:32Z</time></trkpt><trkpt lat="48.1112365846178" lon="1.3193396294275224"><ele>107.0</ele><time>2026-04-25T16:21:33Z</time></trkpt><trkpt lat="48.11117687716914" lon="1.319256387745901"><ele>107.0</ele><time>2026-04-25T16:21:34Z</time></trkpt><trkpt lat="48.11108223694091" lon="1.3191327964181547"><ele>106.99999999999999</ele><time>2026-04-25T16:21:36Z</time></trkpt><trkpt lat="48.111030599292405" lon="1.3190678507617912"><ele>107.0</ele><time>2026-04-25T16:21:37Z</time></trkpt><trkpt lat="48.110978788323635" lon="1.3190039944362906"><ele>107.00000000000001</ele><time>2026-04-25T16:21:38Z</time></trkpt><trkpt lat="48.11092397342896" lon="1.3189383283250729"><ele>107.0</ele><time>2026-04-25T16:21:39Z</time></trkpt><trkpt lat="48.11087034515545" lon="1.3188756075506505"><ele>107.0</ele><time>2026-04-25T16:21:40Z</time></trkpt><trkpt lat="48.11081210256279" lon="1.3188074894600272"><ele>107.0</ele><time>2026-04-25T16:21:41Z</time></trkpt><trkpt lat="48.1107567055661" lon="1.3187411631542567"><ele>107.0</ele><time>2026-04-25T16:21:42Z</time></trkpt><trkpt lat="48.110703889314394" lon="1.318676408864559"><ele>107.00000000000001</ele><time>2026-04-25T16:21:43Z</time></trkpt><trkpt lat="48.11064765381395" lon="1.3186087965081288"><ele>107.0</ele><time>2026-04-25T16:21:44Z</time></trkpt><trkpt lat="48.11059335897126" lon="1.3185454418149156"><ele>107.42857142857143</ele><time>2026-04-25T16:21:45Z</time></trkpt><trkpt lat="48.11053989918722" lon="1.318478722751549"><ele>107.85714285714286</ele><time>2026-04-25T16:21:46Z</time></trkpt><trkpt lat="48.11047725374391" lon="1.3184237757999837"><ele>108.28571428571428</ele><time>2026-04-25T16:21:47Z</time></trkpt><trkpt lat="48.1104320057555" lon="1.318352711172422"><ele>108.71428571428572</ele><time>2026-04-25T16:21:48Z</time></trkpt><trkpt lat="48.11039734647583" lon="1.3182550422924162"><ele>109.14285714285714</ele><time>2026-04-25T16:21:49Z</time></trkpt><trkpt lat="48.1103594468805" lon="1.31817438558711"><ele>109.57142857142857</ele><time>2026-04-25T16:21:50Z</time></trkpt><trkpt lat="48.11032773411061" lon="1.3180769184401289"><ele>110.0</ele><time>2026-04-25T16:21:51Z</time></trkpt><trkpt lat="48.110289984922865" lon="1.3179873751724298"><ele>115.5</ele><time>2026-04-25T16:21:52Z</time></trkpt><trkpt lat="48.11026798504898" lon="1.3178871943878605"><ele>121.0</ele><time>2026-04-25T16:21:53Z</time></trkpt><trkpt lat="48.10964134640985" lon="1.3172308552664236"><ele>121.0</ele><time>2026-04-25T16:22:04Z</time></trkpt><trkpt lat="48.10958129206404" lon="1.317189236741851"><ele>120.99999999999999</ele><time>2026-04-25T16:22:05Z</time></trkpt><trkpt lat="48.10951528285966" lon="1.3171495539391833"><ele>121.0</ele><time>2026-04-25T16:22:06Z</time></trkpt><trkpt lat="48.10945953355092" lon="1.3170996840990212"><ele>121.0</ele><time>2026-04-25T16:22:07Z</time></trkpt><trkpt lat="48.1093944121972" lon="1.3170507711128425"><ele>120.99999999999999</ele><time>2026-04-25T16:22:08Z</time></trkpt><trkpt lat="48.10932916280966" lon="1.3170049023512798"><ele>121.0</ele><time>2026-04-25T16:22:09Z</time></trkpt><trkpt lat="48.109264465313885" lon="1.3169591872740438"><ele>121.0</ele><time>2026-04-25T16:22:10Z</time></trkpt><trkpt lat="48.10920561710473" lon="1.3169175448215469"><ele>121.0</ele><time>2026-04-25T16:22:11Z</time></trkpt><trkpt lat="48.10913634387392" lon="1.3168926150094524"><ele>120.99999999999999</ele><time>2026-04-25T16:22:12Z</time></trkpt><trkpt lat="48.109071167460215" lon="1.316819734130467"><ele>121.0</ele><time>2026-04-25T16:22:13Z</time></trkpt><trkpt lat="48.10900232430292" lon="1.3167905857753806"><ele>121.0</ele><time>2026-04-25T16:22:14Z</time></trkpt><trkpt lat="48.10894522856277" lon="1.3167217154692465"><ele>120.99999999999999</ele><time>2026-04-25T16:22:15Z</time></trkpt><trkpt lat="48.10888268042248" lon="1.316672385864258"><ele>121.0</ele><time>2026-04-25T16:22:16Z</time></trkpt><trkpt lat="48.108812457278034" lon="1.3166170031930156"><ele>121.0</ele><time>2026-04-25T16:22:17Z</time></trkpt><trkpt lat="48.10871357107306" lon="1.3165365633809405"><ele>122.19999999999999</ele><time>2026-04-25T16:22:19Z</time></trkpt><trkpt lat="48.10862227935244" lon="1.316471296398241"><ele>123.39999999999999</ele><time>2026-04-25T16:22:21Z</time></trkpt><trkpt lat="48.108576694796284" lon="1.3163906727617778"><ele>124.6</ele><time>2026-04-25T16:22:25Z</time></trkpt><trkpt lat="48.108693681233945" lon="1.3161647682116244"><ele>125.8</ele><time>2026-04-25T16:22:26Z</time></trkpt><trkpt lat="48.10872324305755" lon="1.3160796653405022"><ele>127.0</ele><time>2026-04-25T16:22:28Z</time></trkpt><trkpt lat="48.10875445461858" lon="1.3159939951865995"><ele>127.00000000000001</ele><time>2026-04-25T16:22:30Z</time></trkpt><trkpt lat="48.10878138997386" lon="1.3158730223940722"><ele>127.0</ele><time>2026-04-25T16:22:32Z</time></trkpt><trkpt lat="48.108828495075954" lon="1.31577364730833"><ele>127.0</ele><time>2026-04-25T16:22:34Z</time></trkpt><trkpt lat="48.10888869190907" lon="1.3156907748552873"><ele>127.0</ele><time>2026-04-25T16:22:36Z</time></trkpt><trkpt lat="48.10892943394318" lon="1.3156180002587263"><ele>127.00000000000001</ele><time>2026-04-25T16:22:38Z</time></trkpt><trkpt lat="48.1089723124935" lon="1.315534667242686"><ele>127.0</ele><time>2026-04-25T16:22:40Z</time></trkpt><trkpt lat="48.10902394867538" lon="1.3154164829272728"><ele>127.8</ele><time>2026-04-25T16:22:42Z</time></trkpt><trkpt lat="48.10908791647946" lon="1.3153111826416921"><ele>128.6</ele><time>2026-04-25T16:22:44Z</time></trkpt><trkpt lat="48.10917328942741" lon="1.3151258071113545"><ele>129.39999999999998</ele><time>2026-04-25T16:22:46Z</time></trkpt><trkpt lat="48.10921060302578" lon="1.3150264345430986"><ele>130.2</ele><time>2026-04-25T16:22:48Z</time></trkpt><trkpt lat="48.10924512190871" lon="1.3148888434471018"><ele>131.0</ele><time>2026-04-25T16:22:50Z</time></trkpt><trkpt lat="48.10924830087803" lon="1.3147901367211148"><ele>139.0</ele><time>2026-04-25T16:22:52Z</time></trkpt><trkpt lat="48.109698561341794" lon="1.3138810505530623"><ele>139.0</ele><time>2026-04-25T16:23:04Z</time></trkpt><trkpt lat="48.109763009662935" lon="1.3137317285729415"><ele>139.0</ele><time>2026-04-25T16:23:06Z</time></trkpt><trkpt lat="48.109831037427476" lon="1.3136180596544278"><ele>139.0</ele><time>2026-04-25T16:23:08Z</time></trkpt><trkpt lat="48.10990582938839" lon="1.3135610624634715"><ele>139.0</ele><time>2026-04-25T16:23:10Z</time></trkpt><trkpt lat="48.109934920626685" lon="1.313466505449679"><ele>139.0</ele><time>2026-04-25T16:23:14Z</time></trkpt><trkpt lat="48.110015196431" lon="1.3133474027131393"><ele>138.66666666666669</ele><time>2026-04-25T16:23:17Z</time></trkpt><trkpt lat="48.110074714361346" lon="1.3132597934194532"><ele>138.33333333333334</ele><time>2026-04-25T16:23:20Z</time></trkpt><trkpt lat="48.11013458746911" lon="1.313216661669463"><ele>138.0</ele><time>2026-04-25T16:23:24Z</time></trkpt><trkpt lat="48.11018031918664" lon="1.313141711556077"><ele>137.66666666666666</ele><time>2026-04-25T16:23:28Z</time></trkpt><trkpt lat="48.11023710972633" lon="1.3130624923500163"><ele>137.33333333333331</ele><time>2026-04-25T16:23:30Z</time></trkpt><trkpt lat="48.110291267139694" lon="1.3129949825735945"><ele>137.0</ele><time>2026-04-25T16:23:32Z</time></trkpt><trkpt lat="48.11035729389949" lon="1.3129107441274785"><ele>137.79999999999998</ele><time>2026-04-25T16:23:34Z</time></trkpt><trkpt lat="48.11043299685497" lon="1.312863851551914"><ele>138.6</ele><time>2026-04-25T16:23:36Z</time></trkpt><trkpt lat="48.11049669459012" lon="1.3127465058413084"><ele>139.39999999999998</ele><time>2026-04-25T16:23:38Z</time></trkpt><trkpt lat="48.11056684077507" lon="1.3126518511719227"><ele>140.2</ele><time>2026-04-25T16:23:40Z</time></trkpt><trkpt lat="48.110649792418364" lon="1.3125460129056714"><ele>141.0</ele><time>2026-04-25T16:23:42Z</time></trkpt><trkpt lat="48.11070537657221" lon="1.3124636326940662"><ele>141.2</ele><time>2026-04-25T16:23:44Z</time></trkpt><trkpt lat="48.11075494664426" lon="1.3123913064418145"><ele>141.39999999999998</ele><time>2026-04-25T16:23:45Z</time></trkpt><trkpt lat="48.11084958818462" lon="1.3123119303702209"><ele>141.6</ele><time>2026-04-25T16:23:47Z</time></trkpt><trkpt lat="48.11094239501857" lon="1.3122169079161956"><ele>141.79999999999998</ele><time>2026-04-25T16:23:49Z</time></trkpt><trkpt lat="48.11103250108031" lon="1.3121662406534367"><ele>142.0</ele><time>2026-04-25T16:23:51Z</time></trkpt><trkpt lat="48.111113322552015" lon="1.3121169084976785"><ele>142.5</ele><time>2026-04-25T16:23:53Z</time></trkpt><trkpt lat="48.111419247983704" lon="1.3117838979455936"><ele>143.0</ele><time>2026-04-25T16:24:04Z</time></trkpt><trkpt lat="48.111489789419" lon="1.3117079067170736"><ele>143.0</ele><time>2026-04-25T16:24:08Z</time></trkpt><trkpt lat="48.11157272071656" lon="1.3116106194002253"><ele>143.0</ele><time>2026-04-25T16:24:11Z</time></trkpt><trkpt lat="48.11165348003282" lon="1.3115080414614602"><ele>143.0</ele><time>2026-04-25T16:24:13Z</time></trkpt><trkpt lat="48.11172332061902" lon="1.3114161413598697"><ele>143.0</ele><time>2026-04-25T16:24:15Z</time></trkpt><trkpt lat="48.111764930677204" lon="1.3113410574535658"><ele>143.0</ele><time>2026-04-25T16:24:16Z</time></trkpt><trkpt lat="48.11184097862862" lon="1.3112636330897376"><ele>143.20000000000002</ele><time>2026-04-25T16:24:18Z</time></trkpt><trkpt lat="48.11188664982627" lon="1.311171173087173"><ele>143.4</ele><time>2026-04-25T16:24:20Z</time></trkpt><trkpt lat="48.11193141148072" lon="1.3110778523786575"><ele>143.60000000000002</ele><time>2026-04-25T16:24:22Z</time></trkpt><trkpt lat="48.11200570640496" lon="1.3109825371214674"><ele>143.8</ele><time>2026-04-25T16:24:24Z</time></trkpt><trkpt lat="48.11208799426632" lon="1.310884970886027"><ele>144.0</ele><time>2026-04-25T16:24:26Z</time></trkpt><trkpt lat="48.11218867077949" lon="1.3107756491758256"><ele>144.00000000000003</ele><time>2026-04-25T16:24:28Z</time></trkpt><trkpt lat="48.112256636510914" lon="1.3107453935487348"><ele>144.0</ele><time>2026-04-25T16:24:29Z</time></trkpt><trkpt lat="48.11232126236502" lon="1.3107126129060473"><ele>144.0</ele><time>2026-04-25T16:24:30Z</time></trkpt><trkpt lat="48.112389541491204" lon="1.310677452634388"><ele>144.0</ele><time>2026-04-25T16:24:31Z</time></trkpt><trkpt lat="48.11245471300132" lon="1.3106524843250622"><ele>144.0</ele><time>2026-04-25T16:24:32Z</time></trkpt><trkpt lat="48.11252347998934" lon="1.3106315235785897"><ele>144.00000000000003</ele><time>2026-04-25T16:24:33Z</time></trkpt><trkpt lat="48.11259111748079" lon="1.3105775957786285"><ele>144.0</ele><time>2026-04-25T16:24:34Z</time></trkpt><trkpt lat="48.11265624843083" lon="1.310532019611926"><ele>143.83333333333334</ele><time>2026-04-25T16:24:35Z</time></trkpt><trkpt lat="48.11270897995021" lon="1.3104741804538196"><ele>143.66666666666666</ele><time>2026-04-25T16:24:36Z</time></trkpt><trkpt lat="48.11276329680245" lon="1.3104127475711265"><ele>143.5</ele><time>2026-04-25T16:24:37Z</time></trkpt><trkpt lat="48.112812450191726" lon="1.3103536296032436"><ele>143.33333333333331</ele><time>2026-04-25T16:24:38Z</time></trkpt><trkpt lat="48.11291739980448" lon="1.3102762023090344"><ele>143.16666666666666</ele><time>2026-04-25T16:24:40Z</time></trkpt><trkpt lat="48.11300172177076" lon="1.310212912018925"><ele>143.0</ele><time>2026-04-25T16:24:42Z</time></trkpt><trkpt lat="48.11306617928149" lon="1.3101772458706797"><ele>143.0</ele><time>2026-04-25T16:24:44Z</time></trkpt><trkpt lat="48.1131328551151" lon="1.3101530212409151"><ele>143.0</ele><time>2026-04-25T16:24:46Z</time></trkpt><trkpt lat="48.11320327718448" lon="1.3101585328642888"><ele>143.0</ele><time>2026-04-25T16:24:48Z</time></trkpt><trkpt lat="48.11480168728445" lon="1.3063194732456218"><ele>143.16666666666666</ele><time>2026-04-25T16:26:04Z</time></trkpt><trkpt lat="48.11484215380791" lon="1.306240950139434"><ele>143.33333333333331</ele><time>2026-04-25T16:26:05Z</time></trkpt><trkpt lat="48.11488065130277" lon="1.3061525112052235"><ele>143.5</ele><time>2026-04-25T16:26:06Z</time></trkpt><trkpt lat="48.114917088323764" lon="1.30607215272846"><ele>143.66666666666666</ele><time>2026-04-25T16:26:07Z</time></trkpt><trkpt lat="48.11495491384856" lon="1.305985164219573"><ele>143.83333333333334</ele><time>2026-04-25T16:26:08Z</time></trkpt><trkpt lat="48.114985001333245" lon="1.3058995053951687"><ele>144.0</ele><time>2026-04-25T16:26:09Z</time></trkpt><trkpt lat="48.11503822458499" lon="1.305728623330412"><ele>144.00000000000003</ele><time>2026-04-25T16:26:11Z</time></trkpt><trkpt lat="48.115063386400564" lon="1.305640767899195"><ele>144.0</ele><time>2026-04-25T16:26:12Z</time></trkpt><trkpt lat="48.1150914512012" lon="1.3055476939911088"><ele>144.0</ele><time>2026-04-25T16:26:13Z</time></trkpt><trkpt lat="48.11511273534627" lon="1.3054508627935928"><ele>144.0</ele><time>2026-04-25T16:26:14Z</time></trkpt><trkpt lat="48.11513608221617" lon="1.305350933641649"><ele>144.0</ele><time>2026-04-25T16:26:15Z</time></trkpt><trkpt lat="48.11515928119576" lon="1.3052603253744426"><ele>144.00000000000003</ele><time>2026-04-25T16:26:16Z</time></trkpt><trkpt lat="48.11518291515008" lon="1.3051712991271582"><ele>144.0</ele><time>2026-04-25T16:26:17Z</time></trkpt><trkpt lat="48.115205445112956" lon="1.3050795965891766"><ele>144.14285714285717</ele><time>2026-04-25T16:26:18Z</time></trkpt><trkpt lat="48.11524629946308" lon="1.3049921473806119"><ele>144.28571428571428</ele><time>2026-04-25T16:26:19Z</time></trkpt><trkpt lat="48.11527048419299" lon="1.3049006960394105"><ele>144.42857142857144</ele><time>2026-04-25T16:26:20Z</time></trkpt><trkpt lat="48.11528027875088" lon="1.3047965848128742"><ele>144.57142857142858</ele><time>2026-04-25T16:26:21Z</time></trkpt><trkpt lat="48.11530746784335" lon="1.3047047313187337"><ele>144.71428571428572</ele><time>2026-04-25T16:26:22Z</time></trkpt><trkpt lat="48.11533226609024" lon="1.3046133262071653"><ele>144.85714285714286</ele><time>2026-04-25T16:26:23Z</time></trkpt><trkpt lat="48.11535613052288" lon="1.3045153539167889"><ele>145.0</ele><time>2026-04-25T16:26:24Z</time></trkpt><trkpt lat="48.11539566155012" lon="1.3043691947226757"><ele>145.16666666666669</ele><time>2026-04-25T16:26:26Z</time></trkpt><trkpt lat="48.1154276230935" lon="1.3042485012385663"><ele>145.33333333333334</ele><time>2026-04-25T16:26:28Z</time></trkpt><trkpt lat="48.11546961791112" lon="1.3041215804171657"><ele>145.5</ele><time>2026-04-25T16:26:30Z</time></trkpt><trkpt lat="48.11551716202429" lon="1.3040537076310001"><ele>145.66666666666666</ele><time>2026-04-25T16:26:32Z</time></trkpt><trkpt lat="48.115570715725916" lon="1.3039690618437285"><ele>145.83333333333331</ele><time>2026-04-25T16:26:35Z</time></trkpt><trkpt lat="48.11552158741899" lon="1.3038402961216131"><ele>146.0</ele><time>2026-04-25T16:26:37Z</time></trkpt><trkpt lat="48.11546366226266" lon="1.3037414763497734"><ele>146.16666666666666</ele><time>2026-04-25T16:26:39Z</time></trkpt><trkpt lat="48.115430189769384" lon="1.303633724369946"><ele>146.33333333333331</ele><time>2026-04-25T16:26:41Z</time></trkpt><trkpt lat="48.11539404036335" lon="1.303544740192741"><ele>146.5</ele><time>2026-04-25T16:26:43Z</time></trkpt><trkpt lat="48.11533978916732" lon="1.3034822371688028"><ele>146.66666666666666</ele><time>2026-04-25T16:26:45Z</time></trkpt><trkpt lat="48.115312483349754" lon="1.3033845930204653"><ele>146.83333333333334</ele><time>2026-04-25T16:26:48Z</time></trkpt><trkpt lat="48.11527857372844" lon="1.303280692082976"><ele>147.0</ele><time>2026-04-25T16:26:50Z</time></trkpt><trkpt lat="48.11522840579099" lon="1.3031647929801116"><ele>148.0</ele><time>2026-04-25T16:26:52Z</time></trkpt><trkpt lat="48.11491911978608" lon="1.3023730135490459"><ele>148.0</ele><time>2026-04-25T16:27:04Z</time></trkpt><trkpt lat="48.11484598444858" lon="1.3022406380665843"><ele>148.0</ele><time>2026-04-25T16:27:06Z</time></trkpt><trkpt lat="48.114765056206764" lon="1.3020984809214426"><ele>148.0</ele><time>2026-04-25T16:27:08Z</time></trkpt><trkpt lat="48.11472326215952" lon="1.3020242845677472"><ele>148.0</ele><time>2026-04-25T16:27:09Z</time></trkpt><trkpt lat="48.11464433409492" lon="1.3018868125082168"><ele>148.0</ele><time>2026-04-25T16:27:11Z</time></trkpt><trkpt lat="48.11455801808044" lon="1.3017806855430407"><ele>148.0</ele><time>2026-04-25T16:27:13Z</time></trkpt><trkpt lat="48.11447295090334" lon="1.3016927110086876"><ele>148.0</ele><time>2026-04-25T16:27:15Z</time></trkpt><trkpt lat="48.11439964852296" lon="1.3016130505081214"><ele>148.0</ele><time>2026-04-25T16:27:17Z</time></trkpt><trkpt lat="48.11431676963222" lon="1.3015159648850296"><ele>148.0</ele><time>2026-04-25T16:27:19Z</time></trkpt><trkpt lat="48.11422618393515" lon="1.3014214821938925"><ele>148.0</ele><time>2026-04-25T16:27:21Z</time></trkpt><trkpt lat="48.11414189036388" lon="1.3013205120691225"><ele>148.20000000000002</ele><time>2026-04-25T16:27:23Z</time></trkpt><trkpt lat="48.114058959928634" lon="1.3012075796159583"><ele>148.4</ele><time>2026-04-25T16:27:25Z</time></trkpt><trkpt lat="48.11399788337458" lon="1.301106417877179"><ele>148.60000000000002</ele><time>2026-04-25T16:27:27Z</time></trkpt><trkpt lat="48.113955260683895" lon="1.3010034626530473"><ele>148.8</ele><time>2026-04-25T16:27:29Z</time></trkpt><trkpt lat="48.11391901179403" lon="1.3008765559500797"><ele>149.0</ele><time>2026-04-25T16:27:31Z</time></trkpt><trkpt lat="48.113924422553566" lon="1.3007657247851399"><ele>149.0</ele><time>2026-04-25T16:27:33Z</time></trkpt><trkpt lat="48.113963463729604" lon="1.3006896422143952"><ele>149.0</ele><time>2026-04-25T16:27:35Z</time></trkpt><trkpt lat="48.11403854966412" lon="1.3006354285788513"><ele>149.0</ele><time>2026-04-25T16:27:37Z</time></trkpt><trkpt lat="48.11420815702985" lon="1.3006212441345735"><ele>149.0</ele><time>2026-04-25T16:27:41Z</time></trkpt><trkpt lat="48.11446117994344" lon="1.3006233512307577"><ele>148.0</ele><time>2026-04-25T16:27:50Z</time></trkpt><trkpt lat="48.116782344647625" lon="1.2977838011432523"><ele>148.0</ele><time>2026-04-25T16:29:04Z</time></trkpt><trkpt lat="48.11679193386121" lon="1.2976719492287534"><ele>148.0</ele><time>2026-04-25T16:29:06Z</time></trkpt><trkpt lat="48.116786803452804" lon="1.2975282688986916"><ele>148.0</ele><time>2026-04-25T16:29:08Z</time></trkpt><trkpt lat="48.116780127071515" lon="1.2973803992683457"><ele>148.0</ele><time>2026-04-25T16:29:10Z</time></trkpt><trkpt lat="48.11678461343967" lon="1.2972288375276553"><ele>148.0</ele><time>2026-04-25T16:29:12Z</time></trkpt><trkpt lat="48.11678276489524" lon="1.297069721434062"><ele>148.0</ele><time>2026-04-25T16:29:14Z</time></trkpt><trkpt lat="48.116767074909106" lon="1.2969059311966114"><ele>148.0</ele><time>2026-04-25T16:29:16Z</time></trkpt><trkpt lat="48.11674905923341" lon="1.2967231435971112"><ele>148.0</ele><time>2026-04-25T16:29:18Z</time></trkpt><trkpt lat="48.116734156425615" lon="1.2966277549030694"><ele>148.0</ele><time>2026-04-25T16:29:19Z</time></trkpt><trkpt lat="48.1167125285845" lon="1.2965352772707146"><ele>148.0</ele><time>2026-04-25T16:29:20Z</time></trkpt><trkpt lat="48.11669266239386" lon="1.2964383751262012"><ele>148.0</ele><time>2026-04-25T16:29:21Z</time></trkpt><trkpt lat="48.11667305130733" lon="1.2963440199272942"><ele>147.83333333333334</ele><time>2026-04-25T16:29:22Z</time></trkpt><trkpt lat="48.116649870794944" lon="1.2962495796018385"><ele>147.66666666666669</ele><time>2026-04-25T16:29:23Z</time></trkpt><trkpt lat="48.11662574954675" lon="1.2961599998784215"><ele>147.5</ele><time>2026-04-25T16:29:24Z</time></trkpt><trkpt lat="48.116571214715165" lon="1.2959827654254434"><ele>147.33333333333334</ele><time>2026-04-25T16:29:26Z</time></trkpt><trkpt lat="48.116554183647075" lon="1.2958913354737802"><ele>147.16666666666666</ele><time>2026-04-25T16:29:27Z</time></trkpt><trkpt lat="48.11650981456616" lon="1.2957452807650058"><ele>147.0</ele><time>2026-04-25T16:29:29Z</time></trkpt><trkpt lat="48.11646882322108" lon="1.2955916378852774"><ele>147.2</ele><time>2026-04-25T16:29:31Z</time></trkpt><trkpt lat="48.116439439403855" lon="1.295447471028845"><ele>147.39999999999998</ele><time>2026-04-25T16:29:33Z</time></trkpt><trkpt lat="48.116413039324726" lon="1.2953175186510264"><ele>147.60000000000002</ele><time>2026-04-25T16:29:35Z</time></trkpt><trkpt lat="48.116387896286035" lon="1.2951801344392666"><ele>147.8</ele><time>2026-04-25T16:29:37Z</time></trkpt><trkpt lat="48.11636475121854" lon="1.295043973516327"><ele>148.0</ele><time>2026-04-25T16:29:40Z</time></trkpt><trkpt lat="48.11634478210239" lon="1.2949185619903552"><ele>148.0</ele><time>2026-04-25T16:29:42Z</time></trkpt><trkpt lat="48.11632477825059" lon="1.2947822572518597"><ele>148.0</ele><time>2026-04-25T16:29:44Z</time></trkpt><trkpt lat="48.11630955516883" lon="1.2946301387285966"><ele>148.0</ele><time>2026-04-25T16:29:46Z</time></trkpt><trkpt lat="48.11629742729506" lon="1.2944636639629574"><ele>148.0</ele><time>2026-04-25T16:29:48Z</time></trkpt><trkpt lat="48.116293901268456" lon="1.2943659123253342"><ele>148.0</ele><time>2026-04-25T16:29:49Z</time></trkpt><trkpt lat="48.11629687817549" lon="1.294271035379851"><ele>148.0</ele><time>2026-04-25T16:29:50Z</time></trkpt><trkpt lat="48.11629854858474" lon="1.2940951209739877"><ele>147.0</ele><time>2026-04-25T16:29:52Z</time></trkpt><trkpt lat="48.116205119704226" lon="1.2929552261231618"><ele>147.0</ele><time>2026-04-25T16:30:04Z</time></trkpt><trkpt lat="48.116174671946844" lon="1.2927861795683508"><ele>147.0</ele><time>2026-04-25T16:30:06Z</time></trkpt><trkpt lat="48.116159558704545" lon="1.2926941494623159"><ele>147.0</ele><time>2026-04-25T16:30:07Z</time></trkpt><trkpt lat="48.11614388176607" lon="1.2925282017082078"><ele>147.0</ele><time>2026-04-25T16:30:09Z</time></trkpt><trkpt lat="48.11612968188048" lon="1.292372524715237"><ele>147.0</ele><time>2026-04-25T16:30:11Z</time></trkpt><trkpt lat="48.11611089081101" lon="1.2922051433222281"><ele>147.5</ele><time>2026-04-25T16:30:13Z</time></trkpt><trkpt lat="48.116093524908216" lon="1.2920279325464967"><ele>148.0</ele><time>2026-04-25T16:30:15Z</time></trkpt><trkpt lat="48.11607698541013" lon="1.2918460146423187"><ele>148.5</ele><time>2026-04-25T16:30:17Z</time></trkpt><trkpt lat="48.116066303455554" lon="1.291675325607186"><ele>149.0</ele><time>2026-04-25T16:30:19Z</time></trkpt><trkpt lat="48.11606418433405" lon="1.2915324676690247"><ele>149.16666666666666</ele><time>2026-04-25T16:30:21Z</time></trkpt><trkpt lat="48.116063091974745" lon="1.2914015651177801"><ele>149.33333333333331</ele><time>2026-04-25T16:30:23Z</time></trkpt><trkpt lat="48.116075430589454" lon="1.2912976819237285"><ele>149.5</ele><time>2026-04-25T16:30:25Z</time></trkpt><trkpt lat="48.116099208093566" lon="1.2911775051368772"><ele>149.66666666666666</ele><time>2026-04-25T16:30:27Z</time></trkpt><trkpt lat="48.11613414348548" lon="1.2910595322861127"><ele>149.83333333333334</ele><time>2026-04-25T16:30:29Z</time></trkpt><trkpt lat="48.116189727641995" lon="1.2909350441041878"><ele>150.0</ele><time>2026-04-25T16:30:31Z</time></trkpt><trkpt lat="48.11627104034233" lon="1.2908093769238236"><ele>150.0</ele><time>2026-04-25T16:30:33Z</time></trkpt><trkpt lat="48.11637053495677" lon="1.2907043530919513"><ele>150.0</ele><time>2026-04-25T16:30:35Z</time></trkpt><trkpt lat="48.11642710521145" lon="1.2906519735737647"><ele>150.0</ele><time>2026-04-25T16:30:36Z</time></trkpt><trkpt lat="48.11648019587803" lon="1.290596607151659"><ele>150.0</ele><time>2026-04-25T16:30:37Z</time></trkpt><trkpt lat="48.11652901561724" lon="1.2905313935556737"><ele>150.0</ele><time>2026-04-25T16:30:38Z</time></trkpt><trkpt lat="48.116577751627844" lon="1.2904608762731173"><ele>150.0</ele><time>2026-04-25T16:30:39Z</time></trkpt><trkpt lat="48.11662559109759" lon="1.2903914540262345"><ele>149.7142857142857</ele><time>2026-04-25T16:30:40Z</time></trkpt><trkpt lat="48.11666597685045" lon="1.2903113448742234"><ele>149.42857142857142</ele><time>2026-04-25T16:30:41Z</time></trkpt><trkpt lat="48.116693838971955" lon="1.2902184369738776"><ele>149.14285714285714</ele><time>2026-04-25T16:30:42Z</time></trkpt><trkpt lat="48.11671855383317" lon="1.2901142962916987"><ele>148.85714285714283</ele><time>2026-04-25T16:30:43Z</time></trkpt><trkpt lat="48.116734446558226" lon="1.2900121170847254"><ele>148.57142857142856</ele><time>2026-04-25T16:30:44Z</time></trkpt><trkpt lat="48.116739132537326" lon="1.289903646979494"><ele>148.28571428571428</ele><time>2026-04-25T16:30:45Z</time></trkpt><trkpt lat="48.11673187209024" lon="1.2898033205582817"><ele>148.0</ele><time>2026-04-25T16:30:46Z</time></trkpt><trkpt lat="48.11672575624785" lon="1.2897087757783403"><ele>148.0</ele><time>2026-04-25T16:30:47Z</time></trkpt><trkpt lat="48.11670117283183" lon="1.289605295346098"><ele>148.0</ele><time>2026-04-25T16:30:48Z</time></trkpt><trkpt lat="48.11667540376728" lon="1.2895090662244288"><ele>148.0</ele><time>2026-04-25T16:30:49Z</time></trkpt><trkpt lat="48.11662489818259" lon="1.2893500543941634"><ele>148.0</ele><time>2026-04-25T16:30:51Z</time></trkpt><trkpt lat="48.116574756586076" lon="1.289198130213022"><ele>148.0</ele><time>2026-04-25T16:30:53Z</time></trkpt><trkpt lat="48.11636189661024" lon="1.2886256374543823"><ele>148.14285714285714</ele><time>2026-04-25T16:31:04Z</time></trkpt><trkpt lat="48.11641852233108" lon="1.2885503655534758"><ele>148.28571428571428</ele><time>2026-04-25T16:31:07Z</time></trkpt><trkpt lat="48.11648259716155" lon="1.2885384701159066"><ele>148.42857142857142</ele><time>2026-04-25T16:31:09Z</time></trkpt><trkpt lat="48.11654659874849" lon="1.2885139553106701"><ele>148.57142857142856</ele><time>2026-04-25T16:31:11Z</time></trkpt><trkpt lat="48.116616614437746" lon="1.2884784563838463"><ele>148.7142857142857</ele><time>2026-04-25T16:31:13Z</time></trkpt><trkpt lat="48.11669323790473" lon="1.2884392210569344"><ele>148.85714285714286</ele><time>2026-04-25T16:31:15Z</time></trkpt><trkpt lat="48.11676625968899" lon="1.2883890287961004"><ele>149.0</ele><time>2026-04-25T16:31:17Z</time></trkpt><trkpt lat="48.11683851032986" lon="1.2883496193339055"><ele>148.66666666666666</ele><time>2026-04-25T16:31:19Z</time></trkpt><trkpt lat="48.11690380411799" lon="1.2883153409901644"><ele>148.33333333333331</ele><time>2026-04-25T16:31:21Z</time></trkpt><trkpt lat="48.116969314546715" lon="1.2882578704976337"><ele>148.0</ele><time>2026-04-25T16:31:23Z</time></trkpt><trkpt lat="48.11703883711659" lon="1.2882326568748106"><ele>147.66666666666666</ele><time>2026-04-25T16:31:25Z</time></trkpt><trkpt lat="48.11711663209967" lon="1.288193418379106"><ele>147.33333333333334</ele><time>2026-04-25T16:31:27Z</time></trkpt><trkpt lat="48.11719021550858" lon="1.2881597903729918"><ele>147.0</ele><time>2026-04-25T16:31:29Z</time></trkpt><trkpt lat="48.117268585628594" lon="1.2881153993209042"><ele>147.0</ele><time>2026-04-25T16:31:32Z</time></trkpt><trkpt lat="48.11734532940303" lon="1.2880765904435563"><ele>147.0</ele><time>2026-04-25T16:31:35Z</time></trkpt><trkpt lat="48.11742050699863" lon="1.288022918251056"><ele>147.0</ele><time>2026-04-25T16:31:38Z</time></trkpt><trkpt lat="48.11749728098597" lon="1.2879628252886903"><ele>147.0</ele><time>2026-04-25T16:31:41Z</time></trkpt><trkpt lat="48.11758725737475" lon="1.287913149999199"><ele>147.0</ele><time>2026-04-25T16:31:44Z</time></trkpt><trkpt lat="48.117659218061135" lon="1.2878915317047541"><ele>147.0</ele><time>2026-04-25T16:31:46Z</time></trkpt><trkpt lat="48.1177211551763" lon="1.2878509574002093"><ele>147.0</ele><time>2026-04-25T16:31:48Z</time></trkpt><trkpt lat="48.117813184330224" lon="1.2878301072899434"><ele>147.0</ele><time>2026-04-25T16:31:51Z</time></trkpt><trkpt lat="48.117883183875115" lon="1.2877901038992488"><ele>147.0</ele><time>2026-04-25T16:31:53Z</time></trkpt><trkpt lat="48.1181991512395" lon="1.2876128346492044"><ele>146.66666666666666</ele><time>2026-04-25T16:32:04Z</time></trkpt><trkpt lat="48.11828403581615" lon="1.287546158908748"><ele>146.33333333333334</ele><time>2026-04-25T16:32:07Z</time></trkpt><trkpt lat="48.118366162086275" lon="1.2875081927041678"><ele>146.0</ele><time>2026-04-25T16:32:10Z</time></trkpt><trkpt lat="48.11843243187015" lon="1.2874670483340158"><ele>145.66666666666669</ele><time>2026-04-25T16:32:12Z</time></trkpt><trkpt lat="48.11850870307347" lon="1.2874292009996968"><ele>145.33333333333334</ele><time>2026-04-25T16:32:14Z</time></trkpt><trkpt lat="48.118581963208875" lon="1.2873868872392364"><ele>145.0</ele><time>2026-04-25T16:32:16Z</time></trkpt><trkpt lat="48.11866764558122" lon="1.2873401471984949"><ele>145.0</ele><time>2026-04-25T16:32:19Z</time></trkpt><trkpt lat="48.11874450434359" lon="1.2872898175706726"><ele>145.0</ele><time>2026-04-25T16:32:22Z</time></trkpt><trkpt lat="48.1188218906958" lon="1.2872721414956012"><ele>145.0</ele><time>2026-04-25T16:32:25Z</time></trkpt><trkpt lat="48.118878336051615" lon="1.2872138438163363"><ele>145.0</ele><time>2026-04-25T16:32:27Z</time></trkpt><trkpt lat="48.1189429774033" lon="1.2871958084370052"><ele>145.0</ele><time>2026-04-25T16:32:29Z</time></trkpt><trkpt lat="48.119017616258304" lon="1.2871563203176943"><ele>145.0</ele><time>2026-04-25T16:32:31Z</time></trkpt><trkpt lat="48.11909688163662" lon="1.2871102060857782"><ele>145.16666666666669</ele><time>2026-04-25T16:32:33Z</time></trkpt><trkpt lat="48.119175444585586" lon="1.2870594257876855"><ele>145.33333333333334</ele><time>2026-04-25T16:32:35Z</time></trkpt><trkpt lat="48.119258443199655" lon="1.2870026037582436"><ele>145.5</ele><time>2026-04-25T16:32:37Z</time></trkpt><trkpt lat="48.119340634637275" lon="1.286965701006777"><ele>145.66666666666666</ele><time>2026-04-25T16:32:39Z</time></trkpt><trkpt lat="48.119407949014466" lon="1.2869015189558854"><ele>145.83333333333331</ele><time>2026-04-25T16:32:41Z</time></trkpt><trkpt lat="48.1194886629595" lon="1.286871735274049"><ele>146.0</ele><time>2026-04-25T16:32:43Z</time></trkpt><trkpt lat="48.11956930907443" lon="1.2868295321438934"><ele>146.0</ele><time>2026-04-25T16:32:45Z</time></trkpt><trkpt lat="48.11963749464357" lon="1.2867831244211956"><ele>146.0</ele><time>2026-04-25T16:32:47Z</time></trkpt><trkpt lat="48.11969815766448" lon="1.2867510054674203"><ele>146.0</ele><time>2026-04-25T16:32:49Z</time></trkpt><trkpt lat="48.11976888503825" lon="1.2867177032465351"><ele>146.0</ele><time>2026-04-25T16:32:51Z</time></trkpt><trkpt lat="48.119842403254715" lon="1.2866834153460676"><ele>146.0</ele><time>2026-04-25T16:32:53Z</time></trkpt><trkpt lat="48.12210607690591" lon="1.2854233781262694"><ele>146.33333333333331</ele><time>2026-04-25T16:33:54Z</time></trkpt><trkpt lat="48.122186187329405" lon="1.2853904084601369"><ele>146.66666666666666</ele><time>2026-04-25T16:33:56Z</time></trkpt><trkpt lat="48.12226517504613" lon="1.2853414799362441"><ele>147.0</ele><time>2026-04-25T16:33:58Z</time></trkpt><trkpt lat="48.122345323224074" lon="1.2853002241867715"><ele>147.33333333333334</ele><time>2026-04-25T16:34:00Z</time></trkpt><trkpt lat="48.122426138459794" lon="1.2852542641131546"><ele>147.66666666666669</ele><time>2026-04-25T16:34:02Z</time></trkpt><trkpt lat="48.12250800309932" lon="1.2852138598424228"><ele>148.0</ele><time>2026-04-25T16:34:04Z</time></trkpt><trkpt lat="48.12259025826426" lon="1.285163613816296"><ele>148.16666666666669</ele><time>2026-04-25T16:34:06Z</time></trkpt><trkpt lat="48.12266686175684" lon="1.28511183986457"><ele>148.33333333333334</ele><time>2026-04-25T16:34:08Z</time></trkpt><trkpt lat="48.12274875881079" lon="1.2850671691329618"><ele>148.5</ele><time>2026-04-25T16:34:10Z</time></trkpt><trkpt lat="48.122817712822396" lon="1.2850203308429644"><ele>148.66666666666666</ele><time>2026-04-25T16:34:12Z</time></trkpt><trkpt lat="48.122889097338174" lon="1.285002169669543"><ele>148.83333333333331</ele><time>2026-04-25T16:34:14Z</time></trkpt><trkpt lat="48.12297257108564" lon="1.2849580099022186"><ele>149.0</ele><time>2026-04-25T16:34:17Z</time></trkpt><trkpt lat="48.12304112112167" lon="1.2849213189865691"><ele>149.0</ele><time>2026-04-25T16:34:20Z</time></trkpt><trkpt lat="48.12310934935118" lon="1.2849054534745612"><ele>149.0</ele><time>2026-04-25T16:34:23Z</time></trkpt><trkpt lat="48.123185924554264" lon="1.2848426236623314"><ele>149.0</ele><time>2026-04-25T16:34:26Z</time></trkpt><trkpt lat="48.12327233926811" lon="1.2848226362718431"><ele>149.0</ele><time>2026-04-25T16:34:29Z</time></trkpt><trkpt lat="48.123352508100595" lon="1.2847560956556348"><ele>149.0</ele><time>2026-04-25T16:34:32Z</time></trkpt><trkpt lat="48.123420441937846" lon="1.284736675653158"><ele>149.0</ele><time>2026-04-25T16:34:35Z</time></trkpt><trkpt lat="48.12350289259676" lon="1.2846886116216718"><ele>149.16666666666666</ele><time>2026-04-25T16:34:38Z</time></trkpt><trkpt lat="48.123559121963396" lon="1.2846403008877618"><ele>149.33333333333331</ele><time>2026-04-25T16:34:40Z</time></trkpt><trkpt lat="48.12362924958943" lon="1.2846000137401434"><ele>149.5</ele><time>2026-04-25T16:34:43Z</time></trkpt><trkpt lat="48.123700026351244" lon="1.2845655927332118"><ele>149.66666666666666</ele><time>2026-04-25T16:34:46Z</time></trkpt><trkpt lat="48.12376882787161" lon="1.2845337435636317"><ele>149.83333333333334</ele><time>2026-04-25T16:34:49Z</time></trkpt><trkpt lat="48.12385545898976" lon="1.2844868640277387"><ele>150.0</ele><time>2026-04-25T16:34:52Z</time></trkpt><trkpt lat="48.12574714224756" lon="1.2830057936662906"><ele>150.4</ele><time>2026-04-25T16:35:54Z</time></trkpt><trkpt lat="48.12585717074324" lon="1.2830216835134025"><ele>150.8</ele><time>2026-04-25T16:35:56Z</time></trkpt><trkpt lat="48.125969108362504" lon="1.2830557754978762"><ele>151.2</ele><time>2026-04-25T16:35:58Z</time></trkpt><trkpt lat="48.12605853118098" lon="1.283078798611851"><ele>151.6</ele><time>2026-04-25T16:36:00Z</time></trkpt><trkpt lat="48.1261441221694" lon="1.2830927033660784"><ele>152.0</ele><time>2026-04-25T16:36:02Z</time></trkpt><trkpt lat="48.1262081075918" lon="1.2831088650871865"><ele>152.0</ele><time>2026-04-25T16:36:04Z</time></trkpt><trkpt lat="48.12629371203931" lon="1.2831170164105439"><ele>152.0</ele><time>2026-04-25T16:36:06Z</time></trkpt><trkpt lat="48.1263806503905" lon="1.2831351612722293"><ele>152.0</ele><time>2026-04-25T16:36:09Z</time></trkpt><trkpt lat="48.12645414405326" lon="1.2831644526118324"><ele>152.0</ele><time>2026-04-25T16:36:11Z</time></trkpt><trkpt lat="48.126535247820435" lon="1.2831720630207226"><ele>152.0</ele><time>2026-04-25T16:36:13Z</time></trkpt><trkpt lat="48.126610273351055" lon="1.2831325348134766"><ele>152.0</ele><time>2026-04-25T16:36:16Z</time></trkpt><trkpt lat="48.12665718503784" lon="1.2830504736724515"><ele>152.0</ele><time>2026-04-25T16:36:22Z</time></trkpt><trkpt lat="48.12671426097395" lon="1.2820102032011549"><ele>152.0</ele><time>2026-04-25T16:37:04Z</time></trkpt><trkpt lat="48.12671186037093" lon="1.2819028855373709"><ele>152.0</ele><time>2026-04-25T16:37:05Z</time></trkpt><trkpt lat="48.126711711272904" lon="1.2818012640044003"><ele>152.0</ele><time>2026-04-25T16:37:06Z</time></trkpt><trkpt lat="48.1267141260616" lon="1.2816950462640369"><ele>152.0</ele><time>2026-04-25T16:37:07Z</time></trkpt><trkpt lat="48.12671603556987" lon="1.2815876964280948"><ele>152.0</ele><time>2026-04-25T16:37:08Z</time></trkpt><trkpt lat="48.12671625165587" lon="1.2814770660482122"><ele>152.0</ele><time>2026-04-25T16:37:09Z</time></trkpt><trkpt lat="48.12671535854046" lon="1.2813668717059592"><ele>152.0</ele><time>2026-04-25T16:37:10Z</time></trkpt><trkpt lat="48.12671365929022" lon="1.281255034199846"><ele>152.0</ele><time>2026-04-25T16:37:11Z</time></trkpt><trkpt lat="48.12671028632015" lon="1.2811407457563393"><ele>152.0</ele><time>2026-04-25T16:37:12Z</time></trkpt><trkpt lat="48.12670461357542" lon="1.2810254916902304"><ele>152.0</ele><time>2026-04-25T16:37:13Z</time></trkpt><trkpt lat="48.12670513897825" lon="1.2809105908976832"><ele>152.0</ele><time>2026-04-25T16:37:14Z</time></trkpt><trkpt lat="48.12669995425411" lon="1.2807941113117542"><ele>152.0</ele><time>2026-04-25T16:37:15Z</time></trkpt><trkpt lat="48.12668832991965" lon="1.2806752225406683"><ele>152.0</ele><time>2026-04-25T16:37:16Z</time></trkpt><trkpt lat="48.12668730466256" lon="1.280561528430742"><ele>151.83333333333331</ele><time>2026-04-25T16:37:17Z</time></trkpt><trkpt lat="48.126692993950236" lon="1.2804436974221944"><ele>151.66666666666666</ele><time>2026-04-25T16:37:18Z</time></trkpt><trkpt lat="48.12670105209034" lon="1.2803260983793243"><ele>151.5</ele><time>2026-04-25T16:37:19Z</time></trkpt><trkpt lat="48.12670854322494" lon="1.2802065829516154"><ele>151.33333333333334</ele><time>2026-04-25T16:37:20Z</time></trkpt><trkpt lat="48.12671488169023" lon="1.2800910989395171"><ele>151.16666666666669</ele><time>2026-04-25T16:37:21Z</time></trkpt><trkpt lat="48.12672506222048" lon="1.2799719160072747"><ele>151.0</ele><time>2026-04-25T16:37:22Z</time></trkpt><trkpt lat="48.12673754214327" lon="1.2798529722939178"><ele>150.66666666666669</ele><time>2026-04-25T16:37:23Z</time></trkpt><trkpt lat="48.126752773749516" lon="1.2797326522379415"><ele>150.33333333333334</ele><time>2026-04-25T16:37:24Z</time></trkpt><trkpt lat="48.126768097800316" lon="1.2796209504628668"><ele>150.0</ele><time>2026-04-25T16:37:25Z</time></trkpt><trkpt lat="48.12678549054999" lon="1.279507748191325"><ele>149.66666666666666</ele><time>2026-04-25T16:37:26Z</time></trkpt><trkpt lat="48.12680407600704" lon="1.2793912767421158"><ele>149.33333333333331</ele><time>2026-04-25T16:37:27Z</time></trkpt><trkpt lat="48.1268238434241" lon="1.279287358930348"><ele>149.0</ele><time>2026-04-25T16:37:28Z</time></trkpt><trkpt lat="48.1268412115135" lon="1.279190035227176"><ele>149.0</ele><time>2026-04-25T16:37:29Z</time></trkpt><trkpt lat="48.126857189774086" lon="1.2790940509450972"><ele>149.0</ele><time>2026-04-25T16:37:30Z</time></trkpt><trkpt lat="48.126894873744234" lon="1.2789339524023984"><ele>149.0</ele><time>2026-04-25T16:37:32Z</time></trkpt><trkpt lat="48.126928670810535" lon="1.2787499277627943"><ele>149.0</ele><time>2026-04-25T16:37:34Z</time></trkpt><trkpt lat="48.126950198625295" lon="1.2786580445701783"><ele>149.0</ele><time>2026-04-25T16:37:35Z</time></trkpt><trkpt lat="48.126989067806164" lon="1.2784951417445616"><ele>148.83333333333331</ele><time>2026-04-25T16:37:37Z</time></trkpt><trkpt lat="48.12700978260689" lon="1.2783620320197433"><ele>148.66666666666666</ele><time>2026-04-25T16:37:39Z</time></trkpt><trkpt lat="48.1270302255125" lon="1.2782529386084516"><ele>148.5</ele><time>2026-04-25T16:37:42Z</time></trkpt><trkpt lat="48.12700556375977" lon="1.2783932971688208"><ele>148.33333333333334</ele><time>2026-04-25T16:37:49Z</time></trkpt><trkpt lat="48.12697903491872" lon="1.2785104975944361"><ele>148.16666666666669</ele><time>2026-04-25T16:37:51Z</time></trkpt><trkpt lat="48.126957516268405" lon="1.2786229406567617"><ele>148.0</ele><time>2026-04-25T16:37:53Z</time></trkpt><trkpt lat="48.126653260009476" lon="1.282143840046125"><ele>148.71428571428572</ele><time>2026-04-25T16:38:54Z</time></trkpt><trkpt lat="48.12665144738199" lon="1.2822730113260323"><ele>149.42857142857142</ele><time>2026-04-25T16:38:57Z</time></trkpt><trkpt lat="48.12665281216151" lon="1.2823932546469592"><ele>150.14285714285714</ele><time>2026-04-25T16:39:00Z</time></trkpt><trkpt lat="48.12665318227769" lon="1.2825012136231495"><ele>150.85714285714286</ele><time>2026-04-25T16:39:03Z</time></trkpt><trkpt lat="48.126649561282754" lon="1.2826127835989105"><ele>151.57142857142858</ele><time>2026-04-25T16:39:06Z</time></trkpt><trkpt lat="48.12665170759817" lon="1.282715234754327"><ele>152.28571428571428</ele><time>2026-04-25T16:39:09Z</time></trkpt><trkpt lat="48.12662061786701" lon="1.2827984048227759"><ele>153.0</ele><time>2026-04-25T16:39:13Z</time></trkpt><trkpt lat="48.12663008595759" lon="1.2829020828647704"><ele>153.0</ele><time>2026-04-25T16:39:18Z</time></trkpt><trkpt lat="48.12662719740222" lon="1.2828059873192805"><ele>153.0</ele><time>2026-04-25T16:39:30Z</time></trkpt><trkpt lat="48.12660847291161" lon="1.2826943265290967"><ele>153.0</ele><time>2026-04-25T16:40:50Z</time></trkpt></trkseg></trk></gpx>